[[{"header":{"parameterUnit":"m.s-1","parameterCategory":1,"la1":30.6,"la2":28.766,"lo1":-90.7593,"lo2":-88.6598,"dy":0.0162,"dx":0.0183,"nx":116,"ny":114,"refTime":"2023-05-20T00:00:00:Z","depth":0,"parameterNumber":2,"parameterNumberName":"U-component_of_WINDS"},"data":[0.0,0.0,0.0,0.0,0.0,0.0,0.0,0.0,0.0,0.0,0.0,0.0,0.0,0.0,0.0,0.0,0.0,0.0,0.0,0.0,0.0,0.0,0.0,0.0,0.0,0.0,0.0,0.0,0.0,0.0,0.0,0.0,0.0,0.0,0.0,0.0,0.0,0.0,0.0,0.0,0.0,0.0,0.0,0.0,0.0,0.0,0.0,0.0,0.0,0.0,0.0,0.0,0.0,0.0,0.0,0.0,0.0,0.0,0.0,0.0,0.0,0.0,0.0,0.0,0.0,0.0,0.0,0.0,0.0,0.0,0.0,0.0,0.0,0.0,0.0,0.0,0.0,0.0,0.0,0.0,0.0,0.0,0.0,0.0,0.0,0.0,0.0,0.0,0.0,0.0,0.0,0.0,0.0,0.0,0.0,0.0,0.0,0.0,0.0,0.0,0.0,0.0,0.0,0.0,0.0,0.0,0.0,0.0,0.0,0.0,0.0,0.0,0.0,0.0,0.0,0.0,0.0,0.0,0.0,0.0,0.0,0.0,0.0,0.0,0.0,0.0,0.0,0.0,0.0,0.0,0.0,0.0,0.0,0.0,0.0,0.0,0.0,0.0,0.0,0.0,0.0,0.0,0.0,0.0,0.0,0.0,0.0,0.0,0.0,0.0,0.0,0.0,0.0,0.0,0.0,0.0,0.0,0.0,0.0,0.0,0.0,0.0,0.0,0.0,0.0,0.0,0.0,0.0,0.0,0.0,0.0,0.0,0.0,0.0,0.0,0.0,0.0,0.0,0.0,0.0,0.0,0.0,0.0,0.0,0.0,0.0,0.0,0.0,0.0,0.0,0.0,0.0,0.0,0.0,0.0,0.0,0.0,0.0,0.0,0.0,0.0,0.0,0.0,0.0,0.0,0.0,0.0,0.0,0.0,0.0,0.0,0.0,0.0,0.0,0.0,0.0,0.0,0.0,0.0,0.0,0.0,0.0,0.0,0.0,0.0,0.0,0.0,0.0,0.0,0.0,0.0,0.0,0.0,0.0,0.0,0.0,0.0,0.0,0.0,0.0,0.0,0.0,0.0,0.0,0.0,0.0,0.0,0.0,0.0,0.0,0.0,0.0,0.0,0.0,0.0,0.0,0.0,0.0,0.0,0.0,0.0,0.0,0.0,0.0,0.0,0.0,0.0,0.0,0.0,0.0,0.0,0.0,0.0,0.0,0.0,0.0,0.0,0.0,0.0,0.0,0.0,0.0,0.0,0.0,0.0,0.0,0.0,0.0,0.0,0.0,0.0,0.0,0.0,0.0,0.0,0.0,0.0,0.0,0.0,0.0,0.0,0.0,0.0,0.0,0.0,0.0,0.0,0.0,0.0,0.0,0.0,0.0,0.0,0.0,0.0,0.0,0.0,0.0,0.0,0.0,0.0,0.0,0.0,0.0,0.0,0.0,0.0,0.0,0.0,0.0,0.0,0.0,0.0,0.0,0.0,0.0,0.0,0.0,0.0,0.0,0.0,0.0,0.0,0.0,0.0,0.0,0.0,0.0,0.0,0.0,0.0,0.0,0.0,0.0,0.0,0.0,0.0,0.0,0.0,0.0,0.0,0.0,0.0,0.0,0.0,0.0,0.0,0.0,0.0,0.0,0.0,0.0,0.0,0.0,0.0,0.0,0.0,0.0,0.0,0.0,0.0,0.0,0.0,0.0,0.0,0.0,0.0,0.0,0.0,0.0,0.0,0.0,0.0,0.0,0.0,0.0,0.0,0.0,0.0,0.0,0.0,0.0,0.0,0.0,0.0,0.0,0.0,0.0,0.0,0.0,0.0,0.0,0.0,0.0,0.0,0.0,0.0,0.0,0.0,0.0,0.0,0.0,0.0,0.0,0.0,0.0,0.0,0.0,0.0,0.0,0.0,0.0,0.0,0.0,0.0,0.0,0.0,0.0,0.0,0.0,0.0,0.0,0.0,0.0,0.0,0.0,0.0,0.0,0.0,0.0,0.0,0.0,0.0,0.0,0.0,0.0,0.0,0.0,0.0,0.0,0.0,0.0,0.0,0.0,0.0,0.0,0.0,0.0,0.0,0.0,0.0,0.0,0.0,0.0,0.0,0.0,0.0,0.0,0.0,0.0,0.0,0.0,0.0,0.0,0.0,0.0,0.0,0.0,0.0,0.0,0.0,0.0,0.0,0.0,0.0,0.0,0.0,0.0,0.0,0.0,0.0,0.0,0.0,0.0,0.0,0.0,0.0,0.0,0.0,0.0,0.0,0.0,0.0,0.0,0.0,0.0,0.0,0.0,0.0,0.0,0.0,0.0,0.0,0.0,0.0,0.0,0.0,0.0,0.0,0.0,0.0,0.0,0.0,0.0,0.0,0.0,0.0,0.0,0.0,0.0,0.0,0.0,0.0,0.0,0.0,0.0,0.0,0.0,0.0,0.0,0.0,0.0,0.0,0.0,0.0,0.0,0.0,0.0,0.0,0.0,0.0,0.0,0.0,0.0,0.0,0.0,0.0,0.0,0.0,0.0,0.0,0.0,0.0,0.0,0.0,0.0,0.0,0.0,0.0,0.0,0.0,0.0,0.0,0.0,0.0,0.0,0.0,0.0,0.0,0.0,0.0,0.0,0.0,0.0,0.0,0.0,0.0,0.0,0.0,0.0,0.0,0.0,0.0,0.0,0.0,0.0,0.0,0.0,0.0,0.0,0.0,0.0,0.0,0.0,0.0,0.0,0.0,0.0,0.0,0.0,0.0,0.0,0.0,0.0,0.0,0.0,0.0,0.0,0.0,0.0,0.0,0.0,0.0,0.0,0.0,0.0,0.0,0.0,0.0,0.0,0.0,0.0,0.0,0.0,0.0,0.0,0.0,0.0,0.0,0.0,0.0,0.0,0.0,0.0,0.0,0.0,0.0,0.0,0.0,0.0,0.0,0.0,0.0,0.0,0.0,0.0,0.0,0.0,0.0,0.0,0.0,0.0,0.0,0.0,0.0,0.0,0.0,0.0,0.0,0.0,0.0,0.0,0.0,0.0,0.0,0.0,0.0,0.0,0.0,0.0,0.0,0.0,0.0,0.0,0.0,0.0,0.0,0.0,0.0,0.0,0.0,0.0,0.0,0.0,0.0,0.0,0.0,0.0,0.0,0.0,0.0,0.0,0.0,0.0,0.0,0.0,0.0,0.0,0.0,0.0,0.0,0.0,0.0,0.0,0.0,0.0,0.0,0.0,0.0,0.0,0.0,0.0,0.0,0.0,0.0,0.0,0.0,0.0,0.0,0.0,0.0,0.0,0.0,0.0,0.0,0.0,0.0,0.0,0.0,0.0,0.0,0.0,0.0,0.0,0.0,0.0,0.0,0.0,0.0,0.0,0.0,0.0,0.0,0.0,0.0,0.0,0.0,0.0,0.0,0.0,0.0,0.0,0.0,0.0,0.0,0.0,0.0,0.0,0.0,0.0,0.0,0.0,0.0,0.0,0.0,0.0,0.0,0.0,0.0,0.0,0.0,0.0,0.0,0.0,0.0,0.0,0.0,0.0,0.0,0.0,0.0,0.0,0.0,0.0,0.0,0.0,0.0,0.0,0.0,0.0,0.0,0.0,0.0,0.0,0.0,0.0,0.0,0.0,0.0,0.0,0.0,0.0,0.0,0.0,0.0,0.0,0.0,0.0,0.0,0.0,0.0,0.0,0.0,0.0,0.0,0.0,0.0,0.0,0.0,0.0,0.0,0.0,0.0,0.0,0.0,0.0,0.0,0.0,0.0,0.0,0.0,0.0,0.0,0.0,0.0,0.0,0.0,0.0,0.0,0.0,0.0,0.0,0.0,0.0,0.0,0.0,0.0,0.0,0.0,0.0,0.0,0.0,0.0,0.0,0.0,0.0,0.0,0.0,0.0,0.0,0.0,0.0,0.0,0.0,0.0,0.0,0.0,0.0,0.0,0.0,0.0,0.0,0.0,0.0,0.0,0.0,0.0,0.0,0.0,0.0,0.0,0.0,0.0,0.0,0.0,0.0,0.0,0.0,0.0,0.0,0.0,0.0,0.0,0.0,0.0,0.0,0.0,0.0,0.0,0.0,0.0,0.0,0.0,0.0,0.0,0.0,0.0,0.0,0.0,0.0,0.0,0.0,0.0,0.0,0.0,0.0,0.0,0.0,0.0,0.0,0.0,0.0,0.0,0.0,0.0,0.0,0.0,0.0,0.0,0.0,0.0,0.0,0.0,0.0,0.0,0.0,0.0,0.0,0.0,0.0,0.0,0.0,0.0,0.0,0.0,0.0,0.0,0.0,0.0,0.0,0.0,0.0,0.0,0.0,0.0,0.0,0.0,0.0,0.0,0.0,0.0,0.0,0.0,0.0,0.0,0.0,0.0,0.0,0.0,0.0,0.0,0.0,0.0,0.0,0.0,0.0,0.0,0.0,0.0,0.0,0.0,0.0,0.0,0.0,0.0,0.0,0.0,0.0,0.0,0.0,0.0,0.0,0.0,0.0,0.0,0.0,0.0,0.0,0.0,0.0,0.0,0.0,0.0,0.0,0.0,0.0,0.0,0.0,0.0,0.0,0.0,0.0,0.0,0.0,0.0,0.0,0.0,0.0,0.0,0.0,0.0,0.0,0.0,0.0,0.0,0.0,0.0,0.0,0.0,0.0,0.0,0.0,0.0,0.0,0.0,0.0,0.0,0.0,0.0,0.0,0.0,0.0,0.0,0.0,0.0,0.0,0.0,0.0,0.0,0.0,0.0,0.0,0.0,0.0,0.0,0.0,0.0,0.0,0.0,0.0,0.0,0.0,0.0,0.0,0.0,0.0,0.0,0.0,0.0,0.0,0.0,0.0,0.0,0.0,0.0,0.0,0.0,0.0,0.0,0.0,0.0,0.0,0.0,0.0,0.0,0.0,0.0,0.0,0.0,0.0,0.0,0.0,0.0,0.0,0.0,0.0,0.0,0.0,0.0,0.0,0.0,0.0,0.0,0.0,0.0,0.0,0.0,0.0,0.0,0.0,0.0,0.0,0.0,0.0,0.0,0.0,0.0,0.0,0.0,0.0,0.0,0.0,0.0,0.0,0.0,0.0,0.0,0.0,0.0,0.0,0.0,0.0,0.0,0.0,0.0,0.0,0.0,0.0,0.0,0.0,0.0,0.0,0.0,0.0,0.0,0.0,0.0,0.0,0.0,0.0,0.0,0.0,0.0,0.0,0.0,0.0,0.0,0.0,0.0,0.0,0.0,0.0,0.0,0.0,0.0,0.0,0.0,0.0,0.0,0.0,0.0,0.0,0.0,0.0,0.0,0.0,0.0,0.0,0.0,0.0,0.0,0.0,0.0,0.0,0.0,0.0,0.0,0.0,0.0,0.0,0.0,0.0,0.0,0.0,0.0,0.0,0.0,0.0,0.0,0.0,0.0,0.0,0.0,0.0,0.0,0.0,0.0,0.0,0.0,0.0,0.0,0.0,0.0,0.0,0.0,0.0,0.0,0.0,0.0,0.0,0.0,0.0,0.0,0.0,0.0,0.0,0.0,0.0,0.0,0.0,0.0,0.0,0.0,0.0,0.0,0.0,0.0,0.0,0.0,0.0,0.0,0.0,0.0,0.0,0.0,0.0,0.0,0.0,0.0,0.0,0.0,0.0,0.0,0.0,0.0,0.0,0.0,0.0,0.0,0.0,0.0,0.0,0.0,0.0,0.0,0.0,0.0,0.0,0.0,0.0,0.0,0.0,0.0,0.0,0.0,0.0,0.0,0.0,0.0,0.0,0.0,0.0,0.0,0.0,0.0,0.0,0.0,0.0,0.0,0.0,0.0,0.0,0.0,0.0,0.0,0.0,0.0,0.0,0.0,0.0,0.0,0.0,0.0,0.0,0.0,0.0,0.0,0.0,0.0,0.0,0.0,0.0,0.0,0.0,0.0,0.0,0.0,0.0,0.0,0.0,0.0,0.0,0.0,0.0,0.0,0.0,0.0,0.0,0.0,0.0,0.0,0.0,0.0,0.0,0.0,0.0,0.0,0.0,0.0,0.0,0.0,0.0,0.0,0.0,0.0,0.0,0.0,0.0,0.0,0.0,0.0,0.0,0.0,0.0,0.0,0.0,0.0,0.0,0.0,0.0,2.9791,0.0,0.0,0.0,0.0,0.0,0.0,0.0,0.0,0.0,0.0,0.0,0.0,0.0,0.0,0.0,0.0,0.0,0.0,0.0,0.0,0.0,0.0,0.0,0.0,0.0,0.0,0.0,0.0,0.0,0.0,0.0,0.0,0.0,0.0,0.0,0.0,0.0,0.0,0.0,4.0616,4.0176,3.9719,4.0578,4.0762,4.0447,0.0,0.0,0.0,0.0,0.0,0.0,0.0,0.0,0.0,0.0,0.0,0.0,0.0,0.0,0.0,0.0,0.0,0.0,0.0,0.0,0.0,0.0,0.0,0.0,0.0,0.0,0.0,0.0,0.0,0.0,0.0,0.0,0.0,0.0,0.0,0.0,0.0,0.0,0.0,0.0,0.0,0.0,0.0,0.0,0.0,0.0,0.0,0.0,0.0,0.0,0.0,0.0,0.0,0.0,0.0,0.0,0.0,0.0,0.0,0.0,0.0,0.0,0.0,0.0,0.0,0.0,0.0,0.0,0.0,0.0,0.0,3.0472,0.0,0.0,0.0,0.0,0.0,0.0,0.0,0.0,0.0,0.0,0.0,0.0,0.0,0.0,0.0,0.0,0.0,0.0,0.0,0.0,0.0,0.0,0.0,0.0,0.0,0.0,0.0,0.0,0.0,0.0,0.0,0.0,0.0,0.0,0.0,0.0,0.0,0.0,4.0238,3.9857,3.981,4.0578,4.0621,4.012,4.0622,0.0,0.0,0.0,0.0,0.0,0.0,0.0,0.0,0.0,0.0,0.0,0.0,0.0,0.0,0.0,0.0,0.0,0.0,0.0,0.0,0.0,0.0,0.0,0.0,0.0,0.0,0.0,0.0,0.0,0.0,0.0,0.0,0.0,0.0,0.0,0.0,0.0,0.0,0.0,0.0,0.0,0.0,0.0,0.0,0.0,0.0,0.0,0.0,0.0,0.0,0.0,0.0,0.0,0.0,0.0,0.0,0.0,0.0,0.0,0.0,0.0,0.0,0.0,0.0,3.7655,3.7644,3.8161,3.8132,3.7525,3.3533,3.1547,3.1194,0.0,0.0,0.0,0.0,0.0,0.0,0.0,0.0,0.0,0.0,0.0,0.0,0.0,0.0,0.0,0.0,0.0,0.0,0.0,0.0,0.0,0.0,0.0,4.0787,4.0818,4.0818,4.0497,0.0,0.0,0.0,0.0,0.0,0.0,0.0,4.0946,4.0935,4.084,4.066,4.0574,4.0579,4.1435,4.1738,4.155,4.0326,4.0208,4.0857,0.0,0.0,0.0,0.0,0.0,0.0,0.0,0.0,0.0,0.0,0.0,0.0,0.0,0.0,0.0,0.0,0.0,0.0,0.0,0.0,0.0,0.0,0.0,0.0,0.0,0.0,0.0,0.0,0.0,0.0,0.0,0.0,0.0,0.0,0.0,0.0,0.0,0.0,0.0,0.0,0.0,3.2997,3.2184,0.0,0.0,0.0,0.0,0.0,0.0,0.0,0.0,0.0,0.0,0.0,0.0,0.0,0.0,3.8087,3.8368,3.8099,3.7311,3.7426,3.7169,3.6517,3.6589,3.6956,3.7482,3.6867,0.0,3.4373,3.3135,0.0,0.0,0.0,0.0,0.0,0.0,0.0,0.0,0.0,0.0,0.0,0.0,0.0,0.0,0.0,0.0,0.0,0.0,0.0,0.0,0.0,4.0792,4.0804,4.0804,4.1214,4.1125,4.0277,0.0,0.0,0.0,0.0,0.0,0.0,4.041,4.0178,4.0064,4.1456,4.1848,4.1328,4.2198,4.2603,4.2518,4.1358,4.1087,4.1461,4.0625,0.0,0.0,0.0,0.0,0.0,0.0,0.0,0.0,0.0,0.0,0.0,0.0,0.0,0.0,0.0,0.0,0.0,0.0,0.0,0.0,0.0,0.0,0.0,0.0,0.0,0.0,0.0,0.0,0.0,0.0,0.0,0.0,0.0,0.0,0.0,0.0,0.0,0.0,0.0,3.4849,3.5257,3.3327,3.5553,3.6412,0.0,0.0,0.0,0.0,0.0,0.0,0.0,0.0,0.0,3.7448,3.7921,3.8162,3.8129,3.9043,3.9319,3.8897,3.9785,4.001,3.968,4.0139,4.0524,4.0836,4.0377,3.9546,3.8279,3.58,3.3994,3.2674,0.0,0.0,0.0,0.0,0.0,3.1856,0.0,0.0,0.0,0.0,0.0,0.0,0.0,0.0,0.0,0.0,0.0,0.0,4.0893,4.0698,4.0737,4.1247,4.1615,4.161,4.1068,4.0829,0.0,0.0,0.0,4.0459,4.1098,4.073,4.0494,4.0453,4.2717,4.3585,4.3124,4.3989,4.4374,4.4355,4.3701,4.2992,4.2209,4.1183,4.0784,4.0759,0.0,0.0,0.0,0.0,0.0,0.0,0.0,0.0,0.0,0.0,0.0,0.0,0.0,0.0,0.0,0.0,0.0,0.0,0.0,0.0,0.0,0.0,0.0,0.0,0.0,0.0,0.0,0.0,0.0,0.0,0.0,0.0,0.0,0.0,0.0,0.0,0.0,3.6291,3.719,3.4668,3.7015,3.7951,0.0,0.0,0.0,0.0,0.0,0.0,3.8783,3.9796,4.0016,3.936,4.0225,4.037,3.9675,4.0725,4.1222,4.113,4.2121,4.2598,4.2635,4.3222,4.3497,4.3461,4.2873,4.2158,4.1167,3.7996,3.5598,3.3831,3.2801,3.2525,3.2702,3.2438,3.3121,3.4167,0.0,0.0,0.0,0.0,0.0,0.0,0.0,0.0,0.0,0.0,0.0,3.8808,4.1107,4.0444,4.0596,4.2451,4.1876,4.1562,4.1903,4.1164,4.0733,4.079,4.155,4.1957,4.1932,4.2637,4.3027,4.3011,4.4662,4.5874,4.6663,4.7471,4.7855,4.7855,4.7798,4.6025,4.2934,4.1316,4.0598,4.0615,4.0707,0.0,0.0,0.0,0.0,0.0,0.0,0.0,0.0,0.0,0.0,0.0,0.0,0.0,0.0,0.0,0.0,0.0,0.0,0.0,0.0,0.0,0.0,0.0,0.0,0.0,0.0,0.0,0.0,0.0,0.0,0.0,0.0,0.0,0.0,0.0,0.0,0.0,0.0,3.6099,3.8993,0.0,0.0,0.0,0.0,3.8556,4.0099,4.0833,4.0226,4.1771,4.2798,4.3201,4.435,4.5129,4.5461,4.5185,4.4851,4.4452,4.3773,4.3424,4.3424,4.3461,4.3497,4.3497,4.3442,4.2983,4.1992,3.8762,3.7379,3.7103,3.5459,3.533,3.5954,3.5147,3.5148,3.5507,0.0,0.0,0.0,0.0,0.0,0.0,0.0,0.0,0.0,3.932,3.9381,4.0038,4.1837,4.2063,4.2328,4.3023,4.2815,4.2093,4.0856,4.1541,4.1617,4.0784,4.2106,4.2609,4.2008,4.2748,4.3651,4.4735,4.6969,4.849,4.9336,4.9067,4.8933,4.8913,4.8355,4.7432,4.6161,4.3929,4.2056,4.0559,4.0048,3.9689,0.0,0.0,0.0,0.0,0.0,0.0,0.0,0.0,0.0,0.0,0.0,0.0,0.0,0.0,0.0,0.0,0.0,0.0,0.0,0.0,0.0,0.0,0.0,0.0,0.0,0.0,0.0,0.0,0.0,0.0,0.0,0.0,0.0,0.0,0.0,0.0,0.0,4.0632,4.3138,0.0,0.0,4.1529,4.1647,4.2028,4.2697,4.3807,4.5434,4.5316,4.5637,4.6641,4.6534,4.6523,4.6675,4.6523,4.6255,4.5853,4.5036,4.4521,4.425,4.3736,4.3497,4.3497,4.3497,4.3332,4.2928,4.1277,3.9662,3.8102,3.6468,3.5679,3.5495,3.5752,3.5952,3.6206,0.0,0.0,0.0,0.0,0.0,0.0,0.0,0.0,0.0,3.8334,3.8872,3.9946,4.1912,4.2634,4.3222,4.3885,4.3208,4.2473,4.1857,4.1838,4.1901,4.2008,4.3104,4.3303,4.2396,4.3991,4.5503,4.6872,4.9144,5.0683,5.1529,5.0952,5.0683,5.0664,5.0087,4.9663,4.926,4.7298,4.466,4.1748,4.0646,4.0056,3.9685,0.0,0.0,0.0,0.0,0.0,0.0,0.0,0.0,0.0,0.0,0.0,0.0,0.0,0.0,0.0,0.0,0.0,0.0,0.0,0.0,0.0,0.0,0.0,0.0,0.0,0.0,0.0,0.0,0.0,0.0,0.0,0.0,0.0,0.0,0.0,4.4893,4.5182,4.7221,4.7817,4.5855,4.5246,4.513,4.5559,4.5925,4.7042,4.9107,4.8405,4.8337,4.9183,4.8745,4.831,4.7909,4.778,4.7521,4.7098,4.6304,4.5779,4.5482,4.4647,4.4276,4.4257,4.3855,4.3679,4.3609,4.2978,4.1607,3.9753,3.8138,3.7165,3.6707,3.7,3.7276,3.7656,0.0,0.0,0.0,0.0,0.0,0.0,0.0,3.5704,3.5898,3.6435,3.6957,3.8388,4.1334,4.2081,4.3133,4.5071,4.2999,4.2589,4.4954,4.2048,4.1533,4.451,4.452,4.4075,4.3285,4.6502,4.8623,4.951,5.1183,5.2433,5.328,5.326,5.3241,5.3241,5.3222,5.2741,5.1895,5.1106,4.8336,4.4335,4.2653,4.1446,4.048,0.0,0.0,0.0,0.0,0.0,0.0,0.0,0.0,0.0,0.0,0.0,0.0,0.0,0.0,0.0,0.0,0.0,0.0,0.0,0.0,0.0,0.0,0.0,0.0,0.0,0.0,0.0,0.0,0.0,0.0,0.0,0.0,0.0,4.07,4.5047,4.8567,4.949,5.1029,5.1702,5.0894,5.0029,4.9373,4.9056,4.9739,5.0393,5.0951,5.0903,5.0874,5.0902,5.1205,5.0786,4.9589,4.9188,4.877,4.8352,4.754,4.7143,4.7106,4.621,4.5814,4.573,4.4531,4.3998,4.3986,4.3646,4.3073,4.2176,4.0579,3.9937,3.9808,3.9056,3.9276,3.9804,0.0,0.0,0.0,0.0,0.0,0.0,0.0,3.5737,3.5905,3.6495,3.7945,3.9868,4.2267,4.3435,4.4487,4.5602,4.2967,4.1742,4.2863,4.1484,4.2045,4.5192,4.4195,4.4565,4.6752,4.768,4.9452,5.2164,5.326,5.4203,5.4991,5.4414,5.4145,5.4107,5.3491,5.3068,5.2837,5.2606,5.1125,4.8625,4.5064,4.2807,4.1427,0.0,0.0,0.0,0.0,0.0,0.0,0.0,0.0,0.0,0.0,0.0,0.0,0.0,0.0,0.0,0.0,0.0,0.0,0.0,0.0,0.0,0.0,0.0,0.0,0.0,0.0,0.0,0.0,0.0,0.0,0.0,0.0,4.5143,4.5143,4.8452,5.1625,5.3722,5.4376,5.4337,5.353,5.2664,5.2124,5.2022,5.1959,5.2633,5.4269,5.2927,5.2514,5.3441,5.2957,5.2209,5.1258,5.1135,5.0585,4.9607,4.8795,4.8251,4.7909,4.6456,4.5814,4.573,4.4812,4.4261,4.3986,4.3912,4.3597,4.3057,4.2029,4.0928,3.9937,4.0322,4.0598,4.05,0.0,0.0,0.0,0.0,0.0,0.0,0.0,3.5737,3.5626,3.54,3.7847,4.0008,4.1051,4.3281,4.4635,4.4415,4.269,4.1736,4.1996,4.2473,4.3116,4.3864,4.4427,4.5825,4.8103,4.9182,5.1029,5.3741,5.4587,5.5434,5.6222,5.5395,5.5395,5.6049,5.4799,5.4453,5.4741,5.4049,5.3183,5.1972,4.8413,4.5794,4.3824,4.2271,4.139,4.0946,4.0596,4.0589,4.0547,3.9336,0.0,0.0,0.0,0.0,0.0,0.0,0.0,0.0,0.0,0.0,0.0,0.0,0.0,0.0,0.0,0.0,0.0,0.0,0.0,0.0,0.0,0.0,0.0,0.0,4.6663,4.949,5.0933,5.2818,5.4857,5.703,5.728,5.6973,5.6165,5.5299,5.4645,5.428,5.4012,5.4434,5.5645,5.4549,5.4089,5.4491,5.401,5.3337,5.2452,5.2452,5.2082,5.1392,5.055,5.0019,4.9758,4.8081,4.711,0.0,4.5751,4.4985,4.4455,4.4117,4.3881,0.0,0.0,0.0,0.0,0.0,4.0102,3.9891,0.0,0.0,0.0,0.0,0.0,0.0,0.0,3.565,3.522,3.3879,3.7068,3.9226,3.8625,4.1893,4.3626,4.2286,4.1919,4.1779,4.1728,4.4012,4.4345,4.2126,4.534,4.7603,4.8509,5.0952,5.3049,5.478,5.5491,5.628,5.7126,5.6357,5.6819,5.8242,5.6684,5.6357,5.6896,5.5415,5.4664,5.4299,5.2029,4.9528,4.6926,4.4534,4.4076,4.4608,4.388,4.3785,4.373,4.2051,0.0,0.0,0.0,0.0,0.0,0.0,0.0,0.0,0.0,0.0,0.0,0.0,0.0,0.0,0.0,0.0,0.0,0.0,0.0,0.0,0.0,0.0,0.0,0.0,5.076,5.3606,5.6838,5.7453,5.8088,5.9473,5.9569,5.9223,5.8511,5.7646,5.678,5.5915,5.5838,5.5799,5.5703,0.0,0.0,0.0,0.0,5.4222,5.3356,5.3356,5.3299,5.3203,5.2433,5.201,5.1856,5.0279,4.9048,4.8126,4.6985,4.5974,4.5076,4.4449,4.4091,4.3819,4.2746,4.1809,4.0928,3.9405,3.8781,0.0,0.0,0.0,0.0,0.0,0.0,0.0,0.0,3.5277,3.525,3.3961,3.6615,3.8202,3.7062,3.9271,4.0965,4.1313,3.9626,3.9201,4.069,4.309,4.4691,4.5274,4.7683,4.9682,5.1144,5.3029,5.4818,5.6511,5.6665,5.7184,5.805,5.7877,5.7992,5.83,5.7953,5.7492,5.6973,5.6646,5.5742,5.4453,5.3953,5.1818,4.872,4.6872,4.5577,4.4673,4.4519,4.5043,4.5527,4.3808,4.4043,4.4766,4.3008,0.0,0.0,0.0,0.0,0.0,0.0,0.0,0.0,0.0,0.0,0.0,0.0,0.0,0.0,0.0,0.0,0.0,0.0,0.0,0.0,5.0721,5.3954,5.6722,5.8723,6.0223,6.0954,6.0589,5.9935,5.9435,5.9281,5.8531,5.7684,5.6799,5.6742,5.6434,5.5742,5.5703,0.0,5.5472,5.5472,5.5068,5.426,5.4241,5.3895,5.3203,0.0,0.0,5.1875,5.0894,4.9794,4.864,4.8008,4.6767,4.5207,4.5378,4.4715,4.3523,4.2632,4.1809,4.0983,4.0029,3.9258,3.8676,0.0,0.0,0.0,0.0,0.0,0.0,0.0,3.5212,3.5282,3.401,3.6559,3.8011,3.6697,3.9013,4.0388,3.9557,3.8526,3.8748,4.077,4.3175,4.5189,4.6588,4.8867,5.1068,5.3164,5.4453,5.5722,5.6992,5.7434,5.8088,5.8896,5.8492,5.8742,5.9511,5.8665,5.828,5.8223,5.7819,5.6915,5.5703,5.528,5.3837,5.1722,4.9606,4.8163,4.7195,4.6754,4.6748,4.6816,4.5957,4.5644,4.543,4.4101,4.2539,4.0996,0.0,0.0,0.0,0.0,0.0,0.0,0.0,0.0,0.0,0.0,0.0,0.0,0.0,0.0,4.4411,0.0,0.0,5.1366,5.4746,5.6956,5.8838,6.055,6.155,6.1781,6.0896,6.08,6.0454,5.9588,5.9146,5.8377,5.7088,5.7396,5.7069,5.5761,5.6107,5.6145,5.5703,5.5703,5.5511,5.5107,5.5107,5.4876,5.4453,5.4049,5.3395,5.2529,5.1461,5.0195,4.8772,4.8334,4.7131,4.5461,4.5077,4.4358,4.3442,4.3057,4.2415,4.1607,4.0799,4.0249,3.99,0.0,0.0,0.0,0.0,0.0,0.0,0.0,0.0,3.5348,3.4098,3.6419,3.7614,3.6149,3.8652,3.9647,3.7678,3.7866,3.9048,4.1327,4.3785,4.593,4.7624,5.009,5.2472,5.4684,5.553,5.6453,5.7492,5.8184,5.8954,5.9742,5.9088,5.9511,6.0742,5.9396,5.905,5.9454,5.8819,5.7934,5.6934,5.6242,5.5357,5.426,5.2029,5.0818,5.0143,4.9112,4.8265,4.7598,4.7598,4.6445,4.4902,4.4375,4.3496,4.2343,4.0835,4.0164,0.0,0.0,0.0,0.0,0.0,0.0,0.0,0.0,0.0,4.3997,4.5202,4.6571,4.8563,5.1884,5.3615,5.5597,5.8816,5.9881,6.0781,6.2209,6.2358,6.2012,6.1146,6.1666,6.1473,5.9915,5.9742,5.9127,5.7588,5.8146,5.778,5.603,5.6607,5.6588,5.5722,5.5703,5.5703,5.5703,5.5703,5.5703,5.5684,5.503,5.428,5.3393,5.2131,5.0697,4.9131,4.8174,4.706,4.5857,4.4528,4.3804,4.3532,4.3563,4.3143,4.2433,4.1644,4.124,4.1111,0.0,0.0,0.0,0.0,0.0,0.0,0.0,0.0,0.0,3.4229,3.5575,3.5923,3.4055,3.549,3.647,3.6161,3.7347,3.9214,4.1825,4.4543,4.7172,4.9673,5.2535,5.453,5.553,5.6395,5.7627,5.9223,5.9319,5.9819,6.0646,6.055,6.0608,6.0781,6.0589,6.0146,5.9492,5.9396,5.8454,5.6973,5.6876,5.5895,5.4376,5.3318,5.2549,5.1799,5.0227,4.8761,4.7598,4.7598,4.6445,4.5117,4.5801,4.4882,4.3374,4.2397,0.0,3.9683,3.8726,3.8534,3.9161,4.1515,4.2182,4.3277,0.0,0.0,4.8777,5.1189,5.1855,5.3047,5.6504,5.7772,5.9176,6.1888,6.2791,6.3209,6.3383,6.3262,6.2858,6.205,6.2031,6.1704,6.0742,6.0646,6.0262,5.93,5.9319,5.8627,5.6934,5.6934,5.6588,5.5722,5.5703,5.5703,5.5703,5.5703,5.5703,5.5703,5.5607,5.5145,5.4318,5.303,5.1775,5.043,4.7441,4.6268,4.629,4.468,4.3804,4.3513,4.3836,4.3703,4.3259,4.2451,4.1717,4.1111,0.0,0.0,0.0,0.0,0.0,0.0,0.0,0.0,0.0,0.0,3.5155,3.5456,3.4478,3.4596,3.5303,3.6768,3.6558,3.8243,4.2683,4.4619,4.7613,5.2119,5.4169,5.5838,5.7184,5.803,5.88,5.9492,6.0012,6.0435,6.08,6.08,6.08,6.08,6.08,6.0589,6.0262,6.0262,5.955,5.8454,5.8454,5.7453,5.5742,5.3895,5.2201,5.0625,4.9465,4.8059,0.0,4.6816,4.6367,4.582,4.6187,4.579,4.4948,4.3567,4.2292,0.0,4.0288,4.0427,0.0,0.0,4.5819,4.7675,5.0469,5.187,5.3039,5.4648,5.5781,5.7226,5.9668,6.0683,6.1692,0.0,6.3157,6.3012,6.3526,6.3017,6.2089,6.0742,6.1031,6.1204,6.0839,6.0339,5.9896,5.9531,5.9492,5.8992,5.7819,5.728,5.6819,5.6472,5.5953,5.5703,5.5703,5.5703,5.5703,5.5703,5.5446,5.491,5.4025,5.256,5.0946,4.9259,4.7408,4.6691,4.6738,4.5078,4.4331,4.4193,4.383,4.3612,4.3442,4.3112,4.2782,4.2506,0.0,0.0,0.0,0.0,0.0,0.0,0.0,0.0,0.0,0.0,0.0,3.4751,3.4524,3.3978,3.4414,3.6446,3.5701,3.7257,4.2381,4.4281,4.7535,5.2777,5.4729,5.6511,5.8261,5.9088,5.9627,5.9858,6.0492,6.08,6.08,6.08,6.08,6.08,6.08,6.08,6.08,6.08,6.0165,5.9165,5.9165,5.7877,5.5703,5.3395,5.1028,4.8856,4.8067,4.6475,4.4805,4.5117,4.4921,4.4568,4.4809,4.4881,4.4689,4.3642,4.2895,4.2301,4.1931,0.0,0.0,4.6716,4.9335,5.1699,5.3398,5.4941,5.6328,5.7422,5.8652,6.0058,6.1758,6.25,0.0,6.4336,6.3546,6.3085,6.3885,6.2728,6.1223,5.9685,5.9435,5.9492,5.9723,5.9608,5.9608,5.9838,5.9858,5.9492,5.8665,5.7819,5.7242,5.6992,5.6145,5.5703,5.5703,5.5703,5.564,5.5512,5.5237,5.471,5.3926,5.2179,5.0379,4.86,4.7572,4.7113,4.7003,4.5369,4.4709,4.4635,4.3809,4.3497,4.3479,4.3321,4.3375,4.3479,0.0,0.0,0.0,0.0,0.0,0.0,0.0,0.0,0.0,0.0,0.0,0.0,0.0,3.316,3.3411,3.4141,3.474,3.6629,4.0262,4.3446,4.6875,5.0625,5.3953,5.6511,5.8261,5.9088,5.9915,6.0762,6.0781,6.08,6.08,6.08,6.08,6.08,6.08,6.08,6.08,6.08,5.9858,5.8338,5.8338,5.6319,5.3126,5.1414,4.924,4.6992,4.6243,4.3986,4.1465,4.2246,4.1442,4.0235,4.1016,4.1309,0.0,4.2223,4.2419,4.2572,0.0,0.0,4.6814,4.9433,5.2007,5.4336,5.6074,5.7187,5.8281,5.9941,6.0332,6.0898,6.2637,6.2988,6.3555,6.5273,6.4707,6.4281,6.4962,6.2714,6.0646,5.9627,5.7338,5.6184,0.0,5.855,5.9858,6.0704,6.0762,6.0377,5.9511,5.8704,5.7877,5.703,5.6145,5.5703,5.5703,5.5703,5.5512,5.5134,5.5107,5.4876,5.4409,5.2345,5.0713,4.9462,4.7829,4.7113,4.7003,4.5369,4.4709,4.4635,4.3809,4.3497,4.3444,4.2902,4.305,4.341,0.0,0.0,0.0,0.0,0.0,0.0,0.0,0.0,0.0,0.0,0.0,0.0,0.0,0.0,0.0,0.0,3.3666,3.5207,3.8642,4.2005,4.5413,4.8893,5.2819,5.5434,5.6549,5.7973,5.9108,5.9935,5.9935,6.0223,6.08,6.08,6.08,6.08,6.08,6.08,6.08,6.08,6.0473,5.98,5.8127,5.6395,5.4491,5.1164,4.8029,4.5244,0.0,4.2431,4.1033,4.0804,4.0371,0.0,4.0218,4.031,4.0388,4.0659,4.195,4.357,4.5037,0.0,4.9631,5.2809,5.5097,5.7031,5.873,5.9805,6.043,6.039,5.9977,5.9768,6.031,6.0459,6.1035,6.2734,6.2656,6.2615,6.3337,6.2026,5.9992,5.73,5.7242,0.0,0.0,0.0,0.0,5.9781,5.9435,5.9492,6.0319,5.905,5.8165,5.7877,5.7011,5.628,5.5703,5.5703,5.5489,5.5088,5.451,5.3487,5.2029,5.1322,5.0151,4.8673,4.759,4.7113,4.7003,4.5369,4.4709,4.4635,4.3809,4.3286,4.2939,4.2788,4.2559,4.2364,0.0,0.0,0.0,0.0,0.0,0.0,0.0,0.0,0.0,0.0,0.0,0.0,0.0,0.0,0.0,0.0,0.0,3.4013,3.7077,3.9908,4.2951,4.6333,4.9951,5.2415,5.3524,5.4655,5.5772,5.6854,5.6544,5.6967,5.8088,5.8396,5.855,5.855,5.8838,5.8973,5.8954,5.8665,5.8184,5.7453,5.5532,5.3685,5.1799,4.8834,4.5855,0.0,4.179,4.0604,3.9606,3.9127,3.8965,3.8965,3.8975,3.9806,4.0798,4.0795,4.3063,4.5932,4.7653,5.0259,5.3158,5.5996,5.7988,5.9531,6.0625,6.1055,6.0918,5.9746,5.8853,5.807,5.7407,5.7065,5.7628,5.9922,5.9726,5.9947,6.1879,6.102,5.9319,5.6915,5.7338,0.0,0.0,0.0,0.0,5.8896,5.9146,5.9531,6.0281,5.9319,5.8523,5.8059,5.737,5.6441,5.5282,5.5423,5.5059,5.4197,5.3476,5.2317,5.0784,5.0178,4.9499,4.8691,4.7278,4.7003,4.7407,4.5792,4.5314,4.5425,4.4145,4.3432,4.3033,4.231,4.181,4.149,0.0,0.0,0.0,0.0,0.0,0.0,0.0,0.0,0.0,0.0,0.0,0.0,0.0,0.0,0.0,0.0,0.0,0.0,3.5369,3.7229,3.968,4.2922,4.5596,4.7747,4.9332,4.9461,5.027,5.1836,5.1062,5.1486,5.3029,5.3895,5.432,5.4358,5.5109,5.5455,5.5397,5.4647,5.3318,5.1702,5.0818,4.8505,4.5549,4.4652,4.2868,4.0739,3.9927,3.8622,3.7307,0.0,0.0,0.0,0.0,3.9754,4.25,4.2633,4.5698,4.941,5.1193,5.4155,5.7148,5.8887,6.0488,6.1621,6.1582,6.0859,5.9726,5.7988,5.6911,5.573,0.0,0.0,5.3676,5.7068,5.6386,5.6803,6.0739,5.988,5.8696,0.0,0.0,0.0,0.0,0.0,0.0,5.8184,0.0,6.0339,5.9608,5.9569,5.8966,5.7633,5.7234,5.6225,5.4503,5.4848,5.4216,5.2621,5.2204,5.1555,5.0674,4.9095,4.8783,4.9389,4.7003,4.6838,4.8122,4.6507,4.6305,4.678,4.4732,4.3862,4.3598,4.1628,4.0891,4.081,0.0,0.0,0.0,0.0,0.0,0.0,0.0,0.0,0.0,0.0,0.0,0.0,0.0,0.0,0.0,0.0,0.0,0.0,3.1955,3.534,3.7727,3.8597,4.2277,4.4489,4.4916,4.6197,4.7365,4.8373,4.8745,4.9488,5.0543,5.1373,5.1776,5.1813,5.1989,5.2085,5.2103,5.1854,5.1143,5.001,4.791,4.6179,4.4662,4.2603,4.1058,3.9906,3.9092,3.8151,0.0,0.0,0.0,0.0,0.0,4.1146,4.3749,4.5704,4.8418,5.1428,5.445,5.6875,5.8945,6.0644,6.0898,6.0566,5.9961,5.8652,5.6894,5.4512,5.2822,5.1245,0.0,0.0,0.0,5.4501,5.6236,0.0,6.0914,6.0924,0.0,0.0,0.0,5.8357,5.7107,5.7934,0.0,0.0,5.8704,5.9396,6.0416,6.0473,5.958,5.7671,5.7504,5.652,5.4522,5.4236,5.3618,5.2621,5.2204,5.1242,4.9884,4.9444,4.904,4.8563,4.7333,4.704,4.7296,4.5833,4.5367,4.5413,4.4382,4.3403,4.2422,4.13,4.0273,3.9354,0.0,0.0,0.0,0.0,0.0,0.0,0.0,0.0,0.0,0.0,0.0,0.0,0.0,0.0,0.0,0.0,0.0,0.0,0.0,3.3333,3.5194,3.5955,3.8633,4.0285,4.0662,4.1641,4.2688,4.3857,4.3914,4.4568,4.5761,4.66,4.7017,4.7051,4.7368,4.7545,4.7529,4.7143,4.6494,0.0,0.0,4.2595,4.1738,4.0372,3.9328,3.8558,3.8116,0.0,0.0,0.0,0.0,4.1191,4.2344,4.4725,4.7512,4.9751,0.0,5.4761,5.7109,5.8984,6.0527,6.1465,6.1035,5.9999,5.8428,5.6705,5.4381,5.0617,4.8763,0.0,0.0,0.0,0.0,0.0,0.0,0.0,5.9663,6.0402,6.03,0.0,5.98,0.0,5.8761,5.9165,5.9473,0.0,5.9396,5.9646,6.0204,6.0411,5.9527,5.7403,5.7317,5.6286,5.4206,5.3777,5.3119,5.2343,5.1435,5.038,4.9117,4.8146,4.7603,4.7398,0.0,4.615,4.6687,4.5581,4.5283,4.5507,4.4519,4.3496,4.2381,4.1064,3.9545,3.8046,0.0,0.0,0.0,0.0,0.0,0.0,0.0,0.0,0.0,0.0,0.0,0.0,0.0,0.0,0.0,0.0,0.0,0.0,0.0,0.0,3.2674,3.4297,3.5188,3.601,3.6773,3.6776,3.7461,3.8867,3.8203,3.8668,4.0165,4.0906,4.1396,4.1659,4.2215,4.2543,4.2618,4.1911,4.1113,4.0262,3.9558,3.8739,3.7916,0.0,3.7447,3.6726,0.0,0.0,0.0,0.0,4.2064,4.3516,4.6152,4.918,5.2129,5.4113,5.6305,5.8281,5.9277,6.0586,6.1699,6.1699,6.0781,5.9255,5.6815,5.456,5.1583,4.6684,0.0,4.3502,4.1318,0.0,4.3938,4.8229,0.0,5.3259,5.8154,5.9341,5.9969,6.0704,6.08,6.08,6.08,6.0127,5.9992,6.0742,6.0757,6.0364,5.9614,5.9909,5.9125,5.6974,5.6576,5.5542,5.3739,5.3381,5.2742,5.1815,5.0449,4.9388,4.8551,4.6361,4.5782,4.6454,0.0,0.0,4.633,4.5547,4.567,4.6121,4.4782,4.3731,4.2707,4.0614,3.8727,3.6888,0.0,0.0,0.0,0.0,0.0,0.0,0.0,0.0,0.0,0.0,2.6108,2.57,0.0,0.0,0.0,0.0,0.0,0.0,0.0,0.0,0.0,3.2598,3.3418,3.3912,3.4078,3.4074,3.4211,3.449,3.5015,3.5779,3.6754,3.6854,3.7687,3.9092,3.8466,3.8603,3.9316,3.9129,3.8572,3.78,3.7667,3.6706,3.5331,3.5348,0.0,0.0,0.0,0.0,0.0,0.0,4.4027,4.6992,4.9668,5.1914,5.418,5.7363,5.8613,5.9316,6.0859,6.1484,6.1699,6.1699,5.9453,5.6772,5.487,5.0925,0.0,0.0,0.0,4.0333,4.0009,4.174,0.0,4.8934,0.0,0.0,0.0,0.0,6.0054,0.0,0.0,0.0,0.0,0.0,0.0,0.0,0.0,0.0,6.0007,6.0056,5.8982,5.6519,5.4735,5.3676,5.3295,5.323,5.2473,5.1058,5.0218,4.9385,4.8617,4.6944,4.6613,4.732,0.0,0.0,4.6365,4.5725,4.5526,4.5511,4.4041,4.3007,4.2029,3.9383,3.7561,3.6,0.0,0.0,0.0,0.0,0.0,0.0,0.0,2.668,2.7245,2.8095,2.7468,2.6809,2.6426,2.6386,2.6187,0.0,0.0,0.0,0.0,0.0,0.0,0.0,0.0,0.0,3.272,3.3135,0.0,0.0,0.0,3.4081,3.4488,0.0,0.0,0.0,3.5307,3.5366,3.5794,3.5756,3.5524,3.5174,3.5215,3.4745,0.0,0.0,0.0,0.0,0.0,0.0,0.0,0.0,4.4148,4.7376,5.1398,5.4199,5.6523,5.9082,5.9824,6.0195,6.1914,6.2051,6.1816,6.2265,5.9453,5.5915,5.3253,0.0,0.0,0.0,0.0,3.7925,3.7539,0.0,0.0,0.0,0.0,0.0,0.0,0.0,0.0,0.0,0.0,0.0,0.0,0.0,0.0,0.0,0.0,0.0,6.0103,5.8843,5.7452,5.5988,5.4183,5.3206,5.3206,5.2831,5.2245,5.1517,5.0022,4.8955,4.8172,4.6708,4.6048,4.6013,4.5632,0.0,4.5459,4.5142,4.4783,4.4288,4.3588,4.2512,4.1151,3.8948,3.6543,3.4136,0.0,0.0,0.0,0.0,0.0,0.0,0.0,2.7038,2.7696,2.9205,2.8967,2.8374,2.7593,2.7359,2.6914,0.0,0.0,0.0,0.0,0.0,0.0,0.0,0.0,0.0,0.0,0.0,0.0,0.0,0.0,0.0,0.0,0.0,0.0,0.0,0.0,0.0,0.0,3.3271,3.3291,0.0,0.0,0.0,0.0,0.0,0.0,0.0,0.0,0.0,0.0,0.0,4.2985,4.5665,5.0321,5.4093,5.7106,5.8789,5.9531,6.0215,6.1973,6.2226,6.2051,6.2363,5.9355,5.5349,5.165,4.7193,0.0,0.0,3.7058,3.621,3.5707,0.0,0.0,0.0,0.0,0.0,0.0,0.0,0.0,0.0,0.0,0.0,0.0,0.0,0.0,0.0,0.0,0.0,5.9804,5.749,5.5992,5.5636,5.4051,5.3103,5.2999,5.2381,5.1952,5.1625,4.9644,4.8367,4.7786,4.6346,4.5466,4.506,4.506,0.0,0.0,4.4781,4.4181,4.3215,4.3013,4.1916,4.014,3.8041,3.5316,3.2202,0.0,0.0,0.0,0.0,0.0,0.0,0.0,2.7516,2.8341,2.9291,3.0025,3.0132,2.9274,2.8524,2.7751,0.0,0.0,0.0,0.0,0.0,0.0,0.0,0.0,0.0,0.0,0.0,0.0,0.0,0.0,0.0,0.0,0.0,0.0,0.0,0.0,0.0,0.0,0.0,0.0,0.0,0.0,0.0,0.0,0.0,0.0,0.0,0.0,0.0,0.0,0.0,0.0,4.1585,4.4374,4.8913,5.3493,5.5114,0.0,0.0,6.0176,6.1738,6.2519,6.1015,5.8008,5.4273,4.9851,0.0,0.0,3.7368,3.5937,3.546,3.6181,3.7108,0.0,0.0,0.0,4.6885,0.0,0.0,0.0,0.0,0.0,0.0,0.0,0.0,0.0,0.0,0.0,0.0,0.0,5.6816,5.5662,5.5592,5.4051,5.2875,5.2224,5.2112,5.1444,5.0167,4.8615,4.7916,4.787,4.6346,4.6024,4.6583,0.0,0.0,0.0,4.5313,4.4397,4.2957,4.2171,4.0754,3.885,3.588,3.3367,3.0854,0.0,0.0,0.0,0.0,0.0,0.0,2.7414,2.7834,2.8675,3.0598,3.0694,3.0646,3.083,3.0125,2.8909,2.7095,0.0,0.0,0.0,0.0,0.0,0.0,0.0,0.0,0.0,0.0,0.0,0.0,0.0,0.0,0.0,0.0,0.0,0.0,0.0,0.0,0.0,0.0,0.0,0.0,0.0,0.0,0.0,0.0,0.0,0.0,0.0,0.0,0.0,0.0,0.0,0.0,4.0761,4.3531,0.0,0.0,5.4384,5.6797,5.9629,6.1289,6.2051,6.1367,5.7402,5.2903,4.9994,0.0,3.9287,3.7551,3.5967,3.4945,3.5111,3.584,3.7088,0.0,0.0,0.0,0.0,0.0,0.0,0.0,0.0,0.0,0.0,0.0,0.0,0.0,0.0,0.0,0.0,5.6312,5.5592,5.5592,5.359,5.2399,5.2094,5.1274,5.0537,4.9959,4.8558,4.7639,4.7208,4.5637,4.5063,4.5269,0.0,0.0,0.0,4.3419,4.2312,4.1146,3.9706,3.7982,3.5986,3.3855,3.0999,2.7707,0.0,0.0,0.0,0.0,0.0,2.606,2.7505,2.7818,2.8647,3.0749,3.0711,3.0732,3.1323,3.0926,2.9683,2.7381,2.808,0.0,0.0,0.0,0.0,0.0,0.0,0.0,0.0,0.0,0.0,0.0,0.0,0.0,0.0,0.0,0.0,0.0,0.0,0.0,0.0,0.0,0.0,0.0,0.0,0.0,0.0,0.0,0.0,0.0,0.0,0.0,0.0,0.0,0.0,0.0,0.0,0.0,0.0,0.0,5.1458,5.4667,5.7949,6.0058,6.1191,6.0703,5.6541,5.1843,0.0,0.0,3.8651,3.7261,3.5754,3.4539,3.4171,3.4587,3.5391,3.6546,0.0,3.8401,0.0,0.0,0.0,0.0,0.0,0.0,0.0,0.0,0.0,0.0,0.0,0.0,0.0,5.5852,5.5204,5.4948,5.3088,5.1904,5.1476,5.05,4.9683,4.8958,4.7774,4.6642,4.569,4.4743,4.4297,4.4186,0.0,0.0,0.0,4.1401,3.9847,3.8572,3.6845,3.4794,3.2563,3.0918,2.8046,2.4686,0.0,0.0,0.0,0.0,0.0,0.0,2.6683,2.7442,2.8222,2.911,2.9959,3.0469,3.0417,3.054,2.9861,2.8057,2.8806,0.0,0.0,0.0,0.0,0.0,0.0,0.0,0.0,0.0,3.0089,3.0089,2.9981,0.0,0.0,0.0,0.0,0.0,0.0,0.0,0.0,0.0,0.0,0.0,0.0,0.0,0.0,0.0,0.0,0.0,0.0,0.0,0.0,0.0,0.0,0.0,0.0,0.0,0.0,0.0,4.7738,5.1818,5.4433,5.7734,6.0019,5.8359,5.5139,5.1212,0.0,0.0,3.8256,3.5997,3.4852,3.4154,3.3688,3.3607,3.3853,3.4611,3.6277,0.0,0.0,0.0,0.0,0.0,0.0,0.0,0.0,0.0,0.0,0.0,0.0,0.0,0.0,5.5465,5.4218,5.3351,5.2527,5.1426,5.0033,5.0033,4.8865,4.6647,4.5904,4.4704,4.3185,4.384,4.4093,0.0,0.0,0.0,0.0,3.9591,3.7358,3.5288,3.3579,3.1343,2.8712,2.681,2.4486,2.2071,0.0,0.0,0.0,0.0,0.0,0.0,0.0,2.6901,2.7525,2.8948,2.934,2.9471,2.944,2.9475,2.9289,2.8772,2.9135,0.0,0.0,0.0,0.0,0.0,0.0,0.0,0.0,0.0,2.9946,3.0037,2.9698,2.957,2.957,0.0,0.0,0.0,0.0,0.0,0.0,0.0,0.0,0.0,0.0,0.0,0.0,0.0,0.0,0.0,0.0,0.0,0.0,0.0,0.0,0.0,0.0,0.0,0.0,3.9162,4.2961,0.0,4.898,5.1666,5.3564,5.2446,4.9863,4.708,4.4982,0.0,3.731,3.6547,3.5025,3.3661,3.3094,3.296,3.338,3.4871,3.5632,0.0,0.0,0.0,0.0,0.0,0.0,0.0,0.0,0.0,0.0,0.0,0.0,0.0,0.0,0.0,5.3672,5.3352,5.1599,5.0154,4.9044,4.8579,4.7686,4.6322,4.5559,4.4973,4.4377,4.2279,0.0,0.0,0.0,0.0,0.0,3.6146,3.3858,3.1484,2.9783,2.7402,2.4844,2.3919,2.1325,1.8133,0.0,0.0,0.0,0.0,0.0,0.0,0.0,2.6448,2.6977,2.8025,2.8418,2.8691,2.8962,2.9001,2.9013,2.906,2.9495,0.0,0.0,0.0,0.0,0.0,0.0,0.0,0.0,2.9934,2.9935,3.0341,2.996,2.9941,3.0225,3.0194,2.9998,0.0,0.0,0.0,0.0,0.0,0.0,0.0,0.0,0.0,2.9886,0.0,0.0,0.0,0.0,0.0,0.0,0.0,0.0,0.0,0.0,0.0,0.0,0.0,3.8531,4.155,0.0,4.7386,4.9165,4.828,4.6222,0.0,0.0,0.0,3.6285,3.5945,3.4475,3.3064,3.2515,3.2247,3.2492,3.3532,3.434,0.0,0.0,0.0,0.0,0.0,0.0,0.0,0.0,0.0,0.0,0.0,0.0,0.0,0.0,0.0,5.2358,5.2062,5.0376,4.9095,4.8199,4.744,4.6463,4.5294,4.4796,4.3937,4.2659,4.0845,0.0,0.0,0.0,0.0,0.0,3.2214,2.9906,2.8049,2.5809,2.3629,2.1649,2.0462,1.8275,1.5692,0.0,0.0,0.0,0.0,0.0,0.0,0.0,2.605,2.6535,2.666,2.7335,2.8074,2.8816,2.89,2.8906,2.8887,0.0,0.0,0.0,0.0,0.0,0.0,0.0,0.0,0.0,2.9853,3.0039,3.0753,3.0497,3.0761,3.1481,3.1555,3.1167,3.0392,3.0392,0.0,0.0,0.0,0.0,0.0,0.0,0.0,0.0,0.0,0.0,0.0,0.0,0.0,0.0,0.0,0.0,0.0,0.0,0.0,0.0,0.0,0.0,0.0,0.0,4.4284,0.0,0.0,0.0,0.0,0.0,0.0,0.0,3.4504,3.3454,3.25,3.1982,3.1617,3.1351,3.1286,0.0,0.0,0.0,0.0,0.0,0.0,0.0,0.0,0.0,0.0,0.0,0.0,0.0,0.0,0.0,0.0,5.0374,4.9582,4.8642,4.7828,4.7208,4.6309,4.504,4.343,4.343,4.1791,3.8773,3.9305,0.0,0.0,0.0,0.0,0.0,2.8275,2.5879,2.4899,2.203,2.0233,1.906,1.6915,1.5388,1.424,0.0,0.0,0.0,0.0,0.0,0.0,0.0,0.0,0.0,0.0,2.7044,2.7045,2.784,2.7935,2.7921,0.0,0.0,0.0,0.0,0.0,0.0,0.0,0.0,0.0,0.0,2.9643,2.9531,2.9532,3.0019,3.0325,3.0461,3.1134,3.1005,3.0257,3.0257,2.9798,0.0,0.0,0.0,0.0,0.0,0.0,0.0,0.0,0.0,0.0,3.3849,3.426,0.0,0.0,0.0,0.0,0.0,0.0,0.0,0.0,3.4179,3.4581,3.5744,0.0,3.9064,3.8877,3.8359,3.7776,0.0,0.0,0.0,0.0,0.0,0.0,0.0,0.0,0.0,0.0,0.0,0.0,0.0,0.0,0.0,0.0,0.0,0.0,0.0,0.0,0.0,0.0,0.0,0.0,0.0,0.0,4.7837,4.7125,4.4921,4.3623,4.3479,4.275,4.1383,3.9524,3.9524,3.906,3.8319,3.7154,0.0,0.0,0.0,0.0,3.0148,2.701,2.4445,2.2415,2.064,1.8355,1.6006,1.5392,1.354,1.1194,0.0,0.0,0.0,0.0,0.0,0.0,0.0,0.0,0.0,0.0,0.0,0.0,0.0,0.0,0.0,0.0,0.0,0.0,0.0,0.0,0.0,0.0,0.0,0.0,2.9026,2.9173,2.9214,2.9101,3.0155,3.0844,3.1185,3.2007,3.1978,3.1192,3.0442,2.9655,0.0,0.0,0.0,0.0,0.0,0.0,0.0,0.0,0.0,0.0,3.3574,3.3928,0.0,3.3891,3.3858,3.3831,0.0,0.0,0.0,0.0,3.3364,3.3317,3.3076,3.4495,3.591,3.5469,3.5602,3.5661,3.5072,0.0,0.0,0.0,0.0,0.0,0.0,0.0,0.0,0.0,0.0,0.0,0.0,0.0,0.0,0.0,0.0,0.0,0.0,0.0,0.0,0.0,0.0,0.0,0.0,0.0,4.5313,4.4939,4.165,4.0466,4.1746,4.0499,3.9267,3.8214,3.8214,3.7676,3.6564,3.5178,0.0,0.0,0.0,0.0,2.7453,2.484,2.2607,2.0641,1.9213,1.716,1.5012,1.4128,1.2419,1.0353,0.0,0.0,0.0,0.0,0.0,0.0,0.0,0.0,0.0,0.0,0.0,0.0,0.0,0.0,0.0,0.0,0.0,0.0,0.0,0.0,0.0,0.0,0.0,2.8815,2.8144,2.8569,2.8883,2.9026,3.0593,3.17,3.2402,3.3322,3.3194,3.2138,3.067,2.9557,0.0,0.0,0.0,0.0,3.0031,0.0,0.0,0.0,0.0,0.0,0.0,0.0,0.0,3.3309,3.3268,3.3226,3.3122,0.0,0.0,0.0,0.0,0.0,3.2021,3.3301,3.4532,3.3781,3.4101,3.4316,3.3286,0.0,0.0,0.0,0.0,0.0,0.0,0.0,0.0,0.0,0.0,0.0,0.0,0.0,0.0,0.0,0.0,0.0,0.0,0.0,0.0,0.0,0.0,0.0,0.0,0.0,0.0,4.2361,3.8847,3.7906,3.9927,3.8408,3.7607,3.7441,3.7165,3.6015,3.4092,3.2992,3.1516,0.0,0.0,0.0,2.5218,2.2369,2.0546,1.9413,1.783,1.6218,1.4757,1.305,1.162,1.0119,0.0,0.0,0.0,0.0,0.0,0.0,0.0,0.0,0.0,0.0,0.0,0.0,0.0,0.0,0.0,0.0,0.0,0.0,0.0,0.0,0.0,0.0,2.7783,2.8157,2.7874,2.7941,2.821,2.8687,3.0948,3.2155,3.2356,3.3818,3.3393,3.1344,3.0414,2.9514,2.8694,2.8412,2.9098,3.0308,3.0142,0.0,0.0,0.0,0.0,0.0,0.0,0.0,0.0,3.235,3.2401,3.2419,3.2248,0.0,0.0,0.0,0.0,0.0,3.1625,3.1966,3.244,3.2586,3.2454,3.2336,3.242,0.0,0.0,0.0,0.0,0.0,0.0,0.0,0.0,0.0,0.0,0.0,0.0,0.0,0.0,0.0,0.0,0.0,0.0,0.0,0.0,0.0,0.0,0.0,0.0,0.0,0.0,3.8187,3.6632,3.5244,3.4095,3.4835,3.4774,3.3884,3.24,3.1577,3.1161,2.964,2.8717,0.0,0.0,2.4878,2.4668,2.0728,1.932,1.9287,1.6535,1.4673,1.3403,1.1801,1.0257,0.8948,0.0,0.0,0.0,0.0,0.0,0.0,0.0,0.0,0.0,0.0,0.0,0.0,0.0,0.0,0.0,0.0,0.0,0.0,0.0,0.0,0.0,2.6838,2.6734,2.6745,2.6835,2.7531,2.8139,2.8562,3.0818,3.2047,3.2272,3.3393,3.311,3.1608,3.1052,3.0132,2.8981,2.9094,2.9531,3.0207,0.0,0.0,0.0,0.0,0.0,0.0,0.0,0.0,0.0,0.0,3.2056,3.2004,3.1897,0.0,0.0,0.0,0.0,0.0,3.0891,3.0868,3.1083,3.1528,3.1787,3.1846,0.0,0.0,0.0,0.0,0.0,0.0,0.0,0.0,0.0,0.0,0.0,0.0,0.0,0.0,0.0,0.0,0.0,0.0,0.0,0.0,0.0,0.0,0.0,0.0,0.0,0.0,0.0,0.0,3.3392,3.1783,3.0283,3.0822,3.1003,3.0731,2.9957,2.9375,2.8745,2.7378,2.6378,2.5534,0.0,2.2517,2.142,1.947,1.8438,1.7782,1.5692,1.4062,1.2695,1.0502,0.9183,0.8577,0.0,0.0,0.0,0.0,0.0,0.0,0.0,0.0,0.0,0.0,0.0,0.0,0.0,0.0,0.0,0.0,0.0,0.0,0.0,0.0,2.6222,2.6718,2.5897,2.5675,2.6144,2.7289,2.8116,2.8551,3.0808,3.2199,3.2701,3.3274,3.2919,3.1864,3.1578,3.0672,2.9294,2.9592,2.9777,2.9952,0.0,0.0,0.0,0.0,0.0,0.0,0.0,0.0,0.0,0.0,0.0,0.0,0.0,0.0,0.0,3.049,3.0375,3.0261,2.9571,2.9524,2.9734,2.9972,3.0835,0.0,0.0,0.0,0.0,0.0,0.0,0.0,0.0,0.0,0.0,0.0,0.0,0.0,0.0,0.0,0.0,0.0,0.0,0.0,0.0,0.0,0.0,0.0,0.0,0.0,0.0,0.0,0.0,0.0,3.0289,2.8815,2.7678,2.7678,2.7954,2.8599,2.8221,2.7491,2.6485,2.5159,2.386,2.2574,2.147,2.003,1.8529,1.7855,1.7035,1.6079,1.4369,1.2884,1.1453,0.9404,0.8659,0.8601,0.0,0.0,0.0,0.0,0.0,0.0,0.0,0.0,0.0,0.0,0.0,0.0,0.0,0.0,0.0,0.0,0.0,0.0,0.0,0.0,2.5553,2.5355,2.5265,2.5655,2.6623,2.7216,2.7932,2.8679,3.1331,3.3134,3.4141,3.4195,3.3248,3.142,3.142,3.0685,2.9453,2.9265,2.9353,2.9616,2.9407,0.0,0.0,0.0,0.0,0.0,0.0,0.0,0.0,0.0,0.0,0.0,0.0,0.0,2.9708,2.8654,2.849,2.8431,2.7273,2.7501,2.7936,2.7273,2.8874,0.0,3.2039,3.2027,0.0,3.2604,0.0,0.0,0.0,0.0,0.0,0.0,0.0,0.0,0.0,0.0,0.0,0.0,0.0,0.0,0.0,0.0,0.0,0.0,0.0,0.0,0.0,0.0,0.0,0.0,0.0,2.7678,2.6441,2.6441,2.6985,2.817,2.6563,2.5238,2.3959,2.2368,2.097,1.9704,1.8542,1.8089,1.7986,1.5281,1.4508,1.4618,1.1659,0.988,0.8904,0.8814,0.8794,0.8889,0.0,0.0,0.0,0.0,0.0,0.0,0.0,0.0,0.0,0.0,0.0,0.0,0.0,0.0,0.0,0.0,0.0,0.0,0.0,0.0,2.5005,2.59,2.4626,2.4501,2.5819,2.7087,2.8249,2.9273,3.1538,3.2926,3.3477,3.3461,3.2778,3.1585,3.1585,3.0975,2.9945,3.0163,2.9844,2.9239,2.9633,2.9664,0.0,0.0,0.0,0.0,0.0,0.0,0.0,0.0,2.8259,2.8033,2.8389,2.8621,2.8646,2.8021,2.7926,2.7769,2.6769,2.7096,2.7654,2.7507,2.8828,0.0,0.0,3.1598,3.2408,3.3401,3.3073,0.0,0.0,0.0,0.0,0.0,0.0,0.0,0.0,0.0,0.0,0.0,0.0,0.0,0.0,0.0,0.0,0.0,0.0,0.0,0.0,0.0,0.0,0.0,0.0,2.5495,2.4303,2.4303,2.4557,2.4985,2.4669,2.3663,2.219,2.1615,2.0215,1.8319,1.787,1.6892,1.5454,1.4298,1.3505,1.2793,1.0943,0.9442,0.8448,0.8537,0.8676,0.8699,0.0,0.0,0.0,0.0,0.0,0.0,0.0,0.0,0.0,0.0,0.0,0.0,0.0,0.0,0.0,0.0,0.0,0.0,2.7437,2.5474,2.4722,2.5631,2.4019,2.3627,2.4796,2.6453,2.7891,2.9229,3.122,3.2231,3.2258,3.2423,3.2144,3.149,3.149,3.0989,3.0101,3.0418,2.9903,2.8909,2.9392,2.9316,0.0,0.0,0.0,0.0,0.0,0.0,0.0,0.0,2.6808,2.659,2.7011,2.7226,2.7283,2.6718,2.6413,2.6076,2.5168,2.5318,2.58,2.6332,0.0,0.0,2.9687,3.1197,3.2739,3.3667,3.2985,0.0,0.0,0.0,0.0,0.0,0.0,0.0,0.0,0.0,0.0,0.0,0.0,0.0,0.0,0.0,0.0,0.0,0.0,0.0,0.0,0.0,0.0,0.0,0.0,0.0,2.1952,2.1952,2.1952,2.1952,2.2329,2.1852,2.0755,2.0305,1.9039,1.7037,1.664,1.5494,1.3878,1.3,1.1843,1.0592,0.9834,0.9026,0.8289,0.8384,0.853,0.8582,0.0,0.0,0.0,0.0,0.0,0.0,0.0,0.0,0.0,0.0,0.0,0.0,0.0,0.0,0.0,0.0,0.0,0.0,2.637,2.5472,2.4731,2.4145,2.3381,2.3238,2.3785,2.5176,2.6714,2.8373,3.0335,3.1039,3.0593,3.1351,3.149,3.1083,3.1083,3.0625,2.9793,2.9793,2.9303,2.8511,2.8511,2.8301,2.7929,0.0,0.0,0.0,0.0,0.0,0.0,0.0,2.4932,2.5242,2.5038,2.5369,2.5525,2.4348,2.3545,2.292,2.203,2.1636,0.0,0.0,0.0,0.0,2.8539,3.0945,3.2931,3.332,0.0,0.0,0.0,0.0,0.0,0.0,0.0,0.0,0.0,0.0,0.0,0.0,0.0,0.0,0.0,0.0,0.0,0.0,0.0,0.0,0.0,0.0,0.0,0.0,0.0,0.0,1.9497,1.9497,1.9497,1.9497,1.9497,1.9497,1.9405,1.8234,1.7037,1.573,1.4459,1.3872,1.368,1.1068,0.9217,0.8038,0.8038,0.814,0.8286,0.8286,0.8397,0.8574,0.0,0.0,0.0,0.0,0.0,0.0,0.0,0.0,0.0,0.0,0.0,0.0,0.0,0.0,0.0,0.0,0.0,0.0,2.6964,2.5295,2.4208,2.4048,2.2618,2.2361,2.3549,2.5526,2.6961,2.7867,2.8948,2.9359,2.9197,3.0209,3.0577,3.0468,3.0716,3.0551,3.0044,2.9766,2.9303,2.8764,2.8448,2.8091,2.7615,0.0,0.0,0.0,0.0,0.0,0.0,0.0,0.0,0.0,2.3724,2.4137,2.417,2.3691,2.3428,2.3055,2.1856,0.0,0.0,0.0,0.0,0.0,0.0,3.0335,0.0,0.0,0.0,0.0,0.0,0.0,0.0,0.0,0.0,0.0,0.0,0.0,0.0,0.0,0.0,0.0,0.0,0.0,0.0,0.0,0.0,0.0,0.0,0.0,0.0,0.0,0.0,0.0,1.9497,1.9497,1.9497,1.9497,1.868,1.8226,1.8234,1.787,1.7037,1.573,1.4459,1.3392,1.2334,0.9702,0.8343,0.7962,0.7962,0.7999,0.7841,0.5984,0.6481,0.8118,0.0,0.0,0.0,0.0,0.0,0.0,0.0,0.0,0.0,0.0,0.0,0.0,0.0,0.0,0.0,0.0,0.0,0.0,0.0,2.4894,2.3802,2.3391,2.1908,2.1677,2.2976,2.4308,2.5346,2.6083,2.7485,2.815,2.8136,2.9098,2.9781,3.0189,3.0401,3.0274,2.987,2.9454,2.8966,2.8463,2.8027,2.743,2.668,0.0,0.0,0.0,0.0,0.0,0.0,0.0,0.0,0.0,2.2625,2.2958,2.2961,2.2613,2.24,2.1947,2.0479,0.0,0.0,0.0,0.0,0.0,0.0,0.0,0.0,0.0,0.0,0.0,0.0,0.0,0.0,0.0,0.0,0.0,0.0,0.0,0.0,0.0,0.0,0.0,0.0,0.0,0.0,0.0,0.0,0.0,0.0,0.0,0.0,0.0,0.0,0.0,1.6469,1.6469,1.6469,1.6476,1.5752,1.5386,1.5386,1.5967,1.5792,1.4949,1.3102,1.1556,1.0207,0.8641,0.7962,0.7879,0.6851,0.7065,0.7798,0.6155,0.5286,0.4846,0.0,0.0,0.0,0.0,0.0,0.0,0.0,0.0,0.0,0.0,0.0,0.0,0.0,0.0,0.0,0.0,0.0,0.0,0.0,0.0,2.3539,2.249,2.1466,2.1311,2.2156,2.2325,2.2827,2.3696,2.5921,2.7093,2.729,2.7982,2.892,3.0017,3.0017,2.9782,2.938,2.8842,2.8321,2.7773,2.7318,2.6462,2.5423,2.4768,0.0,0.0,0.0,0.0,0.0,0.0,0.0,0.0,2.1637,2.1877,2.191,2.1211,2.0746,2.0156,1.8578,0.0,0.0,0.0,0.0,0.0,0.0,0.0,0.0,0.0,0.0,0.0,0.0,0.0,0.0,0.0,0.0,0.0,0.0,0.0,0.0,0.0,0.0,0.0,0.0,0.0,0.0,0.0,0.0,0.0,0.0,0.0,0.0,0.0,0.0,0.0,1.1945,1.1945,1.1945,0.0,1.1945,1.1945,1.1945,1.3199,1.368,1.3392,1.1072,0.9232,0.7972,0.7769,0.7775,0.7785,0.5334,0.5546,0.7305,0.7305,0.4144,-0.0,0.0,0.0,0.0,0.0,0.0,0.0,0.0,0.0,0.0,0.0,0.0,0.0,0.0,0.0,0.0,0.0,0.0,0.0,0.0,0.0,2.3838,2.2746,2.2181,2.2006,2.2186,2.3262,2.3549,2.3024,2.3788,2.4843,2.6168,2.6561,2.7455,2.8717,2.8717,2.8622,2.8543,2.811,2.7576,2.701,2.6599,2.5818,2.4753,2.3618,2.2934,0.0,0.0,0.0,0.0,0.0,0.0,0.0,2.0453,2.0578,2.0586,2.0436,2.0012,1.9468,0.0,1.8742,0.0,0.0,0.0,0.0,0.0,0.0,0.0,0.0,0.0,0.0,0.0,0.0,0.0,0.0,0.0,0.0,0.0,0.0,0.0,0.0,0.0,0.0,0.0,0.0,0.0,0.0,0.0,0.0,0.0,0.0,0.0,0.0,0.0,1.1945,1.1945,1.1945,1.1945,0.0,1.1945,1.1945,1.195,1.2237,1.1745,1.0877,1.0627,0.9557,0.7869,0.5732,0.615,0.7915,0.7397,0.4951,0.1716,0.1716,0.101,-0.0,0.0,0.0,0.0,0.0,0.0,0.0,0.0,0.0,0.0,0.0,0.0,0.0,0.0,0.0,0.0,0.0,0.0,0.0,0.0,0.0,2.3808,2.2512,2.2369,2.2069,2.1595,2.2342,2.2498,2.1965,2.1961,2.2922,2.4891,2.5345,2.6379,2.7905,2.8165,2.8134,2.7842,2.7346,2.6823,2.6204,2.6061,2.5048,2.3597,2.3284,2.2322,2.1041,2.0335,0.0,0.0,0.0,0.0,0.0,0.0,0.0,1.9775,1.9456,1.9179,1.8701,0.0,0.0,0.0,0.0,0.0,0.0,0.0,0.0,0.0,0.0,0.0,0.0,0.0,0.0,0.0,0.0,0.0,0.0,0.0,0.0,0.0,0.0,0.0,0.0,0.0,0.0,0.0,0.0,0.0,0.0,0.0,0.0,0.0,0.0,0.9998,0.9998,0.9998,0.9998,0.9998,0.9998,0.9998,0.9998,1.0092,1.0681,1.0297,0.9038,0.926,0.8881,0.7895,0.6464,0.5249,0.4144,0.4144,0.2424,-0.0,-0.0,-0.0,-0.0,0.0,0.0,0.0,0.0,0.0,0.0,0.0,0.0,0.0,0.0,0.0,0.0,0.0,0.0,0.0,0.0,0.0,0.0,0.0,0.0,0.0,2.2262,2.2271,2.1898,2.1038,2.1133,2.1157,2.1139,2.065,2.1464,2.3507,2.4269,2.5471,2.6972,2.7552,2.754,2.7005,2.6486,2.586,2.5248,2.5374,2.4177,2.2369,2.2875,2.1794,1.9978,1.9939,1.9772,1.9565,1.9565,0.0,0.0,0.0,0.0,1.8934,1.8383,1.817,1.7763,0.0,0.0,0.0,0.0,0.0,0.0,0.0,0.0,0.0,0.0,0.0,0.0,0.0,0.0,0.0,0.0,0.0,0.0,0.0,0.0,0.0,0.0,0.0,0.0,0.0,0.0,0.0,0.0,0.0,0.0,0.0,0.0,0.9029,0.7963,0.7963,0.7963,0.7963,0.7963,0.7977,0.8001,0.8004,0.8007,0.8004,0.9087,0.9015,0.7972,0.7463,0.7582,0.7922,0.6995,0.4041,-0.0,-0.0,-0.0,-0.0,-0.0,-0.0,-0.0,0.0,0.0,0.0,0.0,0.0,0.0,0.0,0.0,0.0,0.0,0.0,0.0,0.0,0.0,0.0,0.0,0.0,0.0,2.5146,0.0,0.0,2.2702,2.2159,2.1758,2.1512,2.1735,2.1655,2.1164,2.0775,0.0,0.0,0.0,0.0,2.5185,2.5712,2.5828,2.5662,2.5177,2.4505,2.3755,2.3808,2.2929,2.1532,2.1551,2.0828,1.9811,1.972,1.9565,1.942,1.9275,1.8893,0.0,0.0,0.0,1.7456,1.7245,1.6818,1.642,0.0,0.0,0.0,0.0,0.0,0.0,0.0,0.0,0.0,0.0,0.0,0.0,0.0,0.0,0.0,0.0,0.0,0.0,0.0,0.0,0.0,0.0,0.0,0.0,0.0,0.0,0.0,0.0,0.0,0.0,0.0,0.7939,0.7848,0.7658,0.7658,0.7658,0.7658,0.7658,0.7719,0.7841,0.7962,0.7875,0.7771,0.8087,0.8164,0.7869,0.5529,0.5849,0.7613,0.303,0.0606,-0.0,-0.0,-0.0,-0.0,-0.0,-0.0,-0.0,0.0,0.0,0.0,0.0,0.0,0.0,0.0,0.0,0.0,0.0,0.0,0.0,0.0,0.0,0.0,2.5224,2.5278,2.524,2.5107,2.4076,2.3428,2.3371,2.2571,2.1953,2.1536,2.1382,2.104,2.0452,0.0,0.0,0.0,2.263,2.373,0.0,0.0,2.5184,2.4535,2.4583,2.3995,2.3012,2.3355,2.2426,2.0934,2.1757,2.0848,1.9282,1.9747,1.9679,1.9275,1.9223,1.8774,1.8159,1.8093,0.0,0.0,0.0,0.0,0.0,1.5546,0.0,0.0,0.0,0.0,0.0,0.0,0.0,0.0,0.0,0.0,0.0,0.0,0.0,0.0,0.0,0.0,0.0,0.0,0.0,0.0,0.0,0.0,0.0,0.0,0.0,0.0,0.0,0.0,0.0,0.7691,0.76,0.76,0.76,0.76,0.76,0.76,0.7607,0.7746,0.7921,0.7832,0.7047,0.5585,0.5689,0.658,0.7899,0.677,0.5251,0.3334,0.101,-0.0,-0.0,-0.0,-0.0,-0.0,-0.0,-0.0,-0.0404,0.0,0.0,0.0,0.0,0.0,0.0,0.0,0.0,0.0,0.0,0.0,0.0,0.0,0.0,0.0,0.0,2.5162,2.5162,2.5068,2.4385,2.3925,2.3739,2.2994,2.2295,2.1688,2.1083,2.0584,2.0114,0.0,0.0,2.063,2.2096,2.3176,0.0,2.4874,2.4841,0.0,0.0,2.3621,2.2765,2.2955,2.1946,2.0476,2.1506,2.0536,1.8722,1.9522,1.9462,1.9,1.9081,1.8548,1.7875,1.782,1.6989,0.0,0.0,0.0,0.0,0.0,0.0,0.0,0.0,0.0,0.0,0.0,0.0,0.0,0.0,0.0,0.0,0.0,0.0,0.0,0.0,0.0,0.0,0.0,0.0,0.0,0.0,0.0,0.0,0.0,0.0,0.0,0.0,0.0,0.0,0.7574,0.7482,0.7485,0.7492,0.7492,0.7492,0.7495,0.6932,0.6737,0.691,0.7429,0.6698,0.4723,0.4248,0.5417,0.7975,0.7969,0.4933,-0.0,-0.0,-0.0,-0.0,-0.0,-0.0,-0.0,-0.0,-0.0909,-0.2625,0.0,0.0,0.0,0.0,0.0,0.0,0.0,0.0,0.0,0.0,0.0,0.0,2.5294,2.5201,2.5107,2.5091,2.5045,2.5005,2.5005,2.4661,2.4193,2.3653,2.326,0.0,2.2189,2.1286,2.0782,0.0,0.0,0.0,2.1006,2.1758,2.2644,2.3631,2.427,2.4716,2.4854,0.0,0.0,2.2991,2.2048,2.1087,2.0161,1.9894,1.9048,1.8101,0.0,0.0,1.8503,1.8749,1.8116,1.7202,1.7112,1.6218,1.5205,0.0,0.0,0.0,0.0,0.0,0.0,0.0,0.0,0.0,0.0,0.0,0.0,0.0,0.0,0.0,0.0,0.0,0.0,0.0,0.0,0.0,0.0,0.0,0.0,0.0,0.0,0.0,0.0,0.0,0.0,0.0,0.0,0.0,0.7163,0.7166,0.7084,0.7108,0.7108,0.7115,0.7125,0.4933,0.3815,0.3834,0.6627,0.7608,0.6897,0.4926,0.5426,0.8045,0.8021,0.4973,-0.0,-0.0,-0.0,-0.0,-0.0,-0.0,-0.0,-0.0,-0.3232,-0.7613,0.0,0.0,0.0,0.0,0.0,0.0,0.0,0.0,0.0,0.0,0.0,0.0,0.0,2.5084,2.5005,2.4926,2.4902,2.4645,2.4162,2.3994,2.3696,2.3157,2.2768,2.2402,2.2217,2.1458,0.0,0.0,0.0,2.0946,2.0897,2.1965,2.283,2.3433,2.3882,2.4046,2.4055,2.3674,0.0,0.0,0.0,0.0,0.0,0.0,0.0,0.0,0.0,0.0,0.0,1.8437,1.7831,1.7,1.656,1.5884,1.5156,0.0,0.0,0.0,0.0,0.0,0.0,0.0,0.0,0.0,0.0,0.0,0.0,0.0,0.0,0.0,0.0,0.0,0.0,0.0,0.0,0.0,0.0,0.0,0.0,0.0,0.0,0.0,0.0,0.0,0.0,0.0,0.0,0.0,0.6956,0.6871,0.6967,0.7083,0.5678,0.5595,0.71,0.6306,0.4319,0.1303,0.2366,0.276,0.2543,0.1817,0.1938,0.2842,0.2875,0.1765,-0.0,-0.0,-0.0,-0.0,-0.0,-0.0,-0.0,-0.0,-0.3435,-0.8022,0.0,0.0,0.0,0.0,0.0,0.0,0.0,0.0,0.0,0.0,0.0,0.0,0.0,0.0,2.4846,2.4605,2.4564,2.4302,2.3638,2.3595,2.3377,2.2934,2.2572,2.2356,2.2137,2.141,0.0,0.0,0.0,0.0,0.0,2.1982,2.2836,2.3242,2.3196,2.3367,0.0,0.0,0.0,2.3151,0.0,0.0,2.0381,0.0,0.0,0.0,0.0,0.0,0.0,0.0,0.0,0.0,0.0,0.0,0.0,0.0,0.0,0.0,0.0,0.0,0.0,0.0,0.0,0.0,0.0,0.0,0.0,0.0,0.0,0.0,0.0,0.0,0.0,0.0,0.0,0.0,0.0,0.0,0.0,0.0,0.0,0.0,0.0,0.0,0.0,0.0,0.0,0.0,0.6729,0.613,0.6139,0.7104,0.4034,0.3181,0.467,0.4753,0.3115,-0.0,-0.0,-0.0,-0.0,-0.0,-0.0,-0.0,-0.0,-0.0,-0.0,-0.0,-0.0,-0.0,-0.0,-0.1111,-0.2726,-0.2726,-0.4949,-0.8006,0.0,0.0,0.0,0.0,0.0,0.0,0.0,0.0,0.0,2.3032,0.0,0.0,0.0,0.0,0.0,2.412,2.4063,2.3937,2.3595,2.3551,2.3392,2.2918,2.2918,2.2661,2.2085,0.0,0.0,0.0,0.0,0.0,0.0,0.0,2.2641,2.3062,2.229,2.2682,2.3923,0.0,2.3072,2.2946,0.0,2.0429,2.061,0.0,0.0,0.0,1.9436,1.8742,0.0,0.0,0.0,0.0,0.0,0.0,0.0,0.0,0.0,0.0,0.0,0.0,0.0,0.0,0.0,0.0,0.0,0.0,0.0,0.0,0.0,0.0,0.0,0.0,0.0,0.0,0.0,0.0,0.0,0.0,0.0,0.0,0.0,0.0,0.0,0.0,0.0,0.0,0.0,0.6715,0.6656,0.4694,0.4529,0.6843,0.2436,-0.0,-0.0,-0.0,-0.0,-0.0,-0.0,-0.0,-0.0,-0.0,-0.0,-0.0,-0.0,-0.0,-0.0,-0.0,-0.0,-0.0,-0.0,-0.3232,-0.8026,-0.8026,-0.8002,-0.7972,0.0,0.0,0.0,0.0,0.0,0.0,0.0,0.0,2.2927,0.0,0.0,0.0,2.4784,2.4482,2.4051,2.3623,2.358,2.3319,2.2632,2.2889,2.3093,2.3055,2.3022,2.3201,2.3533,0.0,0.0,0.0,0.0,0.0,0.0,0.0,0.0,0.0,2.2566,2.2639,2.2677,2.2371,0.0,0.0,2.1538,2.0741,0.0,0.0,0.0,0.0,0.0,1.8479,0.0,0.0,1.6987,1.6036,0.0,0.0,0.0,0.0,0.0,0.0,1.3211,0.0,0.0,0.0,0.0,0.0,0.0,0.0,0.0,0.0,0.0,0.0,0.0,0.0,0.0,0.0,0.0,0.0,0.0,0.0,0.0,0.0,0.0,0.0,0.0,0.0,0.0,0.0,0.5074,0.4795,0.6364,0.2962,0.1279,0.1922,0.0721,-0.0,-0.0,-0.0,-0.0,-0.0,-0.0,-0.0,-0.0,-0.0,-0.0,-0.0,-0.0,-0.0,-0.0,-0.0,-0.0,-0.0,-0.0,-0.3232,-0.8026,-0.8026,-0.8002,-0.7972,0.0,0.0,0.0,0.0,0.0,0.0,2.2369,2.2299,2.2613,0.0,0.0,0.0,2.4541,2.4591,2.4283,2.3583,2.3772,2.3525,2.2625,2.3089,2.345,2.3526,2.3505,2.3674,2.4002,0.0,0.0,0.0,0.0,0.0,0.0,0.0,0.0,0.0,0.0,0.0,0.0,0.0,0.0,0.0,2.107,0.0,0.0,1.9395,1.8958,0.0,0.0,0.0,1.81,1.7733,1.6948,0.0,0.0,0.0,0.0,0.0,0.0,0.0,0.0,0.0,0.0,0.0,0.0,0.0,0.0,0.0,0.0,0.0,0.0,0.0,0.0,0.0,0.0,0.0,0.0,0.0,0.0,0.0,0.0,0.0,0.0,0.0,0.0,0.0,0.0,0.0,0.4663,0.424,0.3698,0.1335,-0.0,-0.0,-0.0,-0.0,-0.0,-0.0,-0.0,-0.0,-0.0,-0.0,-0.0,-0.0,-0.0,-0.0,-0.0,-0.1301,-0.3199,-0.0883,-0.0,-0.02,-0.2416,-0.4543,-0.6467,-0.7594,-0.7985,-0.7959,0.0,0.0,0.0,2.0436,2.0914,2.129,2.1182,2.1591,2.213,0.0,2.2757,2.3122,2.4297,2.4917,2.4828,2.3894,2.4258,2.4148,2.3287,2.3794,2.4146,2.4216,2.4165,2.4142,2.411,2.3004,0.0,0.0,0.0,0.0,0.0,0.0,0.0,0.0,0.0,0.0,0.0,0.0,0.0,2.1592,2.0048,2.0152,0.0,0.0,1.9726,0.0,2.0378,1.9669,1.8762,1.7767,1.6585,0.0,0.0,0.0,0.0,0.0,1.3773,0.0,0.0,0.0,0.0,0.0,0.0,0.0,1.088,1.0823,0.0,0.0,0.0,0.0,0.0,0.0,0.0,0.0,0.0,0.0,0.0,0.0,0.0,0.0,0.0,0.0,0.0,0.0,0.5392,0.3279,0.4638,0.3936,0.0236,-0.0,-0.0,-0.0,-0.0,-0.0,-0.0,-0.0,-0.0,-0.0,-0.0,-0.0,-0.0,-0.0,-0.0,-0.0,-0.0,-0.3081,-0.7675,-0.2818,-0.049,-0.0493,-0.5932,-0.657,-0.4722,-0.7153,-0.7959,-0.8038,0.0,0.0,1.9874,1.9874,2.0346,2.0911,2.1422,2.1554,2.2039,2.3236,2.3791,2.4134,2.4356,2.4586,2.463,2.4451,2.4284,2.4112,2.3935,2.4047,2.4343,2.4769,2.4693,2.4864,2.5366,2.4163,2.3418,0.0,0.0,0.0,0.0,0.0,0.0,0.0,0.0,0.0,0.0,0.0,0.0,2.0582,1.9947,0.0,2.0428,1.9291,1.9123,1.9382,1.9146,1.855,1.7722,0.0,1.5996,1.5813,0.0,0.0,0.0,0.0,0.0,0.0,0.0,0.0,0.0,0.0,0.0,0.0,0.9845,1.0137,0.0,0.0,0.0,0.0,0.0,0.0,0.0,0.0,0.0,0.0,0.0,0.0,0.0,0.0,0.0,0.0,0.0,0.0,0.5387,0.3276,0.1958,0.0864,0.0079,-0.0,-0.0,-0.0,-0.0,-0.0,-0.0,-0.0,-0.0,-0.0,-0.0,-0.0,-0.0,-0.0,-0.0,-0.0,-0.0,-0.3021,-0.7916,-0.6902,-0.3912,-0.0501,-0.5859,-0.7701,-0.7269,-0.7772,-0.7959,-0.8038,0.0,0.0,1.9236,1.8793,1.9688,2.0558,2.0709,2.1383,2.2236,2.3329,2.4177,2.4687,2.4687,2.4997,2.5048,2.4736,2.4759,2.4657,2.4337,2.4602,2.4922,2.5228,2.5188,2.5273,2.5578,2.4394,2.3741,2.3577,0.0,0.0,0.0,0.0,0.0,0.0,0.0,0.0,0.0,0.0,2.1257,2.0937,2.0191,0.0,1.974,1.8758,1.8606,1.8809,1.83,1.7688,1.6973,1.6406,1.621,0.0,0.0,1.5492,1.4925,0.0,1.3274,1.2165,0.0,0.0,0.0,1.0099,0.0,0.0,0.0,0.9199,0.0,0.0,0.0,0.0,0.0,0.0,0.0,0.0,0.0,0.0,0.0,0.0,0.0,0.0,0.0,0.0,0.0,0.0,0.498,0.1797,0.062,-0.0,-0.0,-0.0,-0.0,-0.0,-0.2043,-0.3146,-0.3146,-0.2116,-0.1565,-0.1566,-0.1542,-0.0996,-0.0,-0.0,-0.0,-0.0,-0.0,-0.1554,-0.4238,-0.6887,-0.6463,-0.4126,-0.5445,-0.6868,-0.7985,-0.7965,-0.8048,-0.8038,1.8503,0.0,0.0,1.8004,1.9193,2.0205,2.0045,2.1292,2.253,2.3356,2.4267,2.4902,2.4902,0.0,0.0,2.484,2.5057,2.5007,0.0,0.0,0.0,2.5245,2.537,2.537,2.519,2.4346,2.3741,2.3518,0.0,0.0,0.0,0.0,0.0,0.0,0.0,0.0,0.0,0.0,0.0,2.0976,0.0,1.9836,1.9655,1.8577,1.8454,1.8717,1.7755,1.6922,1.6341,1.6488,0.0,1.6249,1.5892,1.5375,0.0,0.0,0.0,0.0,0.0,0.0,0.0,0.0,0.0,0.8322,0.0,0.0,0.0,0.0,0.0,0.0,0.0,0.0,0.0,0.0,0.0,0.0,0.0,0.0,0.0,0.0,0.0,0.0,0.0,0.0,0.4556,0.0309,-0.0,-0.0,-0.0,-0.0784,-0.1178,-0.1178,-0.409,-0.5921,-0.6322,-0.4548,-0.3752,-0.3752,-0.3685,-0.2868,-0.1258,-0.0857,-0.0702,-0.0718,-0.0718,-0.0734,-0.114,-0.5422,-0.7517,-0.7785,-0.5634,-0.6142,-0.7982,-0.7952,-0.8038,-0.8038,1.8189,1.8399,0.0,1.8417,1.9171,1.9906,2.0386,2.1485,2.2679,2.387,2.4255,0.0,0.0,0.0,0.0,0.0,0.0,0.0,2.4972,0.0,0.0,2.4287,2.4873,2.4888,2.4096,2.42,2.3872,2.3148,2.2616,0.0,0.0,0.0,0.0,0.0,2.0412,0.0,0.0,0.0,1.9843,0.0,1.9541,2.057,0.0,1.9676,1.9216,1.9171,1.728,1.6151,1.5596,0.0,1.6143,1.6205,0.0,1.5323,0.0,0.0,0.0,0.0,0.0,0.0,0.0,0.0,0.7914,0.0,0.0,0.0,0.0,0.0,0.0,0.7778,0.6332,0.0,0.0,0.0,0.0,0.0,0.0,0.0,0.0,0.0,0.0,0.0,0.0,0.0,0.0,0.0294,-0.0,-0.0,-0.0,-0.3577,-0.5608,-0.5608,-0.4235,-0.4387,-0.6298,-0.6054,-0.5973,-0.5973,-0.5956,-0.5933,-0.5901,-0.4034,-0.3154,-0.3215,-0.3215,-0.3292,-0.3603,-0.3914,-0.5656,-0.7989,-0.7669,-0.7769,-0.7972,-0.8048,-0.8038,-0.8038,1.7528,1.8024,0.0,0.0,1.8791,1.9768,2.0057,2.1925,2.347,2.4008,2.4445,0.0,0.0,0.0,0.0,0.0,0.0,0.0,0.0,0.0,0.0,0.0,0.0,0.0,0.0,2.4358,2.385,2.3088,2.2237,2.1577,0.0,0.0,0.0,0.0,1.9767,0.0,1.9527,0.0,0.0,0.0,0.0,0.0,0.0,1.835,1.7399,1.6994,1.6168,1.586,1.5801,0.0,1.6224,0.0,0.0,0.0,0.0,0.0,0.0,0.0,0.0,0.0,0.0,0.0,0.0,0.0,0.0,0.0,0.5931,0.0,0.0,0.0,0.0,0.0,0.0,0.0,0.0,0.0,0.0,0.0,0.0,0.0,0.0,0.0,0.0,0.0,0.0,0.0,0.0,-0.1102,-0.3559,-0.5304,-0.6311,-0.6308,-0.5413,-0.5407,-0.6285,-0.6278,-0.6274,-0.6278,-0.6344,-0.6498,-0.6576,-0.5843,-0.5529,-0.5644,-0.5644,-0.574,-0.5805,-0.5909,-0.6721,-0.7855,-0.7925,-0.7962,-0.7969,-0.8048,-0.8038,-0.8038,1.7068,0.0,0.0,0.0,0.0,1.9698,2.0202,2.2269,0.0,0.0,0.0,0.0,2.5418,2.5404,0.0,0.0,0.0,2.5067,0.0,0.0,2.5133,0.0,0.0,0.0,0.0,2.3922,2.3563,2.2847,2.199,2.1451,0.0,0.0,0.0,0.0,0.0,1.8977,1.8725,0.0,0.0,1.8322,1.886,1.8743,1.8195,1.7108,1.6318,1.569,1.5468,1.5615,1.5889,1.5807,1.6301,0.0,1.6689,0.0,0.0,0.0,0.0,0.0,1.1409,0.0,0.0,0.0,0.0,0.0,0.0,0.0,0.0,0.0,0.0,0.0,0.0,0.0,0.3203,0.0,0.0,0.0,0.0,0.0,0.0,0.0,0.0,0.0,0.0,0.0,0.0,0.0,0.0,0.0,-0.5889,-0.6125,-0.6208,-0.6224,-0.6295,-0.6332,-0.6332,-0.6322,-0.6339,-0.6383,-0.6403,-0.6546,-0.6703,-0.6763,-0.69,-0.7088,-0.7088,-0.7171,-0.7224,-0.7465,-0.7624,-0.7744,-0.7896,-0.7977,-0.7962,-0.8045,-0.8038,-0.8038,1.7071,1.7921,0.0,0.0,0.0,0.0,0.0,0.0,0.0,0.0,0.0,0.0,0.0,0.0,0.0,0.0,0.0,2.1882,2.2194,0.0,2.3192,0.0,0.0,2.4383,0.0,2.256,2.2798,2.2101,2.2101,2.1753,0.0,0.0,0.0,0.0,0.0,1.9239,1.9133,1.8768,1.7832,1.6708,1.7284,1.667,1.5635,0.0,1.6929,1.6379,1.5642,0.0,0.0,1.6353,1.644,0.0,0.0,0.0,0.0,0.0,0.0,0.0,0.0,0.0,0.0,0.9204,0.0,0.0,0.0,0.0,0.4743,0.0,0.0,0.0,0.0,0.251,0.2257,0.1446,0.0,0.0,0.0,0.0,0.0,0.0,0.0,0.0,0.0,0.0,0.0,0.0,0.0,0.0,-0.544,-0.5832,-0.5976,-0.5979,-0.6322,-0.6464,-0.6464,-0.6464,-0.6539,-0.6681,-0.64,-0.6498,-0.6919,-0.6773,-0.6868,-0.7143,-0.7143,-0.7227,-0.7363,-0.7214,-0.7414,-0.7797,-0.7665,-0.7787,-0.8041,-0.8038,-0.8038,-0.8038,0.0,0.0,0.0,0.0,0.0,0.0,0.0,2.2564,0.0,0.0,0.0,0.0,0.0,0.0,2.4869,0.0,0.0,2.3578,2.3694,2.4109,0.0,0.0,0.0,2.5476,2.2373,2.3374,2.3304,2.2101,2.1565,2.1198,0.0,0.0,0.0,0.0,0.0,1.8206,0.0,0.0,0.0,0.0,0.0,1.6255,1.5871,0.0,0.0,1.5748,1.5468,1.5791,0.0,1.6258,1.6747,1.7402,1.7571,1.7139,1.6378,1.5221,1.4284,0.0,0.0,0.0,1.0144,0.9241,0.0,0.0,0.0,0.0,0.0,0.0,0.0,0.0,0.0,0.0,0.1645,0.1321,0.1009,0.0,0.0,0.0,0.0,0.0,0.0,0.0,0.0,0.0,0.0,0.0,0.0,0.0,0.0,-0.5868,-0.6016,-0.6034,-0.6318,-0.6471,-0.6471,-0.6573,-0.6651,-0.6702,-0.6702,-0.6783,-0.6929,-0.6973,-0.7044,-0.7139,-0.7139,-0.717,-0.7231,-0.7383,-0.7533,-0.7685,-0.7834,-0.795,-0.8038,-0.8038,-0.8038,-0.8038,1.7762,0.0,0.0,0.0,0.0,0.0,0.0,0.0,0.0,0.0,2.4217,0.0,2.5722,0.0,2.5288,0.0,2.4355,2.3928,2.3714,2.4219,0.0,2.3186,2.5114,0.0,0.0,2.2628,2.2585,2.1592,0.0,2.0903,0.0,0.0,0.0,0.0,0.0,0.0,0.0,0.0,1.6208,0.0,0.0,1.6011,0.0,0.0,1.5759,1.5679,0.0,1.5908,1.6289,1.6475,1.6885,1.7278,1.7187,1.6908,1.6464,1.4901,1.4235,1.3585,1.2291,1.1397,0.0,0.9448,0.8613,0.0,0.4838,0.0,0.0,0.0,0.0,0.0,0.0,0.0,0.0,0.132,0.1008,0.0845,0.0,-0.1767,0.0,0.0,0.0,0.0,0.0,0.0,0.0,-0.3637,-0.3641,0.0,0.0,0.0,-0.5954,-0.6023,-0.6369,-0.6552,-0.6552,-0.6705,-0.6807,-0.6858,-0.6851,-0.6902,-0.7004,-0.7048,-0.7092,-0.7139,-0.7139,-0.7139,-0.7156,-0.7353,-0.7502,-0.7617,-0.7807,-0.7946,-0.8038,-0.8038,-0.8038,-0.8038,0.0,0.0,0.0,0.0,2.017,0.0,0.0,0.0,2.3556,0.0,2.4262,2.5111,2.5136,2.4868,2.4387,2.3753,2.3281,0.0,2.2289,2.3534,0.0,0.0,2.3058,2.2777,2.0342,0.0,0.0,0.0,0.0,0.0,0.0,0.0,0.0,0.0,1.8739,0.0,1.7251,1.7145,1.642,1.5449,1.5889,1.583,1.5449,1.6325,0.0,1.5954,1.6036,1.5751,1.5545,1.6796,1.6689,1.611,1.6419,1.6228,1.5589,1.4142,1.3673,1.3528,1.2519,1.2003,1.1329,0.9674,0.0,0.0,0.0,0.0,0.4268,0.0,0.0,0.0,0.0,0.0,0.0,0.1295,0.1138,0.0752,-0.0147,0.0,0.0,0.0,0.0,0.0,0.0,0.0,-0.4836,-0.5358,-0.5259,-0.5322,0.0,0.0,-0.5878,-0.6023,-0.6458,-0.6695,-0.6702,-0.6851,-0.7,-0.7136,-0.6854,-0.6868,-0.7136,-0.7,-0.7014,-0.7139,-0.7139,-0.7139,-0.7143,-0.7156,-0.7336,-0.76,-0.7614,-0.7794,-0.8038,-0.8038,-0.8038,-0.8038,1.8084,1.8759,1.9272,0.0,2.0338,2.139,0.0,0.0,0.0,0.0,2.4755,2.5095,2.6046,2.567,2.4843,2.3688,2.273,0.0,0.0,0.0,0.0,2.1531,2.3447,2.3577,2.1461,2.2689,0.0,2.1068,0.0,0.0,1.9928,0.0,0.0,0.0,0.0,0.0,1.6522,1.6734,1.629,1.5449,1.5889,1.569,0.0,0.0,1.5395,1.436,1.4953,1.4863,1.4495,1.4863,1.5135,1.548,1.5564,1.5449,1.518,1.4004,1.3673,1.3528,1.2519,1.2231,1.17,0.975,0.9221,0.8376,0.0,0.0,0.0,0.0,0.0,0.0,0.0,0.0,0.0,0.0,0.0,0.0,0.0,0.0,0.0,0.0,0.0,0.0,0.0,0.0,-0.5075,-0.5256,-0.5297,-0.5382,-0.5596,0.0,0.0,-0.6027,-0.6356,-0.6583,-0.6698,-0.6851,-0.7,-0.7139,-0.7061,-0.7065,-0.7139,-0.7102,-0.7105,-0.7139,-0.7139,-0.7139,-0.7156,-0.7387,-0.7529,-0.7621,-0.7841,-0.7974,-0.8038,-0.8038,-0.8038,-0.8038,1.7958,0.0,0.0,1.8924,0.0,0.0,2.1722,0.0,0.0,2.4677,2.4885,0.0,2.5804,2.5522,2.4764,2.3258,2.2414,0.0,0.0,0.0,0.0,2.1129,2.2025,2.1939,2.0582,2.1357,0.0,2.0401,0.0,0.0,1.9548,0.0,0.0,0.0,0.0,1.7428,0.0,1.6365,1.6132,1.5818,1.5676,0.0,0.0,1.5214,1.4276,1.2915,1.3743,1.3947,1.3827,1.4206,1.4585,1.4878,1.4617,1.4522,1.4378,1.3382,1.3098,1.2879,1.1916,1.162,1.1168,0.914,0.8613,0.808,0.5867,0.4618,0.3837,0.0,0.0,0.0,0.0,0.0,0.0,0.0,0.0,0.0,0.0,0.0,0.0,0.0,0.0,0.0,0.0,0.0,-0.5142,-0.5142,-0.5197,-0.5355,0.0,0.0,0.0,-0.622,-0.6515,-0.6712,-0.68,-0.7014,-0.7129,-0.7139,-0.7139,-0.7139,-0.7139,-0.7139,-0.7139,-0.7139,-0.7139,-0.7139,-0.716,-0.74,-0.7539,-0.7631,-0.7926,-0.8038,-0.8038,-0.8038,-0.8038,-0.8038,0.0,0.0,0.0,0.0,0.0,0.0,0.0,2.1203,0.0,2.4047,0.0,2.4908,2.4802,2.4791,2.4188,0.0,0.0,2.1785,2.1652,2.0864,2.0462,2.059,2.0102,1.9605,1.911,1.9017,0.0,0.0,0.0,0.0,0.0,0.0,0.0,0.0,0.0,0.0,0.0,1.5977,1.578,0.0,1.5142,1.472,1.4533,1.4382,1.3252,1.1796,1.2615,1.2976,1.326,1.405,1.4308,1.4119,1.3648,1.3528,1.3382,1.2519,1.2305,1.2077,1.1087,1.0783,1.0335,0.8309,0.7783,0.7561,0.6507,0.4616,0.3521,0.5123,0.2594,0.0236,0.0,0.0,0.0,0.0,0.0,0.0,0.0,0.0,0.0,0.0,0.0,0.0,0.0,0.0,-0.5017,-0.5017,-0.5191,-0.5377,0.0,0.0,0.0,-0.6464,-0.6729,0.0,-0.6956,0.0,-0.7265,-0.717,-0.7149,-0.7139,-0.7139,-0.7139,-0.7139,-0.7139,-0.7139,-0.7149,-0.7183,-0.7336,-0.7502,-0.7682,-0.794,-0.8038,-0.8038,-0.8038,-0.8038,-0.8038,0.0,0.0,0.0,0.0,0.0,2.0401,2.0605,2.1857,2.3179,2.4089,2.3864,0.0,2.3762,2.3734,2.3022,2.13,2.108,0.0,0.0,0.0,0.0,2.059,2.0501,2.0411,2.0333,2.0736,2.0463,0.0,0.0,0.0,0.0,0.0,0.0,0.0,0.0,0.0,1.548,1.4925,0.0,1.3936,1.4177,1.3607,1.2827,1.4004,1.3086,1.1283,1.2372,1.2333,1.1798,1.2228,1.252,1.2663,1.2572,1.2519,1.2519,1.2378,1.2305,1.2077,1.1087,1.0783,1.0335,0.8309,0.7783,0.7561,0.6518,0.4621,0.2735,0.1412,0.055,0.0079,0.0236,0.0,0.0,0.0,0.0,0.0,0.0,0.0,0.0,0.0,0.0,0.0,0.0,0.0,0.0,0.0,0.0,0.0,0.0,0.0,0.0,0.0,0.0,0.0,0.0,0.0,-0.7115,-0.7329,-0.72,-0.7139,-0.7139,-0.7139,-0.7139,-0.7139,-0.7139,-0.7214,-0.7343,-0.7495,-0.7719,-0.7967,-0.8021,-0.8038,-0.8038,-0.8038,-0.8038,-0.8038,0.0,0.0,0.0,0.0,0.0,0.0,0.0,2.2257,0.0,2.3645,2.2878,2.241,2.2723,2.2559,2.1869,2.0429,1.99,1.9454,1.895,1.8718,1.8787,1.9243,1.9233,0.0,1.9233,1.9288,1.9185,1.8937,0.0,0.0,0.0,0.0,0.0,0.0,0.0,1.5992,0.0,0.0,0.0,1.4085,1.3585,1.3109,1.2796,1.287,1.2194,1.1323,1.2033,1.2005,1.1677,1.1824,1.2058,1.2305,1.2305,1.2305,1.2305,1.2305,1.2305,1.2003,1.0421,1.004,0.9518,0.7553,0.7022,0.6898,0.6386,0.4661,0.251,0.0399,-0.0,-0.0,-0.0,-0.0,0.0,0.0,0.0,0.0,0.0,0.0,0.0,0.0,0.0,0.0,0.0,0.0,0.0,0.0,0.0,0.0,0.0,0.0,0.0,0.0,0.0,0.0,0.0,0.0,0.0,-0.7251,-0.7177,-0.7139,-0.7139,-0.7139,-0.7139,-0.7146,-0.7224,-0.7302,-0.739,-0.7614,-0.7838,-0.8038,-0.8038,-0.8038,-0.8038,-0.8038,-0.8038,-0.8038,0.0,1.8313,0.0,0.0,2.0282,0.0,0.0,2.2398,2.2972,2.2971,2.2102,2.1569,2.1725,2.1424,2.089,1.9997,1.9297,1.8828,1.8582,1.833,1.8105,1.8018,1.8008,1.8008,1.8008,1.7686,1.7764,0.0,0.0,0.0,0.0,0.0,0.0,0.0,0.0,0.0,0.0,0.0,1.4214,1.4101,1.2983,1.2698,1.2895,1.1949,1.157,1.1557,1.1857,1.1964,1.1964,1.1964,1.2118,1.2305,1.2305,1.2305,1.2305,1.2305,1.2305,1.1929,1.0121,0.9448,0.8846,0.7099,0.6514,0.6342,0.6324,0.4816,0.2789,0.0489,-0.0,-0.0,-0.0,-0.0,0.0,0.0,0.0,0.0,0.0,0.0,0.0,0.0,0.0,0.0,0.0,0.0,0.0,0.0,0.0,0.0,0.0,0.0,0.0,0.0,0.0,-0.6963,-0.7139,0.0,-0.7278,0.0,-0.7156,-0.7139,-0.7139,-0.7139,-0.7139,-0.7149,-0.7305,-0.7407,-0.7485,-0.775,-0.7929,-0.8038,-0.8038,-0.8038,-0.8038,-0.8038,-0.8038,-0.8038,0.0,0.0,0.0,0.0,0.0,0.0,0.0,2.2359,2.2402,2.2099,2.1942,2.1568,2.079,2.0672,2.0495,1.9951,1.9844,1.9463,1.8621,1.8533,1.8408,1.8027,1.8008,1.8008,1.8008,1.7969,1.7987,0.0,0.0,0.0,0.0,0.0,0.0,0.0,0.0,0.0,0.0,1.4088,1.3524,1.2152,1.1999,1.1986,1.2033,1.2204,1.2058,1.1864,1.2158,1.2265,1.2265,1.2265,1.2278,1.2305,1.2305,1.2305,1.2305,1.2305,1.2305,1.2077,1.0938,0.997,0.9069,0.7931,0.7055,0.6461,0.6582,0.5423,0.3571,0.0584,-0.0,-0.0,-0.0,-0.0,-0.0,0.0,0.0,0.0,0.0,0.0,0.0,0.0,0.0,0.0,0.0,0.0,0.0,0.0,0.0,0.0,0.0,0.0,0.0,-0.6273,0.0,-0.6858,-0.7136,-0.7153,0.0,-0.735,-0.7207,-0.7139,-0.7139,-0.7139,-0.7139,-0.7149,-0.7305,-0.7522,-0.7784,-0.795,-0.8028,-0.8038,-0.8038,-0.8038,-0.8038,-0.8038,-0.8038,-0.8038,0.0,0.0,0.0,0.0,0.0,0.0,0.0,2.2167,2.1649,2.1248,2.1374,2.126,2.0635,2.0332,2.0098,1.9932,1.9443,1.9004,1.8592,1.8398,1.8184,1.8018,1.8008,1.8008,1.8008,1.8008,1.8006,0.0,0.0,0.0,0.0,0.0,0.0,0.0,0.0,1.5308,1.4111,1.3973,1.3237,1.2131,1.2131,1.2131,1.2144,1.2258,1.2231,1.2144,1.2258,1.2305,1.2305,1.2305,1.2305,1.2305,1.2305,1.2305,1.2305,1.2305,1.2305,1.2077,1.1087,1.004,0.9069,0.8084,0.7144,0.6502,0.6702,0.6258,0.5555,0.4446,0.2,-0.0,-0.0,-0.0,-0.0,0.0,0.0,0.0,0.0,0.0,0.0,0.0,0.0,0.0,0.0,0.0,0.0,0.0,0.0,0.0,0.0,0.0,0.0,-0.6545,0.0,-0.6936,-0.7139,-0.7139,-0.717,-0.7231,-0.717,-0.7139,-0.7143,-0.7238,-0.7377,-0.7546,-0.7607,-0.7753,-0.7953,-0.8014,-0.8038,-0.8038,-0.8038,-0.8038,-0.8038,-0.8038,-0.8038,-0.8038,2.288,0.0,2.1412,0.0,2.2272,2.2262,2.296,2.212,2.1157,2.077,2.0484,2.0323,2.0229,1.9888,1.9793,2.0107,1.9434,1.8955,1.8838,1.8428,1.8135,1.8018,1.8008,0.0,1.7569,1.7579,1.7436,1.7142,1.6581,0.0,0.0,0.0,0.0,0.0,1.5154,1.4751,1.4074,1.3769,1.3164,1.2305,1.2305,1.2305,1.2305,1.2305,1.2305,1.2305,1.2305,1.2305,1.2305,1.2305,1.2305,1.2305,1.2305,1.2305,1.2224,1.1922,1.1848,1.1639,1.0651,0.964,0.8722,0.8069,0.7251,0.6583,0.6756,0.682,0.6708,0.6222,0.281,-0.0,-0.0,-0.0,-0.0,-0.0,0.0,0.0,0.0,0.0,0.0,0.0,0.0,-0.4801,-0.4876,0.0,0.0,0.0,0.0,0.0,0.0,0.0,0.0,0.0,0.0,0.0,0.0,-0.7119,-0.7139,-0.7139,-0.7139,-0.7163,-0.7214,-0.7366,-0.7577,-0.7811,-0.7811,-0.7896,-0.8038,-0.8038,-0.8038,-0.8038,-0.8038,-0.8038,-0.8038,-0.8038,-0.8038,-0.8038,2.2571,2.25,2.2627,2.3057,2.3125,2.3125,2.3135,2.212,2.1157,2.077,1.9419,1.8693,1.9324,1.9182,1.9432,2.0479,2.0156,1.9727,1.9307,1.8867,1.8447,0.0,0.0,1.7579,1.6636,1.6636,1.6149,1.5242,0.0,0.0,1.5239,0.0,1.4366,1.3445,1.4388,1.3903,1.2378,1.331,1.3164,1.2305,1.2305,1.2305,1.2305,1.2305,1.2305,1.2305,1.2305,1.2305,1.2305,1.2305,1.2305,1.2305,1.2305,1.2305,1.2077,1.1087,1.0789,1.0611,0.9777,0.8686,0.7867,0.8154,0.7428,0.6736,0.6892,0.7034,0.6419,0.4103,0.1667,-0.0,-0.0,-0.0,-0.0,-0.0,0.0,0.0,0.0,0.0,0.0,0.0,-0.3167,-0.306,-0.2766,0.0,0.0,0.0,0.0,0.0,0.0,0.0,0.0,-0.6592,-0.6783,0.0,-0.6929,-0.7068,-0.7139,-0.7139,-0.7139,-0.7221,-0.7373,-0.7529,-0.7675,-0.7811,-0.7811,-0.7896,-0.8038,-0.8038,-0.8038,-0.8038,-0.8038,-0.8038,-0.8038,-0.8038,-0.8038,-0.8038,2.4134,2.3428,2.2978,2.3115,2.3135,2.3135,2.3135,2.14,1.9991,1.9872,1.7846,1.6632,1.7416,1.7697,1.831,0.0,1.9062,1.8967,0.0,1.8877,1.8148,1.7088,1.707,1.6645,1.5658,1.5658,1.5517,1.5234,0.0,0.0,0.0,1.412,1.4136,1.3623,1.4785,1.4553,1.3237,1.36,1.3164,1.2305,1.2305,1.2305,1.2305,1.2305,1.2305,1.2305,1.2305,1.2432,1.2572,1.2371,1.2438,1.2565,1.2365,1.1848,1.1236,1.0858,1.0377,0.9797,0.9494,0.9145,0.9004,0.9142,0.8478,0.7804,0.8066,0.7563,0.6894,0.6174,0.413,0.2419,0.2492,0.1082,-0.0,-0.0,-0.0,0.0,0.0,0.0,0.0,0.0,0.0,0.2216,0.0,-0.4183,0.0,0.0,0.0,0.0,0.0,0.0,0.0,0.0,-0.6976,0.0,-0.7071,-0.7115,-0.7139,-0.7143,-0.7248,-0.7428,-0.7672,-0.7723,-0.7824,-0.7967,-0.7967,-0.7994,-0.8038,-0.8038,-0.8038,-0.8038,-0.8038,-0.8528,-0.9217,-0.8333,-0.8531,-0.9217,2.4125,2.3551,2.3135,2.3135,2.3135,2.296,2.2492,2.0764,1.9314,1.8864,1.6849,1.5593,1.6102,1.6201,0.0,1.8238,1.8353,1.8492,1.8928,1.8894,1.8247,1.6881,1.6801,1.6157,1.4673,0.0,0.0,1.4091,1.3621,1.3113,1.2536,1.3507,1.3683,1.3431,1.4208,1.4044,1.3171,1.3171,1.2806,1.2305,1.2305,1.2371,1.2472,1.2472,1.2538,1.2645,1.2645,1.2759,1.2893,1.2705,1.2766,1.2809,1.2228,1.1246,1.0383,1.0293,0.9591,0.882,0.8465,0.8383,0.8586,0.9227,0.8895,0.8484,0.8756,0.8297,0.7602,0.7173,0.5937,0.4903,0.4957,0.3621,0.2208,0.1296,0.1192,0.1175,0.1173,0.0,0.0,0.0,0.0,0.0,0.0,-0.1456,0.0,0.0,0.0,0.0,0.0,0.0,0.0,-0.6847,-0.6987,0.0,-0.7064,-0.7064,-0.7177,-0.7227,-0.7438,-0.7634,-0.7814,-0.7872,-0.795,-0.8038,-0.8038,-0.8038,-0.8038,-0.8038,-0.8038,-0.8038,-0.8038,-0.8531,-0.9118,-0.8333,-0.8531,-0.9118,2.3135,2.3135,0.0,0.0,2.3047,0.0,2.1471,2.0215,1.8948,1.787,1.633,1.5418,1.5398,1.491,1.5219,1.695,0.0,0.0,0.0,1.8798,1.8458,1.709,1.6982,1.5914,1.371,1.3608,1.3171,1.2305,1.2579,1.2802,1.2829,1.3066,1.306,1.2856,1.2876,1.2645,1.2365,1.2365,1.2365,1.2365,1.2365,1.2532,1.2856,1.2856,1.2959,1.3213,1.3213,1.3227,1.3233,1.322,1.3227,1.3074,1.1982,1.0767,0.9766,0.9326,0.8631,0.7709,0.6905,0.6791,0.7115,0.8525,0.8832,0.8841,0.9022,0.8978,0.8548,0.7429,0.717,0.7136,0.7104,0.6861,0.5936,0.3747,0.3335,0.3359,0.3359,0.0,0.0,0.0,0.0,0.0,0.0,0.2588,0.0157,0.0,0.0,0.0,0.0,0.0,-0.6688,-0.6787,-0.6832,-0.6815,-0.6815,-0.6996,-0.7244,-0.739,-0.7675,-0.7818,-0.7831,-0.7974,-0.8038,-0.8038,-0.8038,-0.8038,-0.8038,-0.8038,-0.8038,-0.8038,-0.8038,-0.8038,-0.8137,-0.8038,-0.8038,-0.8137,0.0,0.0,2.3135,2.3135,2.2306,2.1658,2.1382,1.9488,1.8048,1.7777,1.6511,1.5645,1.5424,1.5271,1.5244,1.5556,1.6004,1.6636,1.7371,1.7327,1.6715,1.5302,1.5044,1.4351,1.3017,1.2783,1.2519,1.2305,1.2371,1.2525,1.2829,1.3066,1.3173,1.3113,1.3333,1.3267,1.2999,1.2999,1.2999,1.2999,1.2999,1.3039,1.31,1.31,1.3146,1.3213,1.3213,1.3353,1.3507,1.3287,1.336,1.3419,1.2948,1.2105,1.0834,0.9011,0.7748,0.698,0.6774,0.7366,0.8147,0.8653,0.9429,1.0201,1.0168,0.9492,0.8807,0.8548,0.776,0.7139,0.7109,0.6898,0.6542,0.5912,0.5639,0.5575,0.5575,0.555,0.0,0.0,0.5541,0.578,0.6244,0.3921,0.1734,0.0,0.0,0.0,0.0,-0.5362,-0.5235,-0.6956,-0.5354,-0.4465,-0.4465,-0.6177,-0.7208,-0.7546,-0.7726,-0.7872,-0.7987,-0.8024,-0.8038,-0.8038,-0.8038,-0.8038,-0.8038,-0.8038,-0.8038,-0.8038,-0.8038,-0.8627,-0.941,-0.8333,-0.8627,-0.941,2.2403,2.2306,2.212,2.1587,2.0944,2.0305,1.9761,1.8503,1.7505,1.6943,1.6204,1.5765,1.5611,1.5478,1.5384,1.5357,1.5712,1.6088,1.6589,1.6831,1.6397,1.4963,1.4777,1.4091,1.2829,1.2585,1.2438,1.2305,1.2438,1.2659,1.2966,1.3267,1.3407,1.3414,1.3574,1.348,1.3213,1.3213,1.3213,1.3213,1.3213,1.3287,1.3407,1.3407,1.3494,1.3614,1.3614,1.3714,1.3821,1.3661,1.3714,1.3732,1.2978,1.2343,1.1531,0.9809,0.8522,0.7465,0.6968,0.7247,0.7966,0.8652,1.0091,1.1123,1.0096,0.9749,0.9405,0.8277,0.7577,0.7139,0.7139,0.6905,0.6709,0.6625,0.6468,0.6281,0.6281,0.6335,0.0,0.6376,0.6369,0.6403,0.6414,0.4405,0.2245,0.0165,0.0,0.0,-0.3741,-0.3726,-0.4665,-0.7025,-0.5838,-0.4768,-0.3803,-0.6187,-0.7543,-0.7699,-0.7845,-0.796,-0.8038,-0.8038,-0.8038,-0.8038,-0.8038,-0.8038,-0.8038,-0.8038,-0.8038,-0.8038,-0.8038,-0.8432,-0.9019,-0.8233,-0.8432,-0.9019,2.1302,2.1025,2.0666,1.967,1.9314,1.8864,1.787,1.7505,1.7037,1.592,1.5832,1.5832,1.5832,1.5611,1.5565,1.5805,1.5887,1.5972,1.5928,1.6544,1.6366,1.5146,1.5087,1.4388,1.2903,1.2802,1.2552,1.2305,1.2681,1.2906,1.322,1.3507,1.3667,1.3707,1.3707,1.3574,1.334,1.334,1.334,1.334,1.334,1.3487,1.3707,1.3707,1.3868,1.4088,1.4088,1.4088,1.4088,1.4088,1.4088,1.3913,1.2857,1.253,1.223,1.1155,1.0047,0.8985,0.7554,0.7135,0.7404,0.8627,1.0351,1.1295,0.9579,0.9749,0.9744,0.7749,0.721,0.7109,0.7109,0.6865,0.6675,0.6698,0.6454,0.6345,0.6288,0.0,0.6441,0.6441,0.6461,0.6532,0.6589,0.4769,0.2547,0.0168,-0.0,-0.0,0.0,-0.1959,-0.3967,-0.5975,-0.6786,-0.6367,-0.461,-0.6709,-0.7814,-0.7814,-0.7967,-0.8038,-0.8038,-0.8038,-0.8038,-0.8038,-0.8038,-0.8038,-0.8038,-0.8038,-0.8038,-0.8038,-0.8038,-0.8038,-0.8038,-0.8038,-0.8038,-0.8038,2.0034,1.9761,1.9761,1.9488,1.868,1.7963,1.7692,1.6756,1.6015,1.5832,1.5832,1.5832,1.5832,1.5792,1.5778,1.5825,1.5656,1.5416,1.5164,1.5039,1.4737,1.4273,1.4015,1.3642,1.3146,1.2632,1.2351,1.2305,1.2681,1.2906,1.322,1.3507,1.3774,1.4015,1.4015,1.3995,1.3955,1.3955,1.3955,1.3955,1.3955,1.3975,1.4015,1.4015,1.4048,1.4088,1.4088,1.4088,1.4088,1.4088,1.4088,1.4088,1.3906,1.3795,1.3594,1.2407,1.1872,1.1241,0.9191,0.7822,0.7404,0.8627,0.9148,0.9579,1.0183,0.9753,0.9061,0.8715,0.7737,0.6963,0.6963,0.6712,0.6549,0.6678,0.6454,0.6302,0.6424,0.0,0.6295,0.6295,0.6334,0.6347,0.6384,0.5985,0.4227,0.0259,-0.0,-0.0,-0.0,-0.0359,-0.0724,-0.1104,-0.5466,-0.7688,-0.7421,-0.7801,-0.7931,-0.7814,-0.7967,-0.8038,-0.8038,-0.8038,-0.8038,-0.8038,-0.8038,-0.8038,-0.8038,-0.8038,-0.8038,-0.8038,-0.8038,-0.8038,-0.8038,-0.8038,-0.8038,-0.8038,1.8772,1.8503,1.8319,1.7669,1.703,1.6669,1.6669,1.6204,1.5832,1.5832,1.5832,1.5832,1.5832,1.5832,1.5832,1.5832,1.5705,1.5504,1.5217,1.4776,1.4456,1.4322,1.4041,1.3674,1.322,1.2772,1.2545,1.2545,1.2755,1.2986,1.3447,1.3499,1.3801,1.4088,1.4088,1.4088,1.4088,1.4088,1.4088,1.4088,1.4088,1.4088,1.4088,1.4088,1.4088,1.4088,1.4088,1.4088,1.4088,1.4088,1.4088,1.4088,1.4088,1.4088,1.3997,1.347,1.2334,1.1042,0.9323,0.8452,0.8017,0.7929,0.8452,0.889,0.8707,0.8798,0.8715,0.8105,0.7435,0.7044,0.7044,0.6865,0.6742,0.681,0.6569,0.0,0.0,0.6507,0.6424,0.6425,0.6505,0.6105,0.4957,0.5752,0.5637,0.398,0.1416,-0.0,-0.0,-0.0,-0.1284,-0.4175,-0.5263,-0.6549,-0.7946,-0.7952,-0.7946,-0.7936,-0.8007,-0.8038,-0.8038,-0.8038,-0.8038,-0.8038,-0.8038,-0.8038,-0.8038,-0.8038,-0.8038,-0.8038,-0.8038,-0.8038,-0.8038,-0.8038,-0.8038,-0.8038,1.7498,1.7225,1.6943,1.6015,1.5832,1.5832,1.5832,1.5832,1.5832,1.5832,1.5832,1.5832,1.5832,1.5832,1.5832,1.5832,1.5832,1.5732,1.5511,1.495,1.4596,1.4522,1.4175,1.3741,1.322,1.2973,1.2896,1.2822,1.2886,1.3193,1.3559,1.3714,1.3868,1.4088,1.4088,1.4088,1.4088,1.4088,1.4088,1.4088,1.4088,1.4088,1.4088,1.4088,1.4088,1.4088,1.4088,1.3913,1.3646,1.3646,1.347,1.33,1.33,1.33,1.33,1.33,1.1997,1.0351,0.9235,0.889,0.8627,0.7401,0.7757,0.8201,0.7323,0.7852,0.8204,0.7326,0.7126,0.7102,0.7099,0.698,0.6895,0.6922,0.0,0.0,0.0,0.6569,0.6603,0.6636,0.6605,0.6023,0.4339,0.4586,0.5041,0.5397,0.2066,-0.0,-0.0,-0.0,-0.2417,-0.7861,-0.6,-0.5879,-0.7949,-0.7977,-0.8038,-0.8038,-0.8038,-0.8038,-0.8038,-0.8038,-0.8038,-0.8038,-0.8038,-0.8038,-0.8038,-0.8038,-0.8038,-0.8038,-0.8038,-0.8038,-0.8038,-0.8038,-0.8038,-0.8038,1.6197,1.592,1.592,1.5825,1.5832,1.5832,1.5832,1.5832,1.5832,1.5832,1.5832,1.5832,1.5832,1.5832,1.5832,1.5832,1.5832,1.5818,1.5798,1.5257,1.481,1.4529,1.3981,1.3527,1.322,1.3186,1.3033,1.2822,1.3307,1.3601,1.3654,1.3928,1.4068,1.4088,1.4088,1.4088,1.4088,1.4088,1.4088,1.4088,1.4088,1.4088,1.4088,1.4088,1.4088,1.4088,1.4088,1.3379,1.2413,1.2413,1.1729,1.0869,1.0869,1.0869,1.0869,1.0869,1.0697,1.0351,0.9235,0.889,0.8627,0.7401,0.7156,0.717,0.7081,0.718,0.7187,0.7098,0.7088,0.7076,0.7142,0.6932,0.679,0.6909,0.0,0.0,0.6875,0.6706,0.6636,0.6562,0.6443,0.6279,0.6121,0.266,0.0448,0.0539,0.018,-0.0,-0.0,-0.0,-0.2446,-0.7858,-0.7778,-0.7771,-0.8046,-0.7977,-0.8038,-0.8038,-0.8038,-0.8038,-0.8038,-0.8038,-0.8038,-0.8038,-0.8038,-0.8038,-0.8038,-0.8038,-0.8038,-0.8038,-0.8038,-0.8038,-0.8038,-0.8038,-0.8038,-0.8038,1.592,1.5832,1.5832,1.5832,1.5832,1.5832,1.5832,1.5832,1.5832,1.5832,1.5832,1.5832,1.5832,1.5832,1.5832,1.5832,1.5832,1.5752,1.5571,1.4699,1.4205,1.4275,1.4035,1.3781,1.3487,1.348,1.342,1.33,1.3534,1.3741,1.3921,1.4035,1.4088,1.4088,1.4088,1.4088,1.4088,1.4088,1.4088,1.4088,1.4088,1.4088,1.4088,1.4088,1.4088,1.3997,1.3294,1.2674,1.2151,1.1466,1.095,1.0611,1.0611,1.0611,1.0611,1.0611,1.0611,1.0351,0.9235,0.889,0.8627,0.7401,0.7068,0.7084,0.7084,0.6,0.4919,0.4919,0.4891,0.4951,0.4946,0.6069,0.7034,0.6994,0.0,0.6977,0.7022,0.6827,0.6092,0.4617,0.3191,0.2356,0.2393,0.0984,-0.0,-0.0,-0.0,-0.0,-0.0,-0.0,-0.0935,-0.2984,-0.6263,-0.8032,-0.7987,-0.8021,-0.8038,-0.8038,-0.8038,-0.8038,-0.8038,-0.8038,-0.8038,-0.8038,-0.8038,-0.8038,-0.8038,-0.8038,-0.8038,-0.8038,-0.8038,-0.8038,-0.8038,-0.8038,-0.8038,-0.8038,1.5832,1.5832,1.5832,1.5832,1.5832,1.5832,1.5832,1.5832,1.5832,1.5832,1.5832,1.5832,1.5832,1.5832,1.5832,1.5832,1.5439,1.5126,1.4849,1.3632,1.2936,1.3194,1.3089,1.2825,1.2554,1.2628,1.2634,1.2548,1.2972,1.3278,1.3555,1.3913,1.4088,1.4088,1.4088,1.4088,1.4088,1.4088,1.4088,1.4088,1.4088,1.4088,1.4088,1.4088,1.4088,1.3913,1.276,1.2072,1.1552,1.0438,0.9831,0.9483,0.9483,0.9483,0.9584,0.9993,0.9791,0.9396,0.8973,0.8627,0.8101,0.7316,0.7071,0.6907,0.6177,0.42,0.2503,0.2503,0.2503,0.2502,0.2499,0.3755,0.5107,0.5916,0.6028,0.597,0.6043,0.6509,0.6236,0.4555,0.1752,-0.0,-0.0,-0.0,-0.0,-0.0,-0.0,-0.0,-0.0,-0.0,-0.0,-0.0,-0.3608,-0.5869,-0.6745,-0.755,-0.8045,-0.8038,-0.8038,-0.8038,-0.8038,-0.8038,-0.8038,-0.8038,-0.8038,-0.8038,-0.8038,-0.8038,-0.8038,-0.8038,-0.8038,-0.8038,-0.8038,-0.8038,-0.8038,-0.8038,1.5832,1.5832,1.5832,1.5832,1.5832,1.5832,1.5832,1.5825,1.5825,1.5832,1.5825,1.5825,1.5825,1.5825,1.5737,1.5737,1.4657,1.3868,1.3713,1.201,1.1122,1.1028,1.0727,1.0509,1.0208,1.0499,1.0504,1.0203,1.1606,1.2322,1.2328,1.347,1.4088,1.4088,1.4088,1.4088,1.4088,1.4088,1.4088,1.4088,1.4088,1.4088,1.4088,1.4088,1.4088,1.3913,1.2681,1.1552,1.0438,0.9235,0.8105,0.7139,0.7143,0.7143,0.7344,0.8653,0.8139,0.7404,0.854,0.8017,0.7139,0.7139,0.7078,0.6462,0.4109,0.1701,-0.0,-0.0,-0.0,-0.0,-0.0,-0.0,0.0805,0.3213,0.357,0.357,0.357,0.5568,0.7045,0.7135,0.2966,-0.0,-0.0,-0.0,-0.0,-0.0,-0.0,-0.0,-0.0,-0.0,-0.0,-0.0,-0.0,-0.1281,-0.4014,-0.6645,-0.7962,-0.8038,-0.8038,-0.8038,-0.8038,-0.8038,-0.8038,-0.8038,-0.8038,-0.8038,-0.8038,-0.8038,-0.8038,-0.8038,-0.8038,-0.8038,-0.8038,-0.8038,-0.8038,-0.8038,1.5832,1.5832,1.5832,1.5832,1.5832,1.5832,1.5832,1.5045,1.4758,1.5635,1.5045,1.4459,1.4459,1.4459,1.4076,1.3113,1.2721,1.197,1.0836,0.9979,0.9143,0.8347,0.9777,1.058,1.0514,1.0575,1.0575,1.0514,1.0919,1.1123,1.1128,1.1477,1.2083,1.2851,1.2851,1.3294,1.4088,1.4088,1.4088,1.4088,1.4088,1.4088,1.4088,1.4088,1.3561,1.2681,1.1558,1.0351,0.9231,0.8013,0.7401,0.716,0.7268,0.7227,0.717,0.7768,0.7524,0.7139,0.7577,0.7404,0.7139,0.7139,0.7078,0.6462,0.4109,0.1701,-0.0,-0.0,-0.0,-0.0,-0.0,-0.0,0.0273,0.0988,0.1088,0.1092,0.1074,0.1699,0.3317,0.6678,0.5858,0.3687,0.0359,-0.0,-0.0,-0.0,-0.0,-0.0,-0.0,-0.0,-0.0,-0.0,-0.0,-0.1284,-0.4014,-0.6645,-0.7962,-0.8038,-0.8038,-0.8038,-0.8038,-0.8038,-0.8038,-0.8038,-0.8038,-0.8038,-0.8038,-0.8038,-0.8038,-0.8038,-0.8038,-0.8038,-0.8038,-0.8038,-0.8038,-0.8038,1.5832,1.5832,1.5832,1.5832,1.5832,1.5832,1.5832,1.4752,1.4166,1.4949,1.3878,1.3102,1.3102,1.3102,1.2818,1.1945,1.1303,1.0301,0.8794,0.8341,0.7841,0.7139,0.8444,0.9226,0.9226,0.9226,0.9226,0.9226,0.9662,0.9923,0.9923,1.0351,1.095,1.1638,1.1638,1.1992,1.2778,1.3209,1.3379,1.347,1.3906,1.4088,1.4088,1.4088,1.3379,1.2151,1.1042,0.9836,0.8715,0.7489,0.7139,0.7177,0.7394,0.7312,0.7193,0.7465,0.7397,0.7231,0.7231,0.7231,0.7217,0.7156,0.7074,0.6548,0.4554,0.2789,0.127,0.0182,-0.0,-0.0,-0.0,-0.0,-0.0,-0.0,-0.1542,-0.2821,-0.2782,-0.1967,-0.0,0.3857,0.431,0.3141,0.027,-0.0,-0.0,-0.0,-0.0,-0.0,-0.0,-0.0,-0.0,-0.0,-0.0,-0.1295,-0.4016,-0.6651,-0.7965,-0.8038,-0.8038,-0.8038,-0.8038,-0.8038,-0.8038,-0.8038,-0.8038,-0.8038,-0.8038,-0.8038,-0.8038,-0.8038,-0.8038,-0.8038,-0.8038,-0.8038,-0.8038,-0.8038,1.5832,1.5832,1.5832,1.5832,1.573,1.5635,1.5635,1.4459,1.3584,1.3686,1.2522,1.175,1.175,1.175,1.1648,1.1531,1.0184,0.879,0.7471,0.7224,0.7139,0.7139,0.7153,0.7163,0.7163,0.7146,0.7139,0.7139,0.8193,0.8715,0.8803,0.9836,1.0351,1.0438,1.0438,1.0524,1.0697,1.1724,1.2151,1.2242,1.33,1.3822,1.3822,1.3822,1.3033,1.1895,1.0783,0.9753,0.8544,0.7507,0.7149,0.7193,0.7502,0.7397,0.7244,0.7668,0.76,0.7394,0.7394,0.7394,0.7356,0.72,0.7098,0.6754,0.5377,0.4637,0.3597,0.1202,0.0376,-0.0,-0.0,-0.0,-0.0184,-0.0634,-0.4334,-0.7065,-0.7062,-0.5297,-0.3126,-0.0894,-0.0447,-0.0358,-0.0359,-0.009,-0.0,-0.0,-0.0,-0.0,-0.0,-0.0,-0.0,-0.0,-0.05,-0.1813,-0.4016,-0.6653,-0.7972,-0.8038,-0.8038,-0.8038,-0.8038,-0.8038,-0.8038,-0.8038,-0.8038,-0.8038,-0.8038,-0.8038,-0.8038,-0.8038,-0.8038,-0.8038,-0.8038,-0.8038,-0.8031,-0.8018,1.5832,1.5832,1.5832,1.5832,1.4949,1.4268,1.4268,1.2323,1.1165,1.2231,1.1165,1.0386,1.0386,1.0386,0.9938,0.8829,0.8146,0.7766,0.7464,0.7224,0.7139,0.7139,0.7255,0.7322,0.7322,0.7204,0.7139,0.7139,0.7404,0.7489,0.7489,0.7749,0.836,0.9235,0.9235,0.9753,1.0611,1.0864,1.095,1.0956,1.1214,1.1386,1.1386,1.1386,1.0611,0.9579,0.9323,0.8536,0.751,0.7368,0.7241,0.7193,0.7502,0.7472,0.7363,0.7584,0.76,0.755,0.755,0.755,0.7512,0.736,0.7414,0.7293,0.6734,0.6471,0.6441,0.6269,0.295,-0.0,-0.0,-0.0,-0.1419,-0.5581,-0.6728,-0.7119,-0.7103,-0.6625,-0.6189,-0.5649,-0.3933,-0.2856,-0.2858,-0.1073,-0.0,-0.0,-0.0,-0.0,-0.0,-0.0,-0.0,-0.0,-0.4034,-0.5555,-0.4016,-0.6648,-0.7965,-0.8038,-0.8038,-0.8038,-0.8038,-0.8038,-0.8038,-0.8038,-0.8038,-0.8038,-0.8038,-0.8038,-0.8038,-0.8038,-0.8038,-0.8038,-0.8038,-0.8038,-0.7963,-0.7862,1.5832,1.5337,1.4854,1.4854,1.3782,1.2915,1.2915,1.1263,1.0194,1.0877,0.9899,0.9019,0.9019,0.9019,0.8724,0.7825,0.757,0.7417,0.7272,0.7183,0.7139,0.7139,0.7217,0.7261,0.7261,0.718,0.7177,0.7251,0.7251,0.7214,0.7139,0.7139,0.7404,0.8017,0.8017,0.836,0.8965,0.9575,0.9749,0.9836,1.0351,1.0611,1.0611,1.0611,0.9923,0.889,0.889,0.8101,0.7153,0.7234,0.7255,0.7292,0.7526,0.7495,0.7431,0.7723,0.7709,0.7614,0.7682,0.7709,0.7583,0.7519,0.7456,0.7299,0.7161,0.7246,0.7384,0.7584,0.5572,0.3021,0.0478,-0.0,-0.0961,-0.3683,-0.598,-0.7369,-0.7333,-0.7292,-0.7215,-0.7201,-0.6173,-0.5433,-0.5532,-0.437,-0.3192,-0.199,-0.1932,-0.1865,-0.1883,-0.1902,-0.1913,-0.1913,-0.4636,-0.605,-0.5934,-0.726,-0.7962,-0.8038,-0.8038,-0.8038,-0.8038,-0.8038,-0.8038,-0.8038,-0.8038,-0.8038,-0.8038,-0.8038,-0.8038,-0.8038,-0.8038,-0.8038,-0.8031,-0.7957,-0.7838,-0.7729,1.5534,1.4657,1.3872,1.3584,1.2431,1.156,1.156,1.0485,0.9706,0.9706,0.8726,0.8038,0.8038,0.8018,0.7892,0.7624,0.7577,0.7441,0.7156,0.7139,0.7139,0.7139,0.7166,0.718,0.718,0.7207,0.7255,0.7333,0.7333,0.7265,0.7139,0.7139,0.7139,0.7139,0.7139,0.7139,0.7139,0.8189,0.8627,0.8715,0.9662,1.0005,1.0005,1.0005,0.9401,0.8627,0.8627,0.7929,0.7149,0.72,0.7288,0.7397,0.7553,0.7529,0.7516,0.7862,0.7828,0.7699,0.7818,0.7768,0.7748,0.7682,0.7393,0.7197,0.7143,0.7387,0.7277,0.6131,0.6315,0.5311,0.0775,-0.0,-0.0,-0.0,-0.3917,-0.7131,-0.7567,-0.7526,-0.7458,-0.7406,-0.7419,-0.7523,-0.7547,-0.7564,-0.6743,-0.4768,-0.4654,-0.4702,-0.4702,-0.4716,-0.4722,-0.4722,-0.4722,-0.5732,-0.7972,-0.7969,-0.7959,-0.8038,-0.8038,-0.8038,-0.8038,-0.8038,-0.8038,-0.8038,-0.8038,-0.8038,-0.8038,-0.8038,-0.8038,-0.8038,-0.8038,-0.8024,-0.798,-0.7801,-0.7678,-0.7634,1.4364,1.3974,1.3488,1.2334,1.1068,1.0293,1.0293,0.9118,0.8233,0.8233,0.8137,0.8038,0.8038,0.7923,0.7777,0.7614,0.7478,0.7329,0.7149,0.7139,0.7139,0.7139,0.7268,0.7339,0.7339,0.7468,0.7417,0.7173,0.7173,0.7163,0.7139,0.7139,0.7139,0.7139,0.7139,0.7139,0.7139,0.7316,0.7316,0.7316,0.7489,0.7577,0.7577,0.7577,0.7489,0.7316,0.7316,0.7228,0.718,0.7448,0.7465,0.7397,0.7553,0.7672,0.774,0.7678,0.7811,0.7984,0.8004,0.7925,0.7905,0.7751,0.7821,0.7697,0.7177,0.7177,0.6036,0.1805,0.1008,0.0907,0.01,-0.0,-0.0,-0.0,-0.2514,-0.5244,-0.7401,-0.758,-0.7577,-0.76,-0.76,-0.7604,-0.7607,-0.7634,-0.7553,-0.7263,-0.7318,-0.7504,-0.7504,-0.7415,-0.7475,-0.7475,-0.7466,-0.7666,-0.7972,-0.7952,-0.8041,-0.8038,-0.8038,-0.8038,-0.8038,-0.8038,-0.8038,-0.8038,-0.8038,-0.8038,-0.8038,-0.8038,-0.8038,-0.8038,-0.8038,-0.796,-0.7811,-0.7533,-0.7509,-0.7698,1.3006,1.2231,1.1551,1.0974,0.9805,0.8924,0.8924,0.8333,0.8038,0.8038,0.8038,0.8038,0.8038,0.798,0.7879,0.7729,0.7584,0.7468,0.74,0.7234,0.718,0.7265,0.7251,0.7241,0.7241,0.7309,0.7275,0.7139,0.7227,0.7224,0.7139,0.7139,0.7139,0.7139,0.7139,0.7139,0.7139,0.7139,0.7139,0.7139,0.7139,0.7139,0.7139,0.7139,0.7139,0.7139,0.7139,0.7251,0.7404,0.7455,0.7536,0.7628,0.7695,0.776,0.7818,0.7838,0.7879,0.7933,0.7932,0.7969,0.7656,0.6075,0.683,0.7908,0.764,0.7633,0.6132,0.1009,-0.0,-0.0,-0.0,-0.0,-0.0,-0.0,-0.3525,-0.6651,-0.7681,-0.7751,-0.7667,-0.7838,-0.7845,-0.7845,-0.7845,-0.7851,-0.7855,-0.7855,-0.7926,-0.797,-0.797,-0.8028,-0.7962,-0.7962,-0.7955,-0.7955,-0.7955,-0.8045,-0.8038,-0.8038,-0.8038,-0.8038,-0.8038,-0.8038,-0.8038,-0.8038,-0.8038,-0.8038,-0.8035,-0.7963,-0.8034,-0.8024,-0.7952,-0.7832,-0.7684,-0.7626,-0.7455,-0.7207]},{"header":{"parameterUnit":"m.s-1","parameterCategory":1,"la1":30.6,"la2":28.766,"lo1":-90.7593,"lo2":-88.6598,"dy":0.0162,"dx":0.0183,"nx":116,"ny":114,"refTime":"2023-05-20T00:00:00:Z","depth":0,"parameterNumber":3,"parameterNumberName":"V-component_of_WINDS"},"data":[0.0,0.0,0.0,0.0,0.0,0.0,0.0,0.0,0.0,0.0,0.0,0.0,0.0,0.0,0.0,0.0,0.0,0.0,0.0,0.0,0.0,0.0,0.0,0.0,0.0,0.0,0.0,0.0,0.0,0.0,0.0,0.0,0.0,0.0,0.0,0.0,0.0,0.0,0.0,0.0,0.0,0.0,0.0,0.0,0.0,0.0,0.0,0.0,0.0,0.0,0.0,0.0,0.0,0.0,0.0,0.0,0.0,0.0,0.0,0.0,0.0,0.0,0.0,0.0,0.0,0.0,0.0,0.0,0.0,0.0,0.0,0.0,0.0,0.0,0.0,0.0,0.0,0.0,0.0,0.0,0.0,0.0,0.0,0.0,0.0,0.0,0.0,0.0,0.0,0.0,0.0,0.0,0.0,0.0,0.0,0.0,0.0,0.0,0.0,0.0,0.0,0.0,0.0,0.0,0.0,0.0,0.0,0.0,0.0,0.0,0.0,0.0,0.0,0.0,0.0,0.0,0.0,0.0,0.0,0.0,0.0,0.0,0.0,0.0,0.0,0.0,0.0,0.0,0.0,0.0,0.0,0.0,0.0,0.0,0.0,0.0,0.0,0.0,0.0,0.0,0.0,0.0,0.0,0.0,0.0,0.0,0.0,0.0,0.0,0.0,0.0,0.0,0.0,0.0,0.0,0.0,0.0,0.0,0.0,0.0,0.0,0.0,0.0,0.0,0.0,0.0,0.0,0.0,0.0,0.0,0.0,0.0,0.0,0.0,0.0,0.0,0.0,0.0,0.0,0.0,0.0,0.0,0.0,0.0,0.0,0.0,0.0,0.0,0.0,0.0,0.0,0.0,0.0,0.0,0.0,0.0,0.0,0.0,0.0,0.0,0.0,0.0,0.0,0.0,0.0,0.0,0.0,0.0,0.0,0.0,0.0,0.0,0.0,0.0,0.0,0.0,0.0,0.0,0.0,0.0,0.0,0.0,0.0,0.0,0.0,0.0,0.0,0.0,0.0,0.0,0.0,0.0,0.0,0.0,0.0,0.0,0.0,0.0,0.0,0.0,0.0,0.0,0.0,0.0,0.0,0.0,0.0,0.0,0.0,0.0,0.0,0.0,0.0,0.0,0.0,0.0,0.0,0.0,0.0,0.0,0.0,0.0,0.0,0.0,0.0,0.0,0.0,0.0,0.0,0.0,0.0,0.0,0.0,0.0,0.0,0.0,0.0,0.0,0.0,0.0,0.0,0.0,0.0,0.0,0.0,0.0,0.0,0.0,0.0,0.0,0.0,0.0,0.0,0.0,0.0,0.0,0.0,0.0,0.0,0.0,0.0,0.0,0.0,0.0,0.0,0.0,0.0,0.0,0.0,0.0,0.0,0.0,0.0,0.0,0.0,0.0,0.0,0.0,0.0,0.0,0.0,0.0,0.0,0.0,0.0,0.0,0.0,0.0,0.0,0.0,0.0,0.0,0.0,0.0,0.0,0.0,0.0,0.0,0.0,0.0,0.0,0.0,0.0,0.0,0.0,0.0,0.0,0.0,0.0,0.0,0.0,0.0,0.0,0.0,0.0,0.0,0.0,0.0,0.0,0.0,0.0,0.0,0.0,0.0,0.0,0.0,0.0,0.0,0.0,0.0,0.0,0.0,0.0,0.0,0.0,0.0,0.0,0.0,0.0,0.0,0.0,0.0,0.0,0.0,0.0,0.0,0.0,0.0,0.0,0.0,0.0,0.0,0.0,0.0,0.0,0.0,0.0,0.0,0.0,0.0,0.0,0.0,0.0,0.0,0.0,0.0,0.0,0.0,0.0,0.0,0.0,0.0,0.0,0.0,0.0,0.0,0.0,0.0,0.0,0.0,0.0,0.0,0.0,0.0,0.0,0.0,0.0,0.0,0.0,0.0,0.0,0.0,0.0,0.0,0.0,0.0,0.0,0.0,0.0,0.0,0.0,0.0,0.0,0.0,0.0,0.0,0.0,0.0,0.0,0.0,0.0,0.0,0.0,0.0,0.0,0.0,0.0,0.0,0.0,0.0,0.0,0.0,0.0,0.0,0.0,0.0,0.0,0.0,0.0,0.0,0.0,0.0,0.0,0.0,0.0,0.0,0.0,0.0,0.0,0.0,0.0,0.0,0.0,0.0,0.0,0.0,0.0,0.0,0.0,0.0,0.0,0.0,0.0,0.0,0.0,0.0,0.0,0.0,0.0,0.0,0.0,0.0,0.0,0.0,0.0,0.0,0.0,0.0,0.0,0.0,0.0,0.0,0.0,0.0,0.0,0.0,0.0,0.0,0.0,0.0,0.0,0.0,0.0,0.0,0.0,0.0,0.0,0.0,0.0,0.0,0.0,0.0,0.0,0.0,0.0,0.0,0.0,0.0,0.0,0.0,0.0,0.0,0.0,0.0,0.0,0.0,0.0,0.0,0.0,0.0,0.0,0.0,0.0,0.0,0.0,0.0,0.0,0.0,0.0,0.0,0.0,0.0,0.0,0.0,0.0,0.0,0.0,0.0,0.0,0.0,0.0,0.0,0.0,0.0,0.0,0.0,0.0,0.0,0.0,0.0,0.0,0.0,0.0,0.0,0.0,0.0,0.0,0.0,0.0,0.0,0.0,0.0,0.0,0.0,0.0,0.0,0.0,0.0,0.0,0.0,0.0,0.0,0.0,0.0,0.0,0.0,0.0,0.0,0.0,0.0,0.0,0.0,0.0,0.0,0.0,0.0,0.0,0.0,0.0,0.0,0.0,0.0,0.0,0.0,0.0,0.0,0.0,0.0,0.0,0.0,0.0,0.0,0.0,0.0,0.0,0.0,0.0,0.0,0.0,0.0,0.0,0.0,0.0,0.0,0.0,0.0,0.0,0.0,0.0,0.0,0.0,0.0,0.0,0.0,0.0,0.0,0.0,0.0,0.0,0.0,0.0,0.0,0.0,0.0,0.0,0.0,0.0,0.0,0.0,0.0,0.0,0.0,0.0,0.0,0.0,0.0,0.0,0.0,0.0,0.0,0.0,0.0,0.0,0.0,0.0,0.0,0.0,0.0,0.0,0.0,0.0,0.0,0.0,0.0,0.0,0.0,0.0,0.0,0.0,0.0,0.0,0.0,0.0,0.0,0.0,0.0,0.0,0.0,0.0,0.0,0.0,0.0,0.0,0.0,0.0,0.0,0.0,0.0,0.0,0.0,0.0,0.0,0.0,0.0,0.0,0.0,0.0,0.0,0.0,0.0,0.0,0.0,0.0,0.0,0.0,0.0,0.0,0.0,0.0,0.0,0.0,0.0,0.0,0.0,0.0,0.0,0.0,0.0,0.0,0.0,0.0,0.0,0.0,0.0,0.0,0.0,0.0,0.0,0.0,0.0,0.0,0.0,0.0,0.0,0.0,0.0,0.0,0.0,0.0,0.0,0.0,0.0,0.0,0.0,0.0,0.0,0.0,0.0,0.0,0.0,0.0,0.0,0.0,0.0,0.0,0.0,0.0,0.0,0.0,0.0,0.0,0.0,0.0,0.0,0.0,0.0,0.0,0.0,0.0,0.0,0.0,0.0,0.0,0.0,0.0,0.0,0.0,0.0,0.0,0.0,0.0,0.0,0.0,0.0,0.0,0.0,0.0,0.0,0.0,0.0,0.0,0.0,0.0,0.0,0.0,0.0,0.0,0.0,0.0,0.0,0.0,0.0,0.0,0.0,0.0,0.0,0.0,0.0,0.0,0.0,0.0,0.0,0.0,0.0,0.0,0.0,0.0,0.0,0.0,0.0,0.0,0.0,0.0,0.0,0.0,0.0,0.0,0.0,0.0,0.0,0.0,0.0,0.0,0.0,0.0,0.0,0.0,0.0,0.0,0.0,0.0,0.0,0.0,0.0,0.0,0.0,0.0,0.0,0.0,0.0,0.0,0.0,0.0,0.0,0.0,0.0,0.0,0.0,0.0,0.0,0.0,0.0,0.0,0.0,0.0,0.0,0.0,0.0,0.0,0.0,0.0,0.0,0.0,0.0,0.0,0.0,0.0,0.0,0.0,0.0,0.0,0.0,0.0,0.0,0.0,0.0,0.0,0.0,0.0,0.0,0.0,0.0,0.0,0.0,0.0,0.0,0.0,0.0,0.0,0.0,0.0,0.0,0.0,0.0,0.0,0.0,0.0,0.0,0.0,0.0,0.0,0.0,0.0,0.0,0.0,0.0,0.0,0.0,0.0,0.0,0.0,0.0,0.0,0.0,0.0,0.0,0.0,0.0,0.0,0.0,0.0,0.0,0.0,0.0,0.0,0.0,0.0,0.0,0.0,0.0,0.0,0.0,0.0,0.0,0.0,0.0,0.0,0.0,0.0,0.0,0.0,0.0,0.0,0.0,0.0,0.0,0.0,0.0,0.0,0.0,0.0,0.0,0.0,0.0,0.0,0.0,0.0,0.0,0.0,0.0,0.0,0.0,0.0,0.0,0.0,0.0,0.0,0.0,0.0,0.0,0.0,0.0,0.0,0.0,0.0,0.0,0.0,0.0,0.0,0.0,0.0,0.0,0.0,0.0,0.0,0.0,0.0,0.0,0.0,0.0,0.0,0.0,0.0,0.0,0.0,0.0,0.0,0.0,0.0,0.0,0.0,0.0,0.0,0.0,0.0,0.0,0.0,0.0,0.0,0.0,0.0,0.0,0.0,0.0,0.0,0.0,0.0,0.0,0.0,0.0,0.0,0.0,0.0,0.0,0.0,0.0,0.0,0.0,0.0,0.0,0.0,0.0,0.0,0.0,0.0,0.0,0.0,0.0,0.0,0.0,0.0,0.0,0.0,0.0,0.0,0.0,0.0,0.0,0.0,0.0,0.0,0.0,0.0,0.0,0.0,0.0,0.0,0.0,0.0,0.0,0.0,0.0,0.0,0.0,0.0,0.0,0.0,0.0,0.0,0.0,0.0,0.0,0.0,0.0,0.0,0.0,0.0,0.0,0.0,0.0,0.0,0.0,0.0,0.0,0.0,0.0,0.0,0.0,0.0,0.0,0.0,0.0,0.0,0.0,0.0,0.0,0.0,0.0,0.0,0.0,0.0,0.0,0.0,0.0,0.0,0.0,0.0,0.0,0.0,0.0,0.0,0.0,0.0,0.0,0.0,0.0,0.0,0.0,0.0,0.0,0.0,0.0,0.0,0.0,0.0,0.0,0.0,0.0,0.0,0.0,0.0,0.0,0.0,0.0,0.0,0.0,0.0,0.0,0.0,0.0,0.0,0.0,0.0,0.0,0.0,0.0,0.0,0.0,0.0,0.0,0.0,0.0,0.0,0.0,0.0,0.0,0.0,0.0,0.0,0.0,0.0,0.0,0.0,0.0,0.0,0.0,0.0,0.0,0.0,0.0,0.0,0.0,0.0,0.0,0.0,0.0,0.0,0.0,0.0,0.0,0.0,0.0,0.0,0.0,0.0,0.0,0.0,0.0,0.0,0.0,0.0,0.0,0.0,0.0,0.0,0.0,0.0,0.0,0.0,0.0,0.0,0.0,0.0,0.0,0.0,0.0,0.0,0.0,0.0,0.0,0.0,0.0,0.0,0.0,0.0,0.0,0.0,0.0,0.0,0.0,0.0,0.0,0.0,0.0,0.0,0.0,0.0,0.0,0.0,0.0,0.0,0.0,0.0,0.0,0.0,0.0,0.0,0.0,0.0,0.0,0.0,0.0,0.0,0.0,0.0,0.0,0.0,0.0,0.0,0.0,0.0,0.0,0.0,0.0,0.0,0.0,0.0,0.0,0.0,0.0,0.0,0.0,0.0,0.0,0.0,0.0,0.0,0.0,0.0,0.0,0.0,0.0,0.0,0.0,0.0,0.0,0.0,0.0,0.0,0.0,0.0,0.0,0.0,0.0,0.0,0.0,0.0,0.0,0.0,0.0,0.0,0.0,0.0,0.0,0.0,0.0,0.0,0.0,0.0,0.0,0.0,0.0,0.0,0.0,0.0,0.0,0.0,0.0,0.0,0.0,0.0,0.0,0.0,0.0,0.0,0.0,0.0,0.0,0.0,0.0,0.0,0.0,0.0,0.0,0.0,0.0,0.0,0.0,0.0,0.0,0.0,0.0,0.0,0.0,0.0,0.0,0.0,0.0,0.0,0.0,-1.0185,0.0,0.0,0.0,0.0,0.0,0.0,0.0,0.0,0.0,0.0,0.0,0.0,0.0,0.0,0.0,0.0,0.0,0.0,0.0,0.0,0.0,0.0,0.0,0.0,0.0,0.0,0.0,0.0,0.0,0.0,0.0,0.0,0.0,0.0,0.0,0.0,0.0,0.0,0.0,0.4269,0.5022,0.5494,0.5703,0.4554,0.2208,0.0,0.0,0.0,0.0,0.0,0.0,0.0,0.0,0.0,0.0,0.0,0.0,0.0,0.0,0.0,0.0,0.0,0.0,0.0,0.0,0.0,0.0,0.0,0.0,0.0,0.0,0.0,0.0,0.0,0.0,0.0,0.0,0.0,0.0,0.0,0.0,0.0,0.0,0.0,0.0,0.0,0.0,0.0,0.0,0.0,0.0,0.0,0.0,0.0,0.0,0.0,0.0,0.0,0.0,0.0,0.0,0.0,0.0,0.0,0.0,0.0,0.0,0.0,0.0,0.0,0.0,0.0,0.0,0.0,0.0,0.0,-1.0122,0.0,0.0,0.0,0.0,0.0,0.0,0.0,0.0,0.0,0.0,0.0,0.0,0.0,0.0,0.0,0.0,0.0,0.0,0.0,0.0,0.0,0.0,0.0,0.0,0.0,0.0,0.0,0.0,0.0,0.0,0.0,0.0,0.0,0.0,0.0,0.0,0.0,0.0,0.4496,0.5779,0.6216,0.5974,0.5078,0.351,0.2573,0.0,0.0,0.0,0.0,0.0,0.0,0.0,0.0,0.0,0.0,0.0,0.0,0.0,0.0,0.0,0.0,0.0,0.0,0.0,0.0,0.0,0.0,0.0,0.0,0.0,0.0,0.0,0.0,0.0,0.0,0.0,0.0,0.0,0.0,0.0,0.0,0.0,0.0,0.0,0.0,0.0,0.0,0.0,0.0,0.0,0.0,0.0,0.0,0.0,0.0,0.0,0.0,0.0,0.0,0.0,0.0,0.0,0.0,0.0,0.0,0.0,0.0,0.0,0.0,-1.2782,-1.2322,-1.3233,-1.3316,-1.2556,-1.0815,-1.0479,-1.097,0.0,0.0,0.0,0.0,0.0,0.0,0.0,0.0,0.0,0.0,0.0,0.0,0.0,0.0,0.0,0.0,0.0,0.0,0.0,0.0,0.0,0.0,0.0,0.5008,0.4921,0.4921,0.4972,0.0,0.0,0.0,0.0,0.0,0.0,0.0,0.4484,0.4032,0.3573,0.5534,0.6517,0.6609,0.5916,0.5866,0.621,0.5667,0.4226,0.2231,0.0,0.0,0.0,0.0,0.0,0.0,0.0,0.0,0.0,0.0,0.0,0.0,0.0,0.0,0.0,0.0,0.0,0.0,0.0,0.0,0.0,0.0,0.0,0.0,0.0,0.0,0.0,0.0,0.0,0.0,0.0,0.0,0.0,0.0,0.0,0.0,0.0,0.0,0.0,0.0,0.0,-0.8687,-0.8398,0.0,0.0,0.0,0.0,0.0,0.0,0.0,0.0,0.0,0.0,0.0,0.0,0.0,0.0,-1.3208,-1.2931,-1.2933,-1.3121,-1.3437,-1.3345,-1.3021,-1.3227,-1.336,-1.3457,-1.3146,0.0,-1.2172,-1.1571,0.0,0.0,0.0,0.0,0.0,0.0,0.0,0.0,0.0,0.0,0.0,0.0,0.0,0.0,0.0,0.0,0.0,0.0,0.0,0.0,0.0,0.528,0.5191,0.5191,0.5517,0.5597,0.5303,0.0,0.0,0.0,0.0,0.0,0.0,0.4872,0.4844,0.5275,0.6566,0.7191,0.7101,0.6872,0.6938,0.721,0.6921,0.5866,0.4266,0.4718,0.0,0.0,0.0,0.0,0.0,0.0,0.0,0.0,0.0,0.0,0.0,0.0,0.0,0.0,0.0,0.0,0.0,0.0,0.0,0.0,0.0,0.0,0.0,0.0,0.0,0.0,0.0,0.0,0.0,0.0,0.0,0.0,0.0,0.0,0.0,0.0,0.0,0.0,0.0,-0.7487,-0.7816,-0.7847,-0.7557,-0.716,0.0,0.0,0.0,0.0,0.0,0.0,0.0,0.0,0.0,-1.1717,-1.1775,-1.2308,-1.3502,-1.373,-1.3827,-1.3965,-1.4382,-1.4563,-1.4442,-1.4609,-1.475,-1.4863,-1.4696,-1.4296,-1.3838,-1.2765,-1.1955,-1.141,0.0,0.0,0.0,0.0,0.0,-1.2548,0.0,0.0,0.0,0.0,0.0,0.0,0.0,0.0,0.0,0.0,0.0,0.0,0.6112,0.6355,0.6361,0.6256,0.6684,0.659,0.5863,0.6011,0.0,0.0,0.0,0.5416,0.5502,0.5453,0.5871,0.677,0.7436,0.7685,0.7604,0.7756,0.7824,0.7821,0.7706,0.7098,0.6026,0.6155,0.5641,0.4914,0.0,0.0,0.0,0.0,0.0,0.0,0.0,0.0,0.0,0.0,0.0,0.0,0.0,0.0,0.0,0.0,0.0,0.0,0.0,0.0,0.0,0.0,0.0,0.0,0.0,0.0,0.0,0.0,0.0,0.0,0.0,0.0,0.0,0.0,0.0,0.0,0.0,-0.7466,-0.7651,-0.7765,-0.7531,-0.712,0.0,0.0,0.0,0.0,0.0,0.0,-1.1212,-1.1505,-1.2139,-1.2979,-1.2973,-1.341,-1.4342,-1.4421,-1.4597,-1.497,-1.5331,-1.5504,-1.5518,-1.5732,-1.5832,-1.5818,-1.5605,-1.5344,-1.4983,-1.3642,-1.2693,-1.2063,-1.1696,-1.1598,-1.1741,-1.1726,-1.2301,-1.3287,0.0,0.0,0.0,0.0,0.0,0.0,0.0,0.0,0.0,0.0,0.0,0.7105,0.8084,0.8874,0.9093,0.8637,0.852,0.7891,0.6356,0.6152,0.5997,0.5733,0.5655,0.571,0.5893,0.6467,0.7007,0.7681,0.7875,0.8089,0.8228,0.837,0.8438,0.8438,0.8428,0.7908,0.7088,0.6821,0.6612,0.6251,0.5902,0.0,0.0,0.0,0.0,0.0,0.0,0.0,0.0,0.0,0.0,0.0,0.0,0.0,0.0,0.0,0.0,0.0,0.0,0.0,0.0,0.0,0.0,0.0,0.0,0.0,0.0,0.0,0.0,0.0,0.0,0.0,0.0,0.0,0.0,0.0,0.0,0.0,0.0,-0.9252,-0.9092,0.0,0.0,0.0,0.0,-0.8724,-0.9165,-1.037,-1.278,-1.3271,-1.4216,-1.5617,-1.4624,-1.4881,-1.6547,-1.49,-1.479,-1.6179,-1.5932,-1.5805,-1.5805,-1.5818,-1.5832,-1.5832,-1.5812,-1.5645,-1.5284,-1.4108,-1.3512,-1.3413,-1.2906,-1.2859,-1.3086,-1.2792,-1.3404,-1.4256,0.0,0.0,0.0,0.0,0.0,0.0,0.0,0.0,0.0,0.6316,0.7121,0.8055,0.9179,1.0196,1.075,1.0627,1.0576,0.9815,0.7942,0.7793,0.7151,0.5913,0.5918,0.5988,0.6184,0.6771,0.7305,0.7687,0.8176,0.855,0.8699,0.8652,0.8628,0.8625,0.8526,0.8364,0.8036,0.7647,0.7132,0.6605,0.6343,0.5843,0.0,0.0,0.0,0.0,0.0,0.0,0.0,0.0,0.0,0.0,0.0,0.0,0.0,0.0,0.0,0.0,0.0,0.0,0.0,0.0,0.0,0.0,0.0,0.0,0.0,0.0,0.0,0.0,0.0,0.0,0.0,0.0,0.0,0.0,0.0,0.0,0.0,-0.8267,-0.8385,0.0,0.0,-0.8166,-0.8568,-0.9221,-1.1042,-1.2252,-1.26,-1.3639,-1.4061,-1.3705,-1.3234,-1.334,-1.3936,-1.334,-1.3701,-1.512,-1.4851,-1.5221,-1.6106,-1.5919,-1.5832,-1.5832,-1.5832,-1.5772,-1.5625,-1.5023,-1.4436,-1.3868,-1.3273,-1.2986,-1.2919,-1.3013,-1.3263,-1.3808,0.0,0.0,0.0,0.0,0.0,0.0,0.0,0.0,0.0,0.6759,0.7909,0.9131,1.0644,1.2024,1.2803,1.248,1.2288,1.1281,0.8993,0.8512,0.7671,0.6184,0.625,0.6375,0.662,0.7164,0.7717,0.8054,0.8555,0.8937,0.9086,0.8984,0.8937,0.8933,0.8832,0.8757,0.8686,0.834,0.7774,0.708,0.6802,0.6165,0.5313,0.0,0.0,0.0,0.0,0.0,0.0,0.0,0.0,0.0,0.0,0.0,0.0,0.0,0.0,0.0,0.0,0.0,0.0,0.0,0.0,0.0,0.0,0.0,0.0,0.0,0.0,0.0,0.0,0.0,0.0,0.0,0.0,0.0,0.0,0.0,-0.7916,-0.7967,-0.8326,-0.8431,-0.8085,-0.859,-0.9182,-0.9892,-1.1663,-1.2715,-1.27,-1.3652,-1.3746,-1.2949,-1.238,-1.2269,-1.2725,-1.2135,-1.2511,-1.3951,-1.3606,-1.3996,-1.4998,-1.4722,-1.46,-1.4594,-1.4994,-1.5146,-1.5229,-1.5431,-1.5144,-1.4469,-1.3881,-1.3527,-1.336,-1.3467,-1.3567,-1.3892,0.0,0.0,0.0,0.0,0.0,0.0,0.0,0.5018,0.5445,0.6835,0.8447,1.0376,1.2637,1.4387,1.5168,1.4427,1.3661,1.2112,0.9453,0.8459,0.751,0.6354,0.6554,0.6882,0.7243,0.7782,0.8355,0.873,0.9025,0.9245,0.9395,0.9391,0.9388,0.9388,0.9384,0.93,0.915,0.9011,0.8523,0.7818,0.7233,0.675,0.6231,0.0,0.0,0.0,0.0,0.0,0.0,0.0,0.0,0.0,0.0,0.0,0.0,0.0,0.0,0.0,0.0,0.0,0.0,0.0,0.0,0.0,0.0,0.0,0.0,0.0,0.0,0.0,0.0,0.0,0.0,0.0,0.0,0.0,-0.7177,-0.7943,-0.8564,-0.8726,-0.8998,-0.9117,-0.8974,-0.8821,-0.9262,-1.0539,-1.0799,-1.1634,-1.3058,-1.3164,-1.3276,-1.3401,-1.1939,-1.1842,-1.3171,-1.1469,-1.1372,-1.273,-1.2516,-1.2412,-1.2402,-1.2274,-1.2169,-1.2253,-1.3402,-1.3872,-1.3974,-1.5242,-1.5571,-1.5351,-1.477,-1.4536,-1.4489,-1.4215,-1.4295,-1.4783,0.0,0.0,0.0,0.0,0.0,0.0,0.0,0.4626,0.5126,0.7342,0.911,1.0963,1.3124,1.4956,1.6082,1.6037,1.511,1.3362,1.0786,1.0343,0.9321,0.7563,0.7,0.7158,0.7824,0.8193,0.8608,0.9198,0.9391,0.9557,0.9696,0.9595,0.9547,0.954,0.9432,0.9357,0.9317,0.9276,0.9015,0.8574,0.7845,0.7259,0.6747,0.0,0.0,0.0,0.0,0.0,0.0,0.0,0.0,0.0,0.0,0.0,0.0,0.0,0.0,0.0,0.0,0.0,0.0,0.0,0.0,0.0,0.0,0.0,0.0,0.0,0.0,0.0,0.0,0.0,0.0,0.0,0.0,-0.796,-0.796,-0.8543,-0.9103,-0.9473,-0.9588,-0.9581,-0.9439,-0.9286,-0.9308,-0.9759,-1.0689,-1.1187,-1.0795,-1.1492,-1.1642,-1.0751,-1.0174,-1.003,-1.0312,-0.9824,-1.0292,-1.1567,-1.1265,-1.1695,-1.2725,-1.2339,-1.2169,-1.2253,-1.2428,-1.3006,-1.3974,-1.4268,-1.4905,-1.5671,-1.5297,-1.4897,-1.4536,-1.4676,-1.4776,-1.5042,0.0,0.0,0.0,0.0,0.0,0.0,0.0,0.4467,0.5007,0.7525,0.9349,1.1189,1.3338,1.522,1.6246,1.6166,1.5538,1.4066,1.1548,1.0491,0.9361,0.8229,0.7634,0.7566,0.8266,0.8562,0.8998,0.9476,0.9625,0.9774,0.9914,0.9768,0.9768,0.9883,0.9663,0.9602,0.9652,0.953,0.9378,0.9164,0.8537,0.7869,0.7334,0.679,0.5817,0.4484,0.2661,0.1151,0.0,0.0,0.0,0.0,0.0,0.0,0.0,0.0,0.0,0.0,0.0,0.0,0.0,0.0,0.0,0.0,0.0,0.0,0.0,0.0,0.0,0.0,0.0,0.0,0.0,0.0,-0.8228,-0.8726,-0.8981,-0.9313,-0.9673,-1.0056,-1.01,-1.0046,-0.9903,-0.9751,-0.9635,-0.9571,-1.0377,-1.0458,-0.9812,-1.048,-1.0391,-0.9608,-0.9523,-0.9405,-0.9249,-0.9249,-0.9653,-1.0339,-1.017,-1.0518,-1.1259,-1.088,-1.066,0.0,-1.0984,-1.1634,-1.2328,-1.3488,-1.4364,0.0,0.0,0.0,0.0,0.0,-1.4596,-1.4717,0.0,0.0,0.0,0.0,0.0,0.0,0.0,0.4377,0.495,0.7356,0.9242,1.1155,1.3206,1.5041,1.5879,1.5391,1.5257,1.4182,1.2064,0.9656,0.8519,0.8762,0.8301,0.818,0.8554,0.8984,0.9354,0.9659,0.9785,0.9924,1.0073,0.9937,1.0019,1.027,0.9995,0.9937,1.0032,0.9771,0.9639,0.9574,0.9174,0.8622,0.7853,0.6854,0.6489,0.6071,0.2396,0.0573,0.0,0.0,0.0,0.0,0.0,0.0,0.0,0.0,0.0,0.0,0.0,0.0,0.0,0.0,0.0,0.0,0.0,0.0,0.0,0.0,0.0,0.0,0.0,0.0,0.0,0.0,-0.895,-0.9452,-1.0022,-1.0131,-1.0243,-1.0487,-1.0504,-1.0443,-1.0317,-1.0164,-1.0012,-0.9859,-0.9846,-0.9839,-0.9822,0.0,0.0,0.0,0.0,-0.9561,-0.9408,-0.9408,-0.9398,-0.9381,-0.9245,-0.9171,-0.9144,-0.8866,-0.8759,-0.8811,-0.9666,-1.0192,-1.0614,-1.2851,-1.3902,-1.4238,-1.5032,-1.5217,-1.4897,-1.4342,-1.4115,0.0,0.0,0.0,0.0,0.0,0.0,0.0,0.0,0.3863,0.4876,0.7064,0.896,1.0684,1.2401,1.3906,1.491,1.5037,1.413,1.3212,1.2537,0.975,0.889,1.0452,0.9053,0.8537,0.9018,0.9351,0.9666,0.9964,0.9992,1.0083,1.0236,1.0205,1.0226,1.028,1.0219,1.0137,1.0046,0.9988,0.9829,0.9602,0.9513,0.9137,0.8481,0.8054,0.7627,0.6976,0.4091,0.177,0.0,0.0,0.0,0.0,0.0,0.0,0.0,0.0,0.0,0.0,0.0,0.0,0.0,0.0,0.0,0.0,0.0,0.0,0.0,0.0,0.0,0.0,0.0,0.0,0.0,-0.8716,-0.9392,-1.0002,-1.0354,-1.0619,-1.0748,-1.0683,-1.0568,-1.048,-1.0453,-1.0321,-1.0171,-1.0015,-1.0005,-0.9951,-0.9829,-0.9822,0.0,-0.9781,-0.9781,-0.971,-0.9568,-0.9564,-0.9503,-0.9381,0.0,0.0,-0.9147,-0.8974,-0.9454,-1.0339,-0.9332,-1.0582,-1.3391,-1.2798,-1.3671,-1.5412,-1.5411,-1.5217,-1.4917,-1.4569,-1.4289,-1.4173,0.0,0.0,0.0,0.0,0.0,0.0,0.0,0.3546,0.4488,0.6919,0.8608,1.0274,1.2012,1.3338,1.3907,1.362,1.2704,1.259,1.3444,1.1065,1.0122,1.1508,0.972,0.889,0.9374,0.9602,0.9825,1.0049,1.0127,1.0243,1.0385,1.0314,1.0358,1.0493,1.0344,1.0276,1.0266,1.0195,1.0036,0.9822,0.9747,0.9493,0.912,0.8747,0.8492,0.7898,0.4914,0.2143,0.0,0.0,0.0,0.0,0.0,0.0,-0.0089,0.0,0.0,0.0,0.0,0.0,0.0,0.0,0.0,0.0,0.0,0.0,0.0,0.0,0.0,-0.1939,0.0,0.0,-0.7105,-0.9161,-0.9915,-1.0375,-1.0677,-1.0853,-1.0894,-1.0738,-1.0721,-1.066,-1.0507,-1.0429,-1.0293,-1.0066,-1.012,-1.0063,-0.9832,-0.9893,-0.99,-0.9822,-0.9822,-0.9788,-0.9717,-0.9717,-0.9676,-0.9602,-0.953,-0.9415,-0.9262,-0.9887,-1.0441,-1.0924,-1.0826,-1.1751,-1.3358,-1.3139,-1.4093,-1.5812,-1.5671,-1.5438,-1.5144,-1.485,-1.4649,-1.4522,0.0,0.0,0.0,0.0,0.0,0.0,0.0,0.0,0.4106,0.6474,0.7991,0.9553,1.1225,1.2187,1.2406,1.1699,1.1487,1.2031,1.3627,1.204,1.1239,1.1874,1.0077,0.9252,0.9642,0.9791,0.9954,1.0137,1.0259,1.0395,1.0534,1.0419,1.0493,1.0711,1.0473,1.0412,1.0483,1.0371,1.0215,1.0039,0.9917,0.9761,0.9568,0.9174,0.896,0.8504,0.527,0.2318,0.0,0.0,0.0,0.0,0.0,-0.0095,-0.0185,-0.0624,-0.0964,0.0,0.0,0.0,0.0,0.0,0.0,0.0,0.0,0.0,-0.1536,-0.1085,-0.1016,-0.106,-0.1019,-0.2458,-0.4986,-0.9447,-1.0424,-1.0717,-1.0829,-1.0995,-1.0934,-1.0782,-1.0873,-1.0839,-1.0565,-1.0534,-1.0426,-1.0154,-1.0253,-1.0188,-0.988,-0.9981,-0.9978,-0.9825,-0.9822,-0.9822,-0.9822,-0.9822,-0.9822,-0.9819,-0.9703,-0.9571,-0.9535,-1.0725,-1.1355,-1.1456,-1.3021,-1.3383,-1.2825,-1.3614,-1.4657,-1.5737,-1.5534,-1.549,-1.5444,-1.5157,-1.501,-1.4963,0.0,0.0,0.0,0.0,0.0,0.0,0.0,0.0,0.0,0.5498,0.6754,0.7882,0.8807,0.9344,0.9687,0.9859,1.0621,1.1337,1.1796,1.1312,1.0999,1.1012,1.0093,0.9615,0.9791,0.9944,1.0161,1.0443,1.046,1.0548,1.0694,1.0677,1.0687,1.0717,1.0683,1.0605,1.049,1.0473,1.0307,1.0046,1.0029,0.9856,0.9588,0.9401,0.9148,0.8552,0.5501,0.2555,0.0,0.0,0.0,0.0,0.0,-0.0294,-0.0662,-0.0648,0.0,-0.1386,-0.1352,-0.1261,-0.1196,-0.0815,-0.0644,-0.0567,0.0,0.0,-0.2236,-0.0447,-0.0113,-0.0116,-0.0123,-0.0378,-0.2713,-0.9526,-1.0789,-1.1003,-1.1034,-1.1155,-1.1084,-1.0941,-1.0938,-1.088,-1.0711,-1.0694,-1.0626,-1.0456,-1.046,-1.0337,-1.0039,-1.0039,-0.9978,-0.9825,-0.9822,-0.9822,-0.9822,-0.9822,-0.9822,-0.9822,-0.9805,-0.9724,-0.9578,-1.091,-1.2072,-1.3277,-1.5415,-1.5481,-1.4263,-1.398,-1.4657,-1.573,-1.4561,-1.4835,-1.5745,-1.5451,-1.5184,-1.4963,0.0,0.0,0.0,0.0,0.0,0.0,0.0,0.0,0.0,0.0,0.5647,0.6651,0.7722,0.7908,0.8231,0.8742,0.8861,0.9535,1.0939,1.0506,1.0556,1.1435,1.0284,0.9846,1.0083,1.0232,1.0368,1.049,1.0582,1.0656,1.0721,1.0721,1.0721,1.0721,1.0721,1.0683,1.0626,1.0626,1.05,1.0307,1.0307,1.0131,0.9829,0.9503,0.9322,0.8813,0.5636,0.2519,0.0,0.0,0.0,-0.01,-0.0605,-0.0999,-0.1079,-0.076,-0.1015,0.0,-0.1407,-0.1323,0.0,0.0,-0.03,-0.0208,-0.0,-0.0679,-0.0926,-0.0119,0.0,0.0,0.0,0.0,-0.0942,0.0,-0.6917,-0.9277,-1.0773,-1.097,-1.0948,-1.0711,-1.0761,-1.0792,-1.0727,-1.0639,-1.0561,-1.0497,-1.049,-1.0402,-1.0195,-1.01,-1.0019,-0.9958,-0.9866,-0.9822,-0.9822,-0.9822,-0.9822,-0.9822,-1.0778,-1.1172,-1.1114,-1.3227,-1.4849,-1.5887,-1.6672,-1.6649,-1.5979,-1.5522,-1.559,-1.5976,-1.5306,-1.5337,-1.5812,-1.5691,-1.5571,-1.5471,0.0,0.0,0.0,0.0,0.0,0.0,0.0,0.0,0.0,0.0,0.0,0.5194,0.6321,0.6374,0.6689,0.7581,0.7426,0.8089,0.9784,0.9614,0.9995,1.0978,1.0267,0.9964,1.0273,1.0419,1.0514,1.0555,1.0666,1.0721,1.0721,1.0721,1.0721,1.0721,1.0721,1.0721,1.0721,1.0721,1.0609,1.0432,1.0432,1.0205,0.9822,0.9415,0.9227,0.8835,0.6435,0.3148,0.0,0.0,-0.0196,-0.0486,-0.1173,-0.1371,-0.1268,-0.0952,-0.1123,-0.1385,-0.1373,0.0,0.0,-0.051,-0.0215,0.0,0.0,0.0,0.0,0.0,0.0,0.0,0.0,0.0,0.0,0.0,-0.2913,-0.6491,-1.0404,-1.092,-1.0795,-1.0524,-1.048,-1.049,-1.0531,-1.051,-1.051,-1.0551,-1.0555,-1.049,-1.0344,-1.0195,-1.0093,-1.0049,-0.99,-0.9822,-0.9822,-0.9822,-1.0061,-1.0539,-1.1615,-1.238,-1.2822,-1.5085,-1.6735,-1.7689,-1.7315,-1.7148,-1.7108,-1.6513,-1.6273,-1.6246,-1.5945,-1.5832,-1.5825,-1.6197,-1.6109,-1.5825,0.0,0.0,0.0,0.0,0.0,0.0,0.0,0.0,0.0,0.0,0.0,0.0,0.0,0.4145,0.477,0.602,0.6753,0.7369,0.7826,0.8938,0.9324,0.904,0.9513,0.9964,1.0273,1.0419,1.0565,1.0714,1.0717,1.0721,1.0721,1.0721,1.0721,1.0721,1.0721,1.0721,1.0721,1.0721,1.0555,1.0287,1.0287,0.993,0.9367,0.9066,0.8793,0.8603,0.8466,0.472,0.0,0.0,-0.0543,-0.1229,-0.1253,-0.1262,0.0,-0.1382,-0.1389,-0.1487,0.0,0.0,-0.143,-0.1402,-0.0681,0.0,0.0,0.0,0.0,0.0,0.0,0.0,0.0,0.0,0.0,0.0,-0.0141,-0.2666,-0.9709,-1.0776,-1.0694,-1.0514,-1.011,-0.9907,0.0,-1.0324,-1.0555,-1.0704,-1.0714,-1.0646,-1.0493,-1.0351,-1.0205,-1.0056,-0.99,-0.9822,-0.9822,-0.9822,-1.0539,-1.2097,-1.2217,-1.3048,-1.4579,-1.563,-1.6845,-1.8003,-1.7408,-1.7148,-1.7108,-1.6513,-1.6273,-1.6246,-1.5945,-1.5832,-1.592,-1.7225,-1.685,-1.6015,0.0,0.0,0.0,0.0,0.0,0.0,0.0,0.0,0.0,0.0,0.0,0.0,0.0,0.0,0.0,0.0,0.5182,0.5813,0.6466,0.7312,0.8007,0.8401,0.9195,0.9774,0.9971,1.0222,1.0422,1.0568,1.0568,1.0619,1.0721,1.0721,1.0721,1.0721,1.0721,1.0721,1.0721,1.0721,1.0663,1.0544,1.0249,0.9944,0.9608,0.8792,0.8469,0.8283,0.0,0.5398,0.4766,0.1158,-0.0176,0.0,-0.1141,-0.132,-0.1322,-0.142,-0.1373,-0.1426,-0.1376,0.0,-0.13,-0.0576,-0.024,0.0,0.0,0.0,0.0,0.0,-0.0654,-0.1435,-0.2238,-0.1055,0.0,0.0,0.0,-0.164,-0.6517,-0.927,-1.0578,-1.0103,-1.0093,0.0,0.0,0.0,0.0,-1.0541,-1.048,-1.049,-1.0636,-1.0412,-1.0256,-1.0205,-1.0053,-0.9924,-0.9822,-0.9822,-1.066,-1.2213,-1.4351,-1.5971,-1.7157,-1.7546,-1.776,-1.7716,-1.7321,-1.7148,-1.7108,-1.6513,-1.6273,-1.6246,-1.5945,-1.6292,-1.7131,-1.7505,-1.7956,-1.8311,0.0,0.0,0.0,0.0,0.0,0.0,0.0,0.0,0.0,0.0,0.0,0.0,0.0,0.0,0.0,0.0,0.0,0.4402,0.5211,0.5697,0.6611,0.7961,0.8471,0.9007,0.9799,1.013,1.0211,1.0153,1.0225,1.0301,1.0243,1.0297,1.0324,1.0324,1.0375,1.0399,1.0395,1.0344,1.0259,1.0131,0.9667,0.9345,0.8901,0.8282,0.8085,0.0,0.578,0.4896,0.4163,0.1025,0.0,-0.0085,-0.085,-0.1216,-0.1336,-0.1425,-0.141,-0.1504,-0.1456,-0.1206,-0.0812,-0.0122,0.0,0.0,0.0,0.0,0.0,0.0,-0.1284,-0.2535,-0.326,-0.2242,-0.1006,-0.0131,0.0,-0.1308,-0.487,-0.844,-1.046,-1.0036,-1.011,0.0,0.0,0.0,0.0,-1.0385,-1.0429,-1.0497,-1.0629,-1.046,-1.0583,-1.1154,-1.0374,-1.0461,-1.1499,-1.0899,-1.1703,-1.3764,-1.6477,-1.8014,-1.8484,-1.8263,-1.8016,-1.7722,-1.7208,-1.7108,-1.7255,-1.6667,-1.6493,-1.6646,-1.6615,-1.7108,-1.7935,-1.8727,-1.9497,-2.0124,0.0,0.0,0.0,0.0,0.0,0.0,0.0,0.0,0.0,0.0,0.0,0.0,0.0,0.0,0.0,0.0,0.0,0.0,0.4264,0.4159,0.5048,0.7279,0.7018,0.7669,0.9478,0.9838,0.9771,0.9257,0.9579,0.9542,0.9351,0.9503,0.9456,0.9463,0.9593,0.9654,0.9643,0.9513,0.9401,0.9117,0.8732,0.8117,0.7316,0.7472,0.7366,0.7183,0.695,0.3379,-0.114,0.0,0.0,0.0,0.0,-0.0954,-0.1298,-0.1396,-0.1496,-0.151,-0.1341,-0.0709,0.0,0.0,0.0,0.0,0.0,0.0,0.0,0.0,-0.1615,-0.3165,0.0,0.0,-0.2813,-0.0498,-0.0123,-0.1239,-0.4914,-0.8416,-1.0614,0.0,0.0,0.0,0.0,0.0,0.0,-1.0259,0.0,-1.0639,-1.051,-1.0504,-1.1195,-1.2645,-1.0996,-1.1567,-1.4604,-1.3168,-1.3769,-1.6465,-1.8103,-1.8764,-1.8444,-1.7869,-1.7756,-1.7976,-1.7108,-1.7048,-1.7515,-1.7042,-1.6968,-1.7374,-1.796,-1.8281,-1.8506,-2.0642,-2.14,-2.1471,0.0,0.0,0.0,0.0,0.0,0.0,0.0,0.0,0.0,0.0,0.0,0.0,0.0,0.0,0.0,0.0,0.0,0.0,0.3147,0.3014,0.3301,0.4227,0.4537,0.4971,0.5515,0.5979,0.6236,0.6047,0.7611,0.8281,0.8118,0.8252,0.8201,0.8091,0.8234,0.8249,0.8136,0.8213,0.8444,0.8706,0.8125,0.7935,0.7875,0.6938,0.7055,0.7396,0.4713,0.1582,0.0,0.0,0.0,0.0,0.0,-0.0718,-0.1337,-0.1297,-0.1374,-0.1347,-0.0594,-0.0124,0.0,0.0,0.0,0.0,0.0,0.0,0.0,0.0,-0.1037,-0.2125,0.0,0.0,0.0,-0.2737,-0.1227,0.0,-0.4928,-0.8427,0.0,0.0,0.0,-1.029,-1.007,-1.0215,0.0,0.0,-1.0351,-1.0473,-1.0653,-1.0663,-1.1312,-1.2653,-1.2223,-1.2789,-1.4609,-1.5424,-1.601,-1.6465,-1.8103,-1.8651,-1.8156,-1.7996,-1.7849,-1.7675,-1.7228,-1.7121,-1.7331,-1.7939,-1.8214,-1.8464,-1.9644,-2.047,-2.1151,-2.2541,-2.3369,-2.3998,0.0,0.0,0.0,0.0,0.0,0.0,0.0,0.0,0.0,0.0,0.0,0.0,0.0,0.0,0.0,0.0,0.0,0.0,0.0,0.1747,0.169,0.1727,0.2448,0.264,0.222,0.2547,0.2704,0.2778,0.3842,0.5472,0.735,0.7172,0.7027,0.6927,0.7185,0.7318,0.7422,0.7361,0.7468,0.0,0.0,0.6081,0.6145,0.6034,0.5615,0.4734,0.1914,0.0,0.0,0.0,0.0,0.0,0.0,-0.039,-0.0829,-0.1194,0.0,-0.0717,-0.0125,0.0,0.0,0.0,0.0,-0.0262,-0.102,-0.1237,-0.1187,-0.0884,-0.1596,0.0,0.0,0.0,0.0,0.0,0.0,0.0,-0.5351,-0.8489,-1.0633,0.0,-1.0544,0.0,-1.0361,-1.0432,-1.0487,0.0,-1.0473,-1.0517,-1.0616,-1.1333,-1.2382,-1.3649,-1.376,-1.4426,-1.5671,-1.7214,-1.7902,-1.7514,-1.8976,-1.9339,-1.8977,-1.9208,-1.9354,-1.9391,0.0,-1.8881,-1.9219,-1.9583,-1.9925,-2.0142,-2.1354,-2.2402,-2.3372,-2.4068,-2.5314,-2.664,0.0,0.0,0.0,0.0,0.0,0.0,0.0,0.0,0.0,0.0,0.0,0.0,0.0,0.0,0.0,0.0,0.0,0.0,0.0,0.0,0.0285,0.0,0.0691,0.0629,-0.0562,-0.0321,-0.0082,-0.0085,0.0083,0.2196,0.6092,0.5749,0.5634,0.5577,0.5839,0.6168,0.6464,0.617,0.5961,0.5838,0.4245,0.3389,0.3151,0.0,0.3359,0.0962,0.0,0.0,0.0,0.0,-0.0734,0.0,0.0,0.0,-0.0114,-0.0945,-0.0614,0.0,0.0,0.0,0.0,0.0,0.0,-0.0517,-0.2605,-0.3098,-0.2816,-0.2242,0.0,-0.3615,-0.3706,0.0,-0.2014,-0.3267,0.0,-0.9511,-0.6497,-0.8736,-1.0709,-1.0704,-1.0721,-1.0721,-1.0721,-1.0602,-1.0578,-1.0711,-1.085,-1.1052,-1.0914,-1.2461,-1.3922,-1.5266,-1.569,-1.6321,-1.7331,-1.8642,-1.9327,-1.9244,-2.0127,-2.0457,-2.0484,-2.1006,-2.147,-2.1785,0.0,0.0,-2.1727,-2.1603,-2.1661,-2.2122,-2.3188,-2.424,-2.5282,-2.5999,-2.7369,-2.908,0.0,0.0,0.0,0.0,0.0,0.0,0.0,0.0,0.0,0.0,0.0513,0.0393,0.0,0.0,0.0,0.0,0.0,0.0,0.0,0.0,0.0,0.0,0.0146,-0.0962,-0.3507,-0.1786,-0.0746,-0.0376,0.0535,0.1249,0.1765,0.2416,0.2553,0.2305,0.2606,0.2615,0.2491,0.265,0.2782,0.2892,0.1892,0.0961,0.0231,0.0463,0.0,0.0,0.0,0.0,0.0,0.0,-0.2886,0.0,0.0,0.0,-0.0,-0.025,-0.0128,0.0,0.0,0.0,0.0,0.0,0.0,-0.0743,-0.3476,-0.3896,0.0,0.0,0.0,-0.4863,-0.509,-0.3102,0.0,-0.4281,0.0,0.0,0.0,0.0,-1.0454,0.0,0.0,0.0,0.0,0.0,0.0,0.0,0.0,0.0,-1.2755,-1.3177,-1.4433,-1.701,-1.8181,-1.8745,-1.9004,-1.9243,-1.988,-2.0759,-2.0545,-2.1217,-2.2413,-2.189,-2.186,-2.2192,0.0,0.0,-2.1744,-2.2798,-2.3322,-2.3565,-2.5942,-2.6744,-2.6904,-2.9812,-3.0552,-3.0476,0.0,0.0,0.0,0.0,0.0,0.0,0.0,-0.2041,-0.2324,-0.1965,-0.1319,-0.0643,-0.0058,0.023,0.0457,0.0,0.0,0.0,0.0,0.0,0.0,0.0,0.0,0.0,-0.3151,-0.2899,0.0,0.0,0.0,-0.119,-0.128,0.0,0.0,0.0,-0.0616,-0.0617,-0.0703,-0.0624,-0.0465,-0.0384,0.0077,-0.0227,0.0,0.0,0.0,0.0,0.0,0.0,0.0,0.0,-0.503,-0.3937,-0.0897,0.0,0.0,0.0,0.0,0.0,0.0,0.0,0.0,0.0,0.0,-0.061,-0.2674,0.0,0.0,0.0,0.0,-0.5753,-0.6198,0.0,0.0,0.0,0.0,0.0,0.0,0.0,0.0,0.0,0.0,0.0,0.0,0.0,0.0,0.0,0.0,0.0,-1.3325,-1.4671,-1.661,-1.8869,-1.9187,-1.9366,-1.9366,-2.0148,-2.0844,-2.1339,-2.2533,-2.335,-2.3887,-2.4056,-2.4099,-2.4081,-2.3881,0.0,-2.3791,-2.451,-2.508,-2.5828,-2.7105,-2.8272,-2.9353,-3.1259,-3.2473,-3.3254,0.0,0.0,0.0,0.0,0.0,0.0,0.0,-0.32,-0.3892,-0.4105,-0.3172,-0.2171,-0.1144,-0.0478,-0.0117,0.0,0.0,0.0,0.0,0.0,0.0,0.0,0.0,0.0,0.0,0.0,0.0,0.0,0.0,0.0,0.0,0.0,0.0,0.0,0.0,0.0,0.0,-0.2911,-0.2913,0.0,0.0,0.0,0.0,0.0,0.0,0.0,0.0,0.0,0.0,0.0,-0.652,-0.7335,-0.2637,-0.0944,-0.0623,-0.0128,0.0,0.0,0.0,0.0,0.0,0.0,0.0,-0.0483,-0.2255,-0.4648,0.0,0.0,-0.5869,-0.6548,-0.7102,0.0,0.0,0.0,0.0,0.0,0.0,0.0,0.0,0.0,0.0,0.0,0.0,0.0,0.0,0.0,0.0,0.0,-1.4358,-1.6757,-1.8735,-2.0113,-1.9673,-1.9591,-1.9815,-2.1031,-2.1919,-2.2581,-2.4347,-2.5312,-2.5408,-2.6088,-2.625,-2.6016,-2.6016,0.0,0.0,-2.6378,-2.7074,-2.8199,-2.847,-2.976,-3.1644,-3.2778,-3.4254,-3.5921,0.0,0.0,0.0,0.0,0.0,0.0,0.0,-0.3318,-0.3794,-0.4051,-0.402,-0.4101,-0.431,-0.1995,-0.0424,0.0,0.0,0.0,0.0,0.0,0.0,0.0,0.0,0.0,0.0,0.0,0.0,0.0,0.0,0.0,0.0,0.0,0.0,0.0,0.0,0.0,0.0,0.0,0.0,0.0,0.0,0.0,0.0,0.0,0.0,0.0,0.0,0.0,0.0,0.0,0.0,-0.6866,-0.5448,-0.4064,-0.2569,-0.0601,0.0,0.0,0.0,0.0,0.0,0.0,0.0,-0.071,-0.3595,0.0,0.0,-0.6505,-0.7148,-0.7618,-0.7608,-0.8312,0.0,0.0,0.0,-1.0502,0.0,0.0,0.0,0.0,0.0,0.0,0.0,0.0,0.0,0.0,0.0,0.0,0.0,-1.9286,-1.9985,-2.0234,-1.9673,-2.0033,-2.1365,-2.1586,-2.3039,-2.57,-2.5173,-2.5746,-2.736,-2.6758,-2.6572,-2.6894,0.0,0.0,0.0,-2.8729,-2.9246,-3.0079,-3.1205,-3.2128,-3.3035,-3.588,-3.6896,-3.7263,0.0,0.0,0.0,0.0,0.0,0.0,-0.2821,-0.3603,-0.4222,-0.4573,-0.4587,-0.4512,-0.447,-0.3366,-0.2085,-0.0887,0.0,0.0,0.0,0.0,0.0,0.0,0.0,0.0,0.0,0.0,0.0,0.0,0.0,0.0,0.0,0.0,0.0,0.0,0.0,0.0,0.0,0.0,0.0,0.0,0.0,0.0,0.0,0.0,0.0,0.0,0.0,0.0,0.0,0.0,0.0,0.0,-0.6821,-0.6021,0.0,0.0,-0.1068,0.0,0.0,0.0,0.0,0.0,-0.213,-0.4396,-0.4704,0.0,-0.7726,-0.764,-0.8221,-0.8875,-0.9326,-0.9771,-1.046,0.0,0.0,0.0,0.0,0.0,0.0,0.0,0.0,0.0,0.0,0.0,0.0,0.0,0.0,0.0,0.0,-2.008,-2.0234,-2.0234,-2.0571,-2.1038,-2.1578,-2.3367,-2.4922,-2.6145,-2.6365,-2.6816,-2.7256,-2.7422,-2.7615,-2.7877,0.0,0.0,0.0,-3.0544,-3.1309,-3.2292,-3.317,-3.435,-3.5829,-3.7271,-3.828,-3.9205,0.0,0.0,0.0,0.0,0.0,-0.2624,-0.2891,-0.3724,-0.4537,-0.487,-0.4864,-0.473,-0.4472,-0.4209,-0.3448,-0.2095,-0.1594,0.0,0.0,0.0,0.0,0.0,0.0,0.0,0.0,0.0,0.0,0.0,0.0,0.0,0.0,0.0,0.0,0.0,0.0,0.0,0.0,0.0,0.0,0.0,0.0,0.0,0.0,0.0,0.0,0.0,0.0,0.0,0.0,0.0,0.0,0.0,0.0,0.0,0.0,0.0,-0.2584,-0.0358,-0.0126,0.0,0.0,0.0,-0.3954,-0.7632,0.0,0.0,-0.8923,-0.9032,-0.9413,-1.0067,-1.0938,-1.1238,-1.167,-1.2763,0.0,-1.22,0.0,0.0,0.0,0.0,0.0,0.0,0.0,0.0,0.0,0.0,0.0,0.0,0.0,-2.1161,-2.0777,-2.0681,-2.1314,-2.2032,-2.2919,-2.5041,-2.6417,-2.7138,-2.7721,-2.8025,-2.7862,-2.8642,-2.9042,-2.9246,0.0,0.0,0.0,-3.3228,-3.4183,-3.5037,-3.5426,-3.6826,-3.8635,-3.8696,-3.9684,-4.1084,0.0,0.0,0.0,0.0,0.0,0.0,-0.2863,-0.3735,-0.447,-0.4611,-0.4745,-0.4894,-0.509,-0.4428,-0.4064,-0.4131,-0.3028,0.0,0.0,0.0,0.0,0.0,0.0,0.0,0.0,0.0,-0.6396,-0.6396,-0.706,0.0,0.0,0.0,0.0,0.0,0.0,0.0,0.0,0.0,0.0,0.0,0.0,0.0,0.0,0.0,0.0,0.0,0.0,0.0,0.0,0.0,0.0,0.0,0.0,0.0,0.0,0.0,-0.4702,-0.1357,-0.0238,0.0,0.0,0.0,-0.5067,-0.9839,0.0,0.0,-0.9805,-1.092,-1.0989,-1.118,-1.2345,-1.2565,-1.2742,-1.3113,-1.3114,0.0,0.0,0.0,0.0,0.0,0.0,0.0,0.0,0.0,0.0,0.0,0.0,0.0,0.0,-2.2833,-2.232,-2.1963,-2.1758,-2.3031,-2.6045,-2.6045,-2.7226,-2.9432,-2.8963,-2.917,-2.9958,-3.0555,-3.0874,0.0,0.0,0.0,0.0,-3.7243,-3.8182,-3.8342,-3.8458,-3.9581,-4.1196,-4.0505,-4.1362,-4.2853,0.0,0.0,0.0,0.0,0.0,0.0,0.0,-0.42,-0.4853,-0.5104,-0.524,-0.5396,-0.5456,-0.5264,-0.4967,-0.4621,-0.3255,0.0,0.0,0.0,0.0,0.0,0.0,0.0,0.0,0.0,-0.712,-0.6728,-0.8166,-0.8689,-0.8479,0.0,0.0,0.0,0.0,0.0,0.0,0.0,0.0,0.0,0.0,0.0,0.0,0.0,0.0,0.0,0.0,0.0,0.0,0.0,0.0,0.0,0.0,0.0,0.0,-0.8146,-0.7286,0.0,-0.3962,-0.3386,-0.3393,-0.3437,-0.6565,-0.9686,-0.9972,0.0,-1.061,-1.1261,-1.1719,-1.2418,-1.3708,-1.4076,-1.4775,-1.6446,-1.671,0.0,0.0,0.0,0.0,0.0,0.0,0.0,0.0,0.0,0.0,0.0,0.0,0.0,0.0,0.0,-2.4037,-2.4033,-2.4474,-2.5555,-2.7466,-2.8473,-2.9798,-3.1392,-3.102,-3.0909,-3.1218,-3.2296,0.0,0.0,0.0,0.0,0.0,-3.8932,-3.9995,-4.1031,-4.1371,-4.2196,-4.3031,-4.2277,-4.2771,-4.3776,0.0,0.0,0.0,0.0,0.0,0.0,0.0,-0.4189,-0.4696,-0.4942,-0.5075,-0.5318,-0.5564,-0.5572,-0.5508,-0.5255,-0.4145,0.0,0.0,0.0,0.0,0.0,0.0,0.0,0.0,-0.7256,-0.7811,-0.7565,-0.9088,-0.9801,-0.9748,-1.003,-1.0183,0.0,0.0,0.0,0.0,0.0,0.0,0.0,0.0,0.0,-0.8148,0.0,0.0,0.0,0.0,0.0,0.0,0.0,0.0,0.0,0.0,0.0,0.0,0.0,-0.9428,-0.9211,0.0,-0.666,-0.691,-0.6893,-0.8254,0.0,0.0,0.0,-1.118,-1.2289,-1.2975,-1.378,-1.5076,-1.5641,-1.6378,-1.8018,-1.8163,0.0,0.0,0.0,0.0,0.0,0.0,0.0,0.0,0.0,0.0,0.0,0.0,0.0,0.0,0.0,-2.6822,-2.7391,-2.7068,-2.7494,-2.8961,-3.0369,-3.1636,-3.2757,-3.2546,-3.266,-3.3179,-3.4122,0.0,0.0,0.0,0.0,0.0,-4.1232,-4.2315,-4.2986,-4.3597,-4.444,-4.5135,-4.3881,-4.4119,-4.4936,0.0,0.0,0.0,0.0,0.0,0.0,0.0,-0.3951,-0.4262,-0.4342,-0.4452,-0.4887,-0.5601,-0.5683,-0.575,-0.5943,0.0,0.0,0.0,0.0,0.0,0.0,0.0,0.0,0.0,-0.7582,-0.8401,-0.8818,-0.9983,-1.0667,-1.0917,-1.0942,-1.0808,-1.0539,-1.0539,0.0,0.0,0.0,0.0,0.0,0.0,0.0,0.0,0.0,0.0,0.0,0.0,0.0,0.0,0.0,0.0,0.0,0.0,0.0,0.0,0.0,0.0,0.0,0.0,-0.9413,0.0,0.0,0.0,0.0,0.0,0.0,0.0,-1.3766,-1.446,-1.5155,-1.656,-1.7166,-1.7647,-1.8154,0.0,0.0,0.0,0.0,0.0,0.0,0.0,0.0,0.0,0.0,0.0,0.0,0.0,0.0,0.0,0.0,-3.0118,-3.1587,-2.9662,-2.9309,-3.0657,-3.1827,-3.2874,-3.3779,-3.3779,-3.445,-3.5685,-3.6174,0.0,0.0,0.0,0.0,0.0,-4.3748,-4.4823,-4.446,-4.5168,-4.6257,-4.7174,-4.5242,-4.533,-4.6215,0.0,0.0,0.0,0.0,0.0,0.0,0.0,0.0,0.0,0.0,-0.5502,-0.5687,-0.6172,-0.6193,-0.6254,0.0,0.0,0.0,0.0,0.0,0.0,0.0,0.0,0.0,0.0,-0.8221,-0.8958,-0.9667,-1.0483,-1.0963,-1.1162,-1.1255,-1.1208,-1.0863,-1.0863,-1.0698,0.0,0.0,0.0,0.0,0.0,0.0,0.0,0.0,0.0,0.0,-1.0917,-1.072,0.0,0.0,0.0,0.0,0.0,0.0,0.0,0.0,-1.1353,-1.132,-1.1013,0.0,-1.1294,-1.124,-1.1545,-1.1911,0.0,0.0,0.0,0.0,0.0,0.0,0.0,0.0,0.0,0.0,0.0,0.0,0.0,0.0,0.0,0.0,0.0,0.0,0.0,0.0,0.0,0.0,0.0,0.0,0.0,0.0,-3.2115,-3.2086,-3.2938,-3.3625,-3.397,-3.3853,-3.4879,-3.6857,-3.6857,-3.7066,-3.7329,-3.7808,0.0,0.0,0.0,0.0,-4.1686,-4.3647,-4.5022,-4.5958,-4.6632,-4.7201,-4.7492,-4.6338,-4.6079,-4.6182,0.0,0.0,0.0,0.0,0.0,0.0,0.0,0.0,0.0,0.0,0.0,0.0,0.0,0.0,0.0,0.0,0.0,0.0,0.0,0.0,0.0,0.0,0.0,0.0,-0.8323,-0.9058,-0.9633,-1.0091,-1.0975,-1.1532,-1.1737,-1.2047,-1.1956,-1.1662,-1.1382,-1.1088,0.0,0.0,0.0,0.0,0.0,0.0,0.0,0.0,0.0,0.0,-1.1972,-1.1848,0.0,-1.1835,-1.199,-1.2063,0.0,0.0,0.0,0.0,-1.3142,-1.3208,-1.37,-1.2811,-1.1841,-1.1868,-1.2085,-1.2454,-1.2939,0.0,0.0,0.0,0.0,0.0,0.0,0.0,0.0,0.0,0.0,0.0,0.0,0.0,0.0,0.0,0.0,0.0,0.0,0.0,0.0,0.0,0.0,0.0,0.0,0.0,-3.4146,-3.3864,-3.5259,-3.5644,-3.4719,-3.5517,-3.6617,-3.7882,-3.7882,-3.7841,-3.7864,-3.839,0.0,0.0,0.0,0.0,-4.3092,-4.4582,-4.5842,-4.691,-4.7554,-4.7794,-4.7611,-4.6943,-4.6758,-4.6698,0.0,0.0,0.0,0.0,0.0,0.0,0.0,0.0,0.0,0.0,0.0,0.0,0.0,0.0,0.0,0.0,0.0,0.0,0.0,0.0,0.0,0.0,0.0,-0.9155,-0.9009,-0.9837,-1.0299,-1.0421,-1.1591,-1.2248,-1.2438,-1.2875,-1.2825,-1.2417,-1.1773,-1.1346,0.0,0.0,0.0,0.0,-1.1905,0.0,0.0,0.0,0.0,0.0,0.0,0.0,0.0,-1.3542,-1.3695,-1.3848,-1.4145,0.0,0.0,0.0,0.0,0.0,-1.6228,-1.4566,-1.2654,-1.2546,-1.275,-1.3173,-1.3958,0.0,0.0,0.0,0.0,0.0,0.0,0.0,0.0,0.0,0.0,0.0,0.0,0.0,0.0,0.0,0.0,0.0,0.0,0.0,0.0,0.0,0.0,0.0,0.0,0.0,0.0,-3.602,-3.6865,-3.6605,-3.5015,-3.6928,-3.7937,-3.81,-3.8151,-3.8118,-3.803,-3.8629,-3.9268,0.0,0.0,0.0,-4.4122,-4.5611,-4.6695,-4.7452,-4.8007,-4.8122,-4.7895,-4.7457,-4.7486,-4.7608,0.0,0.0,0.0,0.0,0.0,0.0,0.0,0.0,0.0,0.0,0.0,0.0,0.0,0.0,0.0,0.0,0.0,0.0,0.0,0.0,0.0,0.0,-0.9296,-0.9285,-0.9871,-1.0032,-1.0547,-1.1373,-1.2347,-1.2747,-1.2664,-1.3321,-1.307,-1.2032,-1.1675,-1.1403,-1.1303,-1.1841,-1.2577,-1.3415,-1.3737,0.0,0.0,0.0,0.0,0.0,0.0,0.0,0.0,-1.5517,-1.5455,-1.5463,-1.5816,0.0,0.0,0.0,0.0,0.0,-1.6904,-1.6464,-1.5735,-1.5108,-1.548,-1.5859,-1.5551,0.0,0.0,0.0,0.0,0.0,0.0,0.0,0.0,0.0,0.0,0.0,0.0,0.0,0.0,0.0,0.0,0.0,0.0,0.0,0.0,0.0,0.0,0.0,0.0,0.0,0.0,-3.6877,-3.7934,-3.8462,-3.8368,-3.8016,-3.8283,-3.9151,-3.9305,-3.9344,-3.9351,-3.9513,-3.9708,0.0,0.0,-4.2446,-4.3379,-4.4706,-4.6074,-4.744,-4.7683,-4.837,-4.9163,-4.8688,-4.8777,-4.8875,0.0,0.0,0.0,0.0,0.0,0.0,0.0,0.0,0.0,0.0,0.0,0.0,0.0,0.0,0.0,0.0,0.0,0.0,0.0,0.0,0.0,-1.0843,-1.0734,-1.0602,-1.0638,-1.1263,-1.1584,-1.1685,-1.2923,-1.3274,-1.2875,-1.3492,-1.3461,-1.2851,-1.3021,-1.279,-1.2451,-1.3259,-1.3849,-1.4247,0.0,0.0,0.0,0.0,0.0,0.0,0.0,0.0,0.0,0.0,-1.6158,-1.6219,-1.6428,0.0,0.0,0.0,0.0,0.0,-1.8287,-1.8365,-1.8037,-1.7207,-1.6724,-1.6314,0.0,0.0,0.0,0.0,0.0,0.0,0.0,0.0,0.0,0.0,0.0,0.0,0.0,0.0,0.0,0.0,0.0,0.0,0.0,0.0,0.0,0.0,0.0,0.0,0.0,0.0,0.0,0.0,-3.8413,-3.8901,-3.9466,-3.9097,-3.9327,-4.0231,-4.03,-3.988,-3.9204,-3.965,-4.0042,-4.0469,0.0,-4.2797,-4.4161,-4.4778,-4.5635,-4.6627,-4.6897,-4.7473,-4.822,-4.8884,-4.8951,-4.8644,0.0,0.0,0.0,0.0,0.0,0.0,0.0,0.0,0.0,0.0,0.0,0.0,0.0,0.0,0.0,0.0,0.0,0.0,0.0,0.0,-1.1402,-1.1826,-1.2076,-1.1904,-1.1435,-1.2508,-1.2813,-1.2414,-1.3636,-1.3917,-1.3378,-1.3783,-1.3973,-1.3855,-1.4308,-1.4221,-1.3894,-1.4754,-1.5254,-1.5426,0.0,0.0,0.0,0.0,0.0,0.0,0.0,0.0,0.0,0.0,0.0,0.0,0.0,0.0,0.0,-1.8502,-1.8614,-1.8726,-1.948,-1.9727,-1.9587,-1.882,-1.7803,0.0,0.0,0.0,0.0,0.0,0.0,0.0,0.0,0.0,0.0,0.0,0.0,0.0,0.0,0.0,0.0,0.0,0.0,0.0,0.0,0.0,0.0,0.0,0.0,0.0,0.0,0.0,0.0,0.0,-3.8943,-3.9298,-4.0084,-4.0084,-4.0296,-4.0655,-4.0681,-4.0188,-3.9266,-3.9875,-4.0507,-4.1148,-4.1911,-4.32,-4.4732,-4.4753,-4.526,-4.6043,-4.6277,-4.6855,-4.7707,-4.8948,-4.9106,-4.8779,0.0,0.0,0.0,0.0,0.0,0.0,0.0,0.0,0.0,0.0,0.0,0.0,0.0,0.0,0.0,0.0,0.0,0.0,0.0,0.0,-1.212,-1.2572,-1.2665,-1.2582,-1.2414,-1.3348,-1.3926,-1.4221,-1.461,-1.4752,-1.4492,-1.4515,-1.4543,-1.4651,-1.4651,-1.4966,-1.5496,-1.5972,-1.6776,-1.7795,-1.8286,0.0,0.0,0.0,0.0,0.0,0.0,0.0,0.0,0.0,0.0,0.0,0.0,0.0,-1.9944,-2.0064,-1.9856,-1.9632,-1.9815,-2.0165,-2.0297,-1.9815,-1.9293,0.0,-2.0118,-2.0898,0.0,-2.3906,0.0,0.0,0.0,0.0,0.0,0.0,0.0,0.0,0.0,0.0,0.0,0.0,0.0,0.0,0.0,0.0,0.0,0.0,0.0,0.0,0.0,0.0,0.0,0.0,0.0,-4.0084,-4.091,-4.091,-4.0577,-3.9859,-3.9943,-4.0194,-4.0675,-4.0771,-4.1157,-4.1778,-4.2391,-4.3138,-4.3963,-4.4066,-4.4984,-4.6363,-4.6329,-4.7499,-4.924,-4.9356,-4.9875,-5.0414,0.0,0.0,0.0,0.0,0.0,0.0,0.0,0.0,0.0,0.0,0.0,0.0,0.0,0.0,0.0,0.0,0.0,0.0,0.0,0.0,-1.2399,-1.3055,-1.3301,-1.3651,-1.4092,-1.4784,-1.5099,-1.4996,-1.5043,-1.5441,-1.6147,-1.5073,-1.5111,-1.6094,-1.6094,-1.6211,-1.6599,-1.7327,-1.8021,-1.8627,-1.9061,-1.9727,0.0,0.0,0.0,0.0,0.0,0.0,0.0,0.0,-2.025,-1.9996,-2.0437,-2.0415,-2.0245,-2.0546,-2.0476,-2.0361,-2.0264,-2.0511,-2.0745,-2.0354,-2.0563,0.0,0.0,-2.192,-2.301,-2.4603,-2.619,0.0,0.0,0.0,0.0,0.0,0.0,0.0,0.0,0.0,0.0,0.0,0.0,0.0,0.0,0.0,0.0,0.0,0.0,0.0,0.0,0.0,0.0,0.0,0.0,-3.9637,-4.0447,-4.0447,-4.0271,-3.9984,-4.0454,-4.078,-4.0868,-4.0866,-4.1446,-4.2382,-4.2616,-4.316,-4.3944,-4.4005,-4.452,-4.5359,-4.6022,-4.6931,-4.7913,-4.8413,-4.9202,-4.9971,0.0,0.0,0.0,0.0,0.0,0.0,0.0,0.0,0.0,0.0,0.0,0.0,0.0,0.0,0.0,0.0,0.0,0.0,-1.316,-1.277,-1.2869,-1.37,-1.3867,-1.4337,-1.5195,-1.5816,-1.6184,-1.6119,-1.5993,-1.6246,-1.6792,-1.5814,-1.6026,-1.7276,-1.7276,-1.7533,-1.8087,-1.8731,-1.9327,-1.9868,-2.02,-2.0719,0.0,0.0,0.0,0.0,0.0,0.0,0.0,0.0,-2.0664,-2.0403,-2.1198,-2.1081,-2.0653,-2.1348,-2.1104,-2.0649,-2.0839,-2.1056,-2.1362,-2.1514,0.0,0.0,-2.3827,-2.4374,-2.535,-2.7385,-2.88,0.0,0.0,0.0,0.0,0.0,0.0,0.0,0.0,0.0,0.0,0.0,0.0,0.0,0.0,0.0,0.0,0.0,0.0,0.0,0.0,0.0,0.0,0.0,0.0,0.0,-4.0642,-4.0642,-4.0642,-4.0642,-4.1126,-4.1315,-4.1178,-4.1402,-4.2021,-4.2976,-4.3069,-4.3453,-4.4016,-4.4243,-4.4587,-4.4981,-4.5772,-4.6435,-4.7009,-4.7548,-4.8375,-4.9298,0.0,0.0,0.0,0.0,0.0,0.0,0.0,0.0,0.0,0.0,0.0,0.0,0.0,0.0,0.0,0.0,0.0,0.0,-1.3509,-1.3331,-1.3638,-1.4651,-1.4328,-1.4521,-1.5372,-1.635,-1.7101,-1.7729,-1.7691,-1.7205,-1.6266,-1.667,-1.7276,-1.8037,-1.8037,-1.8767,-2.0096,-2.0096,-2.0805,-2.1877,-2.1877,-2.2211,-2.2616,0.0,0.0,0.0,0.0,0.0,0.0,0.0,-2.2252,-2.2137,-2.3553,-2.2643,-2.1418,-2.2804,-2.186,-2.0547,-2.1554,-2.1921,0.0,0.0,0.0,0.0,-2.8664,-2.8731,-2.9392,-3.2887,0.0,0.0,0.0,0.0,0.0,0.0,0.0,0.0,0.0,0.0,0.0,0.0,0.0,0.0,0.0,0.0,0.0,0.0,0.0,0.0,0.0,0.0,0.0,0.0,0.0,0.0,-4.181,-4.181,-4.181,-4.181,-4.181,-4.181,-4.1853,-4.244,-4.2976,-4.3513,-4.3849,-4.3998,-4.4058,-4.4806,-4.5302,-4.5586,-4.5586,-4.6163,-4.699,-4.699,-4.7625,-4.8625,0.0,0.0,0.0,0.0,0.0,0.0,0.0,0.0,0.0,0.0,0.0,0.0,0.0,0.0,0.0,0.0,0.0,0.0,-1.4187,-1.4311,-1.4546,-1.4809,-1.4479,-1.4731,-1.5661,-1.6815,-1.7761,-1.8445,-1.7653,-1.7728,-1.8511,-1.7441,-1.7742,-1.9131,-1.8731,-1.8998,-1.9791,-2.0172,-2.0805,-2.1577,-2.1928,-2.2445,-2.2967,0.0,0.0,0.0,0.0,0.0,0.0,0.0,0.0,0.0,-2.3313,-2.3309,-2.2936,-2.3485,-2.3224,-2.2656,-2.2144,0.0,0.0,0.0,0.0,0.0,0.0,-3.0735,0.0,0.0,0.0,0.0,0.0,0.0,0.0,0.0,0.0,0.0,0.0,0.0,0.0,0.0,0.0,0.0,0.0,0.0,0.0,0.0,0.0,0.0,0.0,0.0,0.0,0.0,0.0,0.0,-4.181,-4.181,-4.181,-4.181,-4.2203,-4.2422,-4.244,-4.2616,-4.2976,-4.3513,-4.3849,-4.4146,-4.4474,-4.5161,-4.5571,-4.5738,-4.5738,-4.595,-4.6234,-4.6235,-4.6858,-4.7871,0.0,0.0,0.0,0.0,0.0,0.0,0.0,0.0,0.0,0.0,0.0,0.0,0.0,0.0,0.0,0.0,0.0,0.0,0.0,-1.4884,-1.4946,-1.4974,-1.4777,-1.5249,-1.6389,-1.7179,-1.8079,-1.9125,-1.8278,-1.8369,-1.9337,-1.8448,-1.8609,-1.9605,-1.9274,-1.9473,-2.0053,-2.0624,-2.1239,-2.1939,-2.2494,-2.2915,-2.3193,0.0,0.0,0.0,0.0,0.0,0.0,0.0,0.0,0.0,-2.3738,-2.3878,-2.3468,-2.383,-2.3709,-2.3331,-2.2744,0.0,0.0,0.0,0.0,0.0,0.0,0.0,0.0,0.0,0.0,0.0,0.0,0.0,0.0,0.0,0.0,0.0,0.0,0.0,0.0,0.0,0.0,0.0,0.0,0.0,0.0,0.0,0.0,0.0,0.0,0.0,0.0,0.0,0.0,0.0,-4.2904,-4.2904,-4.2904,-4.2923,-4.3277,-4.345,-4.345,-4.3281,-4.3387,-4.3726,-4.4233,-4.4682,-4.5109,-4.5515,-4.5738,-4.5851,-4.5838,-4.5905,-4.5984,-4.5976,-4.6399,-4.7095,0.0,0.0,0.0,0.0,0.0,0.0,0.0,0.0,0.0,0.0,0.0,0.0,0.0,0.0,0.0,0.0,0.0,0.0,0.0,0.0,-1.5141,-1.5241,-1.5311,-1.5986,-1.7388,-1.7521,-1.8239,-1.9708,-1.9181,-1.9059,-1.9287,-1.9593,-1.9783,-1.9868,-1.9868,-2.0183,-2.0764,-2.1439,-2.2027,-2.2591,-2.3229,-2.3412,-2.3194,-2.2696,0.0,0.0,0.0,0.0,0.0,0.0,0.0,0.0,-2.4564,-2.4297,-2.3393,-2.408,-2.3761,-2.3187,-2.3356,0.0,0.0,0.0,0.0,0.0,0.0,0.0,0.0,0.0,0.0,0.0,0.0,0.0,0.0,0.0,0.0,0.0,0.0,0.0,0.0,0.0,0.0,0.0,0.0,0.0,0.0,0.0,0.0,0.0,0.0,0.0,0.0,0.0,0.0,0.0,-4.458,-4.458,-4.458,0.0,-4.458,-4.458,-4.458,-4.4204,-4.4058,-4.4146,-4.4825,-4.5379,-4.5796,-4.5811,-4.5849,-4.5907,-4.5922,-4.5995,-4.6124,-4.6124,-4.6201,-4.6426,0.0,0.0,0.0,0.0,0.0,0.0,0.0,0.0,0.0,0.0,0.0,0.0,0.0,0.0,0.0,0.0,0.0,0.0,0.0,0.0,-1.6384,-1.6375,-1.6714,-1.7039,-1.7412,-1.8256,-1.9241,-2.037,-1.9007,-1.9149,-2.0722,-2.0473,-2.0783,-2.1542,-2.1542,-2.1667,-2.1803,-2.2359,-2.2431,-2.2167,-2.2718,-2.2842,-2.2682,-2.2609,-2.2834,0.0,0.0,0.0,0.0,0.0,0.0,0.0,-2.4702,-2.4852,-2.4642,-2.4791,-2.4935,-2.4918,0.0,-2.5444,0.0,0.0,0.0,0.0,0.0,0.0,0.0,0.0,0.0,0.0,0.0,0.0,0.0,0.0,0.0,0.0,0.0,0.0,0.0,0.0,0.0,0.0,0.0,0.0,0.0,0.0,0.0,0.0,0.0,0.0,0.0,0.0,0.0,-4.458,-4.458,-4.458,-4.458,0.0,-4.458,-4.458,-4.4599,-4.4501,-4.4612,-4.4872,-4.5133,-4.5451,-4.5794,-4.5854,-4.5938,-4.6063,-4.605,-4.6141,-4.6257,-4.6257,-4.6278,-4.6426,0.0,0.0,0.0,0.0,0.0,0.0,0.0,0.0,0.0,0.0,0.0,0.0,0.0,0.0,0.0,0.0,0.0,0.0,0.0,0.0,-1.6904,-1.7118,-1.7873,-1.8273,-1.8201,-1.9251,-2.008,-2.0663,-1.9948,-2.0191,-2.1259,-2.1267,-2.1457,-2.1704,-2.2005,-2.1981,-2.1753,-2.2342,-2.2209,-2.1793,-2.2654,-2.2852,-2.2688,-2.2981,-2.3216,-2.3368,-2.3393,0.0,0.0,0.0,0.0,0.0,0.0,0.0,-2.5198,-2.4902,-2.5337,-2.574,0.0,0.0,0.0,0.0,0.0,0.0,0.0,0.0,0.0,0.0,0.0,0.0,0.0,0.0,0.0,0.0,0.0,0.0,0.0,0.0,0.0,0.0,0.0,0.0,0.0,0.0,0.0,0.0,0.0,0.0,0.0,0.0,0.0,0.0,-4.5096,-4.5096,-4.5096,-4.5096,-4.5096,-4.5096,-4.5096,-4.5096,-4.5055,-4.4919,-4.5049,-4.5438,-4.5513,-4.5688,-4.5948,-4.5993,-4.6069,-4.6201,-4.6201,-4.6245,-4.6308,-4.6308,-4.6308,-4.6367,0.0,0.0,0.0,0.0,0.0,0.0,0.0,0.0,0.0,0.0,0.0,0.0,0.0,0.0,0.0,0.0,0.0,0.0,0.0,0.0,0.0,-1.7788,-1.8854,-1.9374,-1.9278,-2.0319,-2.0882,-2.0955,-2.1383,-2.1652,-2.173,-2.2141,-2.2142,-2.1842,-2.2212,-2.2103,-2.1771,-2.2126,-2.1989,-2.1564,-2.2548,-2.2843,-2.2763,-2.3278,-2.3474,-2.3494,-2.3553,-2.3668,-2.3839,-2.3839,0.0,0.0,0.0,0.0,-2.5472,-2.4957,-2.5473,-2.6089,0.0,0.0,0.0,0.0,0.0,0.0,0.0,0.0,0.0,0.0,0.0,0.0,0.0,0.0,0.0,0.0,0.0,0.0,0.0,0.0,0.0,0.0,0.0,0.0,0.0,0.0,0.0,0.0,0.0,0.0,0.0,0.0,-4.4882,-4.5163,-4.5163,-4.5163,-4.5163,-4.5163,-4.524,-4.5374,-4.5393,-4.5413,-4.5393,-4.5169,-4.5323,-4.5796,-4.5822,-4.5921,-4.6102,-4.6113,-4.6191,-4.6308,-4.6308,-4.6308,-4.6308,-4.6308,-4.6308,-4.6308,0.0,0.0,0.0,0.0,0.0,0.0,0.0,0.0,0.0,0.0,0.0,0.0,0.0,0.0,0.0,0.0,0.0,0.0,-1.7854,0.0,0.0,-1.8549,-1.9433,-1.9938,-2.006,-2.0989,-2.1655,-2.2108,-2.2474,0.0,0.0,0.0,0.0,-2.3795,-2.3458,-2.3358,-2.331,-2.2769,-2.2259,-2.1863,-2.2008,-2.2142,-2.2297,-2.2414,-2.2929,-2.361,-2.3711,-2.3839,-2.3982,-2.4124,-2.44,0.0,0.0,0.0,-2.5518,-2.5567,-2.5897,-2.6405,0.0,0.0,0.0,0.0,0.0,0.0,0.0,0.0,0.0,0.0,0.0,0.0,0.0,0.0,0.0,0.0,0.0,0.0,0.0,0.0,0.0,0.0,0.0,0.0,0.0,0.0,0.0,0.0,0.0,0.0,0.0,-4.3361,-4.3398,-4.3431,-4.3431,-4.3431,-4.3431,-4.3431,-4.3778,-4.447,-4.4587,-4.4662,-4.4641,-4.4724,-4.5147,-4.5794,-4.5859,-4.5977,-4.6114,-4.6229,-4.6285,-4.6308,-4.6308,-4.6308,-4.6308,-4.6308,-4.6308,-4.6308,0.0,0.0,0.0,0.0,0.0,0.0,0.0,0.0,0.0,0.0,0.0,0.0,0.0,0.0,0.0,-1.7744,-1.77,-1.7755,-1.7909,-1.8641,-1.9142,-1.918,-2.0145,-2.0561,-2.0348,-2.1569,-2.2172,-2.2028,0.0,0.0,0.0,-2.4696,-2.4789,0.0,0.0,-2.4108,-2.3487,-2.2924,-2.218,-2.1459,-2.1779,-2.1847,-2.1868,-2.3027,-2.3358,-2.3288,-2.4169,-2.4301,-2.4124,-2.4166,-2.4467,-2.4879,-2.4902,0.0,0.0,0.0,0.0,0.0,-2.776,0.0,0.0,0.0,0.0,0.0,0.0,0.0,0.0,0.0,0.0,0.0,0.0,0.0,0.0,0.0,0.0,0.0,0.0,0.0,0.0,0.0,0.0,0.0,0.0,0.0,0.0,0.0,0.0,0.0,-4.3069,-4.3104,-4.3104,-4.3104,-4.3104,-4.3104,-4.3104,-4.3143,-4.3376,-4.3801,-4.3857,-4.3871,-4.3904,-4.395,-4.4694,-4.5967,-4.5989,-4.6088,-4.6227,-4.6278,-4.6308,-4.6308,-4.6308,-4.6308,-4.6308,-4.6308,-4.6308,-4.6287,0.0,0.0,0.0,0.0,0.0,0.0,0.0,0.0,0.0,0.0,0.0,0.0,0.0,0.0,0.0,0.0,-1.7865,-1.7865,-1.7963,-1.8881,-1.946,-1.9656,-2.0523,-2.0882,-2.0671,-2.2024,-2.2464,-2.2047,0.0,0.0,-2.5138,-2.5872,-2.5966,0.0,-2.5202,-2.4518,0.0,0.0,-2.2123,-2.1322,-2.1406,-2.1472,-2.1577,-2.2861,-2.3008,-2.2712,-2.4,-2.4249,-2.3994,-2.4204,-2.4614,-2.5059,-2.5098,-2.5668,0.0,0.0,0.0,0.0,0.0,0.0,0.0,0.0,0.0,0.0,0.0,0.0,0.0,0.0,0.0,0.0,0.0,0.0,0.0,0.0,0.0,0.0,0.0,0.0,0.0,0.0,0.0,0.0,0.0,0.0,0.0,0.0,0.0,0.0,-4.2415,-4.2431,-4.245,-4.2489,-4.2489,-4.2489,-4.2508,-4.2564,-4.2536,-4.2429,-4.2678,-4.2898,-4.3121,-4.3131,-4.4122,-4.5815,-4.5776,-4.5966,-4.6308,-4.6308,-4.6308,-4.6308,-4.6308,-4.6308,-4.6308,-4.6308,-4.628,-4.6234,0.0,0.0,0.0,0.0,0.0,0.0,0.0,0.0,0.0,0.0,0.0,0.0,-1.7711,-1.781,-1.7909,-1.7897,-1.803,-1.8084,-1.8084,-1.8583,-1.9158,-1.9759,-2.022,0.0,-2.1334,-2.2235,-2.268,0.0,0.0,0.0,-2.594,-2.6512,-2.6867,-2.6946,-2.5353,-2.4394,-2.4001,0.0,0.0,-2.2106,-2.0831,-2.0813,-2.1525,-2.0782,-2.1063,-2.1958,0.0,0.0,-2.3366,-2.4215,-2.4934,-2.5503,-2.561,-2.6208,-2.6876,0.0,0.0,0.0,0.0,0.0,0.0,0.0,0.0,0.0,0.0,0.0,0.0,0.0,0.0,0.0,0.0,0.0,0.0,0.0,0.0,0.0,0.0,0.0,0.0,0.0,0.0,0.0,0.0,0.0,0.0,0.0,0.0,0.0,-4.0623,-4.0642,-4.0696,-4.0831,-4.0831,-4.087,-4.0927,-4.0915,-4.0544,-3.9816,-4.0694,-4.1555,-4.2352,-4.241,-4.3412,-4.5049,-4.4914,-4.5412,-4.6308,-4.6308,-4.6308,-4.6308,-4.6308,-4.6308,-4.6308,-4.6308,-4.6215,-4.6114,0.0,0.0,0.0,0.0,0.0,0.0,0.0,0.0,0.0,0.0,0.0,0.0,0.0,-1.7975,-1.8084,-1.8193,-1.8259,-1.8572,-1.9133,-1.9344,-1.9708,-2.0308,-2.0772,-2.1166,-2.1361,-2.2123,0.0,0.0,0.0,-2.5637,-2.6153,-2.7124,-2.745,-2.7195,-2.6408,-2.5673,-2.491,-2.4409,0.0,0.0,0.0,0.0,0.0,0.0,0.0,0.0,0.0,0.0,0.0,-2.4356,-2.5114,-2.5684,-2.5994,-2.6435,-2.6926,0.0,0.0,0.0,0.0,0.0,0.0,0.0,0.0,0.0,0.0,0.0,0.0,0.0,0.0,0.0,0.0,0.0,0.0,0.0,0.0,0.0,0.0,0.0,0.0,0.0,0.0,0.0,0.0,0.0,0.0,0.0,0.0,0.0,-3.8954,-3.8969,-3.9012,-3.9169,-3.9161,-3.9192,-3.9265,-3.9262,-3.9432,-3.9803,-4.0126,-4.0746,-4.1582,-4.162,-4.226,-4.3364,-4.3871,-4.4926,-4.6308,-4.6308,-4.6308,-4.6308,-4.6308,-4.6308,-4.6308,-4.6308,-4.622,-4.6084,0.0,0.0,0.0,0.0,0.0,0.0,0.0,0.0,0.0,0.0,0.0,0.0,0.0,0.0,-1.8302,-1.8625,-1.8679,-1.8987,-1.9747,-1.9798,-2.0055,-2.056,-2.0957,-2.1215,-2.1471,-2.217,0.0,0.0,0.0,0.0,0.0,-2.7511,-2.7825,-2.7333,-2.7039,-2.6528,0.0,0.0,0.0,-2.4396,0.0,0.0,-2.2438,0.0,0.0,0.0,0.0,0.0,0.0,0.0,0.0,0.0,0.0,0.0,0.0,0.0,0.0,0.0,0.0,0.0,0.0,0.0,0.0,0.0,0.0,0.0,0.0,0.0,0.0,0.0,0.0,0.0,0.0,0.0,0.0,0.0,0.0,0.0,0.0,0.0,0.0,0.0,0.0,0.0,0.0,0.0,0.0,0.0,-3.8161,-3.8163,-3.8221,-3.8331,-3.8382,-3.8286,-3.8035,-3.8024,-3.8507,-3.9453,-3.9453,-4.0078,-4.1191,-4.1191,-4.1641,-4.2441,-4.332,-4.4512,-4.5898,-4.6172,-4.6308,-4.6308,-4.6308,-4.6276,-4.6228,-4.6228,-4.6122,-4.5988,0.0,0.0,0.0,0.0,0.0,0.0,0.0,0.0,0.0,-1.6277,0.0,0.0,0.0,0.0,0.0,-1.9186,-1.9226,-1.9384,-1.9798,-1.985,-2.0067,-2.0636,-2.0636,-2.0947,-2.1609,0.0,0.0,0.0,0.0,0.0,0.0,0.0,-2.7959,-2.7485,-2.7161,-2.6912,-2.6686,0.0,-2.585,-2.5596,0.0,-2.2789,-2.4238,0.0,0.0,0.0,-2.3894,-2.3774,0.0,0.0,0.0,0.0,0.0,0.0,0.0,0.0,0.0,0.0,0.0,0.0,0.0,0.0,0.0,0.0,0.0,0.0,0.0,0.0,0.0,0.0,0.0,0.0,0.0,0.0,0.0,0.0,0.0,0.0,0.0,0.0,0.0,0.0,0.0,0.0,0.0,0.0,0.0,-3.8084,-3.8234,-3.8228,-3.8268,-3.8319,-3.8458,-3.8125,-3.7266,-3.7266,-3.7695,-3.8555,-3.8594,-3.9492,-4.1152,-4.1191,-4.1621,-4.2402,-4.3281,-4.4141,-4.498,-4.5918,-4.6308,-4.6308,-4.6308,-4.6215,-4.6103,-4.6103,-4.5969,-4.5796,0.0,0.0,0.0,0.0,0.0,0.0,0.0,0.0,-1.5537,0.0,0.0,0.0,-1.8255,-1.8786,-1.9303,-1.9734,-1.9786,-2.0093,-2.0921,-2.061,-2.0793,-2.1783,-2.1847,-2.2113,-2.2726,0.0,0.0,0.0,0.0,0.0,0.0,0.0,0.0,0.0,-2.7743,-2.7709,-2.7879,-2.7018,0.0,0.0,-2.5218,-2.4178,0.0,0.0,0.0,0.0,0.0,-2.3335,0.0,0.0,-2.5787,-2.6821,0.0,0.0,0.0,0.0,0.0,0.0,-2.9672,0.0,0.0,0.0,0.0,0.0,0.0,0.0,0.0,0.0,0.0,0.0,0.0,0.0,0.0,0.0,0.0,0.0,0.0,0.0,0.0,0.0,0.0,0.0,0.0,0.0,0.0,0.0,-3.6682,-3.6424,-3.6559,-3.6619,-3.6638,-3.6668,-3.6692,-3.6601,-3.6367,-3.6367,-3.6797,-3.7676,-3.8301,-3.918,-4.0273,-4.0918,-4.1328,-4.1582,-4.2402,-4.2891,-4.3281,-4.543,-4.6308,-4.6308,-4.6308,-4.6215,-4.6103,-4.6103,-4.5969,-4.5796,0.0,0.0,0.0,0.0,0.0,0.0,-1.6029,-1.6127,-1.6657,0.0,0.0,0.0,-1.9347,-2.0003,-2.0467,-2.0682,-2.094,-2.1275,-2.1754,-2.172,-2.1963,-2.262,-2.2698,-2.2861,-2.328,0.0,0.0,0.0,0.0,0.0,0.0,0.0,0.0,0.0,0.0,0.0,0.0,0.0,0.0,0.0,-2.5788,0.0,0.0,-2.332,-2.2795,0.0,0.0,0.0,-2.5259,-2.5208,-2.6348,0.0,0.0,0.0,0.0,0.0,0.0,0.0,0.0,0.0,0.0,0.0,0.0,0.0,0.0,0.0,0.0,0.0,0.0,0.0,0.0,0.0,0.0,0.0,0.0,0.0,0.0,0.0,0.0,0.0,0.0,0.0,0.0,0.0,0.0,0.0,-3.6028,-3.5824,-3.5943,-3.5971,-3.5996,-3.5996,-3.5996,-3.5996,-3.5996,-3.5996,-3.6445,-3.7305,-3.8184,-3.9062,-3.9922,-4.0801,-4.1191,-4.123,-4.2051,-4.2597,-4.3045,-4.4972,-4.5762,-4.5781,-4.6108,-4.6124,-4.6013,-4.5998,-4.5873,-4.5719,0.0,0.0,0.0,-1.533,-1.5832,-1.6337,-1.6699,-1.7251,-1.7921,0.0,-1.9095,-1.9661,-2.0752,-2.147,-2.1869,-2.1799,-2.2326,-2.2617,-2.239,-2.2877,-2.3216,-2.3283,-2.3336,-2.3416,-2.3589,-2.4562,0.0,0.0,0.0,0.0,0.0,0.0,0.0,0.0,0.0,0.0,0.0,0.0,0.0,-2.8139,-2.5431,-2.5448,0.0,0.0,-2.4036,0.0,-2.4941,-2.5749,-2.6919,-2.585,-2.667,0.0,0.0,0.0,0.0,0.0,-3.0576,0.0,0.0,0.0,0.0,0.0,0.0,0.0,-3.2051,-3.1885,0.0,0.0,0.0,0.0,0.0,0.0,0.0,0.0,0.0,0.0,0.0,0.0,0.0,0.0,0.0,0.0,0.0,0.0,-3.555,-3.5689,-3.5834,-3.5937,-3.5995,-3.5996,-3.5996,-3.5996,-3.5996,-3.5996,-3.5996,-3.5996,-3.6387,-3.7168,-3.8144,-3.9004,-3.9785,-4.0762,-4.1191,-4.123,-4.1953,-4.2721,-4.3528,-4.4481,-4.4958,-4.5193,-4.5829,-4.6018,-4.589,-4.5812,-4.5719,-4.5586,0.0,0.0,-1.6238,-1.6238,-1.6772,-1.7314,-1.7738,-1.8006,-1.8493,-1.9497,-2.0141,-2.0612,-2.0894,-2.1848,-2.247,-2.2405,-2.2844,-2.3082,-2.3013,-2.3121,-2.3405,-2.392,-2.4055,-2.4327,-2.4819,-2.5912,-2.6586,0.0,0.0,0.0,0.0,0.0,0.0,0.0,0.0,0.0,0.0,0.0,0.0,-2.6945,-2.647,0.0,-2.5227,-2.4361,-2.372,-2.3408,-2.4177,-2.4954,-2.5786,0.0,-2.7706,-2.8237,0.0,0.0,0.0,0.0,0.0,0.0,0.0,0.0,0.0,0.0,0.0,0.0,-3.4054,-3.3949,0.0,0.0,0.0,0.0,0.0,0.0,0.0,0.0,0.0,0.0,0.0,0.0,0.0,0.0,0.0,0.0,0.0,0.0,-3.4998,-3.5651,-3.5864,-3.5986,-3.5996,-3.5996,-3.5996,-3.5996,-3.5996,-3.5996,-3.5996,-3.5996,-3.6094,-3.6269,-3.7851,-3.8691,-3.8906,-4.0488,-4.1191,-4.1211,-4.1367,-4.1883,-4.271,-4.3578,-4.4712,-4.5896,-4.6054,-4.602,-4.5893,-4.583,-4.5719,-4.5586,0.0,0.0,-1.7018,-1.7449,-1.812,-1.8674,-1.9059,-1.9509,-2.0109,-2.0822,-2.1865,-2.2523,-2.2523,-2.331,-2.377,-2.3474,-2.4014,-2.4231,-2.3916,-2.4176,-2.4491,-2.4792,-2.4861,-2.5053,-2.5355,-2.639,-2.6953,-2.7122,0.0,0.0,0.0,0.0,0.0,0.0,0.0,0.0,0.0,0.0,-2.8466,-2.7534,-2.6432,0.0,-2.4377,-2.401,-2.3707,-2.3646,-2.4507,-2.5144,-2.5889,-2.7851,-2.8506,0.0,0.0,-2.9918,-3.0771,0.0,-3.2047,-3.2109,0.0,0.0,0.0,-3.4367,0.0,0.0,0.0,-3.4033,0.0,0.0,0.0,0.0,0.0,0.0,0.0,0.0,0.0,0.0,0.0,0.0,0.0,0.0,0.0,0.0,0.0,0.0,-3.4881,-3.5775,-3.5541,-3.5547,-3.5976,-3.5996,-3.5996,-3.5996,-3.5977,-3.5956,-3.5956,-3.5875,-3.5845,-3.5864,-3.7175,-3.8053,-3.8535,-3.9863,-4.0723,-4.1191,-4.1191,-4.1885,-4.3034,-4.3481,-4.4573,-4.6007,-4.6007,-4.5954,-4.5873,-4.5757,-4.5643,-4.5586,-1.7868,0.0,0.0,-1.8644,-1.9531,-2.0205,-2.0309,-2.1107,-2.1852,-2.2261,-2.323,-2.3838,-2.3838,0.0,0.0,-2.3987,-2.4409,-2.4682,0.0,0.0,0.0,-2.5025,-2.537,-2.537,-2.508,-2.6222,-2.6953,-2.7174,0.0,0.0,0.0,0.0,0.0,0.0,0.0,0.0,0.0,0.0,0.0,-2.8091,0.0,-2.5275,-2.482,-2.4101,-2.4269,-2.4951,-2.524,-2.5689,-2.6407,-2.8414,0.0,-2.8866,-2.8819,-2.9693,0.0,0.0,0.0,0.0,0.0,0.0,0.0,0.0,0.0,-3.5001,0.0,0.0,0.0,0.0,0.0,0.0,0.0,0.0,0.0,0.0,0.0,0.0,0.0,0.0,0.0,0.0,0.0,0.0,0.0,0.0,-3.4604,-3.5448,-3.5,-3.5019,-3.5703,-3.5909,-3.5977,-3.5977,-3.59,-3.5862,-3.5853,-3.5747,-3.5702,-3.5702,-3.6592,-3.7488,-3.8417,-3.9287,-4.0209,-4.1126,-4.1126,-4.2044,-4.354,-4.3373,-4.4328,-4.5907,-4.5886,-4.588,-4.5853,-4.568,-4.5586,-4.5586,-1.8189,-1.8805,0.0,-1.9492,-2.0739,-2.1628,-2.1203,-2.2152,-2.2978,-2.3051,-2.3017,0.0,0.0,0.0,0.0,0.0,0.0,0.0,-2.3906,0.0,0.0,-2.3351,-2.4873,-2.4996,-2.3576,-2.5501,-2.6864,-2.7464,-2.7929,0.0,0.0,0.0,0.0,0.0,-2.7585,0.0,0.0,0.0,-2.6694,0.0,-2.665,-2.7174,0.0,-2.6112,-2.5968,-2.663,-2.6108,-2.6227,-2.6877,0.0,-2.8679,-2.8352,0.0,-3.04,0.0,0.0,0.0,0.0,0.0,0.0,0.0,0.0,-3.5696,0.0,0.0,0.0,0.0,0.0,0.0,-3.4725,-3.5018,0.0,0.0,0.0,0.0,0.0,0.0,0.0,0.0,0.0,0.0,0.0,0.0,0.0,0.0,-3.3671,-3.4316,-3.4746,-3.4844,-3.5523,-3.5912,-3.5912,-3.5785,-3.5728,-3.5718,-3.5701,-3.5695,-3.5695,-3.6569,-3.7463,-3.8338,-3.9207,-4.0071,-4.085,-4.085,-4.1824,-4.3366,-4.2594,-4.3698,-4.5892,-4.5828,-4.5811,-4.5796,-4.5643,-4.5586,-4.5586,-1.8879,-1.9244,0.0,0.0,-2.124,-2.2149,-2.2571,-2.3512,-2.4198,-2.4218,-2.4445,0.0,0.0,0.0,0.0,0.0,0.0,0.0,0.0,0.0,0.0,0.0,0.0,0.0,0.0,-2.6582,-2.7558,-2.7515,-2.8207,-2.8764,0.0,0.0,0.0,0.0,-2.7332,0.0,-2.7503,0.0,0.0,0.0,0.0,0.0,0.0,-2.6824,-2.6287,-2.6805,-2.6514,-2.679,-2.7368,0.0,-2.8386,0.0,0.0,0.0,0.0,0.0,0.0,0.0,0.0,0.0,0.0,0.0,0.0,0.0,0.0,0.0,-3.5445,0.0,0.0,0.0,0.0,0.0,0.0,0.0,0.0,0.0,0.0,0.0,0.0,0.0,0.0,0.0,0.0,0.0,0.0,0.0,0.0,-3.3654,-3.4583,-3.4971,-3.5339,-3.5776,-3.5685,-3.5647,-3.5641,-3.5603,-3.5584,-3.5603,-3.6444,-3.7329,-3.8267,-3.9097,-3.9971,-4.0803,-4.0803,-4.1499,-4.2654,-4.2718,-4.3665,-4.5122,-4.5526,-4.5738,-4.5776,-4.5643,-4.5586,-4.5586,-2.0251,0.0,0.0,0.0,0.0,-2.2962,-2.397,-2.4733,0.0,0.0,0.0,0.0,-2.6552,-2.6078,0.0,0.0,0.0,-2.3892,0.0,0.0,-2.4806,0.0,0.0,0.0,0.0,-2.7158,-2.7957,-2.7715,-2.84,-2.8858,0.0,0.0,0.0,0.0,0.0,-2.7483,-2.6992,0.0,0.0,-2.8622,-2.9042,-2.928,-2.9118,-2.7379,-2.6628,-2.6505,-2.6657,-2.7046,-2.752,-2.7657,-2.8522,0.0,-2.92,0.0,0.0,0.0,0.0,0.0,-3.3852,0.0,0.0,0.0,0.0,0.0,0.0,0.0,0.0,0.0,0.0,0.0,0.0,0.0,-3.5716,0.0,0.0,0.0,0.0,0.0,0.0,0.0,0.0,0.0,0.0,0.0,0.0,0.0,0.0,0.0,-3.3827,-3.4301,-3.4762,-3.5295,-3.5699,-3.5911,-3.5911,-3.5853,-3.5949,-3.6199,-3.6315,-3.7123,-3.8503,-3.8849,-3.9638,-4.0716,-4.0716,-4.1197,-4.204,-4.2335,-4.3239,-4.4487,-4.4778,-4.524,-4.5738,-4.5624,-4.5586,-4.5586,-2.245,-2.2631,0.0,0.0,0.0,0.0,0.0,0.0,0.0,0.0,0.0,0.0,0.0,0.0,0.0,0.0,0.0,-2.2365,-2.3285,0.0,-2.299,0.0,0.0,-2.592,0.0,-2.6298,-2.778,-2.8288,-2.8288,-2.8606,0.0,0.0,0.0,0.0,0.0,-2.8793,-2.877,-2.7956,-2.7591,-2.7534,-2.713,-2.6939,-2.6945,0.0,-2.7491,-2.6085,-2.6556,0.0,0.0,-2.9501,-2.9206,0.0,0.0,0.0,0.0,0.0,0.0,0.0,0.0,0.0,0.0,-3.4961,0.0,0.0,0.0,0.0,-3.6647,0.0,0.0,0.0,0.0,-3.5889,-3.5632,-3.4853,0.0,0.0,0.0,0.0,0.0,0.0,0.0,0.0,0.0,0.0,0.0,0.0,0.0,0.0,-3.2081,-3.35,-3.4327,-3.4347,-3.5853,-3.6661,-3.6661,-3.6661,-3.7084,-3.7892,-3.6295,-3.6853,-3.9238,-3.8411,-3.895,-4.0508,-4.0508,-4.0989,-4.1758,-4.0912,-4.2047,-4.422,-4.347,-4.4162,-4.5605,-4.5586,-4.5586,-4.5586,0.0,0.0,0.0,0.0,0.0,0.0,0.0,-2.6653,0.0,0.0,0.0,0.0,0.0,0.0,-2.6669,0.0,0.0,-2.3682,-2.4007,-2.4749,0.0,0.0,0.0,-2.8047,-2.5399,-2.7733,-2.8779,-2.8288,-2.8748,-2.9044,0.0,0.0,0.0,0.0,0.0,-2.9135,0.0,0.0,0.0,0.0,0.0,-2.7872,-2.8339,0.0,0.0,-2.647,-2.6657,-2.7351,0.0,-2.8591,-2.9302,-3.0142,-3.0743,-3.0919,-3.113,-3.2274,-3.2657,0.0,0.0,0.0,-3.4802,-3.479,0.0,0.0,0.0,0.0,0.0,0.0,0.0,0.0,0.0,0.0,-3.588,-3.56,-3.5552,0.0,0.0,0.0,0.0,0.0,0.0,0.0,0.0,0.0,0.0,0.0,0.0,0.0,0.0,-3.2859,-3.3686,-3.4218,-3.5834,-3.6699,-3.6699,-3.7276,-3.7719,-3.8007,-3.8007,-3.8469,-3.9296,-3.9546,-3.995,-4.0489,-4.0489,-4.0662,-4.1008,-4.1873,-4.272,-4.3585,-4.4432,-4.5086,-4.5586,-4.5586,-4.5586,-4.5586,-2.4225,0.0,0.0,0.0,0.0,0.0,0.0,0.0,0.0,0.0,-2.8989,0.0,-3.025,0.0,-2.8583,0.0,-2.6347,-2.5436,-2.5208,-2.5859,0.0,-2.5193,-2.777,0.0,0.0,-2.7944,-2.8778,-2.8139,0.0,-2.9305,0.0,0.0,0.0,0.0,0.0,0.0,0.0,0.0,-2.909,0.0,0.0,-2.8013,0.0,0.0,-2.7572,-2.7572,0.0,-2.7554,-2.8213,-2.8535,-2.9245,-3.0078,-3.0534,-3.0979,-3.146,-3.2509,-3.2934,-3.3207,-3.377,-3.4062,0.0,-3.4653,-3.487,0.0,-3.5551,0.0,0.0,0.0,0.0,0.0,0.0,0.0,0.0,-3.5581,-3.5532,-3.5224,0.0,-3.3723,0.0,0.0,0.0,0.0,0.0,0.0,0.0,-3.1922,-3.1352,0.0,0.0,0.0,-3.334,-3.416,-3.6122,-3.7161,-3.7161,-3.8027,-3.8604,-3.8892,-3.8854,-3.9142,-3.9719,-3.9969,-4.0219,-4.0489,-4.0489,-4.0489,-4.0585,-4.17,-4.2547,-4.3201,-4.4278,-4.5066,-4.5586,-4.5586,-4.5586,-4.5586,0.0,0.0,0.0,0.0,-2.6889,0.0,0.0,0.0,-3.0151,0.0,-3.0365,-3.101,-3.104,-3.0301,-2.9584,-2.8943,-2.8117,0.0,-2.6681,-2.6484,0.0,0.0,-2.6409,-2.6317,-2.5121,0.0,0.0,0.0,0.0,0.0,0.0,0.0,0.0,0.0,-3.3291,0.0,-3.0183,-3.125,-2.9776,-2.6759,-2.752,-2.7418,-2.7029,-2.8418,0.0,-2.923,-2.8201,-2.7419,-2.7199,-2.9386,-2.92,-2.8473,-3.1042,-3.1341,-3.1096,-3.2719,-3.3214,-3.3273,-3.3707,-3.3895,-3.4105,-3.4591,0.0,0.0,0.0,0.0,-3.6745,0.0,0.0,0.0,0.0,0.0,0.0,-3.4898,-3.4766,-3.4464,-3.3632,0.0,0.0,0.0,0.0,0.0,0.0,0.0,-3.2849,-3.2016,-3.1854,-3.1804,0.0,0.0,-3.3333,-3.416,-3.6622,-3.7969,-3.8007,-3.8854,-3.97,-4.0469,-3.8873,-3.895,-4.0469,-3.97,-3.9777,-4.0489,-4.0489,-4.0489,-4.0508,-4.0585,-4.1604,-4.3104,-4.3181,-4.4201,-4.5586,-4.5586,-4.5586,-4.5586,-2.5005,-2.5819,-2.6894,0.0,-2.7737,-2.7876,0.0,0.0,0.0,0.0,-3.1543,-3.2121,-3.1456,-3.0728,-3.0271,-3.0048,-2.8962,0.0,0.0,0.0,0.0,-2.5659,-2.7697,-2.8098,-2.6502,-2.8396,0.0,-2.9811,0.0,0.0,-3.2204,0.0,0.0,0.0,0.0,0.0,-3.0589,-3.1472,-2.9848,-2.6759,-2.752,-2.8305,0.0,0.0,-2.8954,-2.9937,-2.8724,-2.8704,-2.9394,-2.9974,-3.069,-3.139,-3.2089,-3.2209,-3.2186,-3.2991,-3.3214,-3.3273,-3.3707,-3.3834,-3.3979,-3.4569,-3.4714,-3.4887,0.0,0.0,0.0,0.0,0.0,0.0,0.0,0.0,0.0,0.0,0.0,0.0,0.0,0.0,0.0,0.0,0.0,0.0,0.0,0.0,-3.2971,-3.2725,-3.2085,-3.1734,-3.1737,0.0,0.0,-3.418,-3.6045,-3.7334,-3.7988,-3.8854,-3.97,-4.0489,-4.0046,-4.0065,-4.0489,-4.0277,-4.0296,-4.0489,-4.0489,-4.0489,-4.0585,-4.1893,-4.2701,-4.322,-4.447,-4.522,-4.5586,-4.5586,-4.5586,-4.5586,-2.5766,0.0,0.0,-2.9001,0.0,0.0,-3.0736,0.0,0.0,-3.1728,-3.2284,0.0,-3.2007,-3.1658,-3.1413,-3.1432,-3.0429,0.0,0.0,0.0,0.0,-2.7288,-2.8446,-2.8463,-2.719,-2.8342,0.0,-3.0389,0.0,0.0,-3.3186,0.0,0.0,0.0,0.0,-3.4391,0.0,-3.127,-2.9867,-2.8391,-2.8135,0.0,0.0,-2.8918,-2.9109,-2.9526,-2.9473,-2.9571,-2.9821,-3.0464,-3.1278,-3.209,-3.2638,-3.2809,-3.2872,-3.3332,-3.3465,-3.355,-3.3884,-3.3986,-3.4117,-3.4715,-3.487,-3.4997,-3.5534,-3.5679,-3.5752,0.0,0.0,0.0,0.0,0.0,0.0,0.0,0.0,0.0,0.0,0.0,0.0,0.0,0.0,0.0,0.0,0.0,-3.2466,-3.2466,-3.2359,-3.2432,0.0,0.0,0.0,-3.5276,-3.6949,-3.8065,-3.8565,-3.9777,-4.0431,-4.0489,-4.0489,-4.0489,-4.0489,-4.0489,-4.0489,-4.0489,-4.0489,-4.0489,-4.0604,-4.197,-4.2758,-4.3278,-4.4951,-4.5586,-4.5586,-4.5586,-4.5586,-4.5586,0.0,0.0,0.0,0.0,0.0,0.0,0.0,-3.2807,0.0,-3.3251,0.0,-3.2905,-3.2765,-3.2749,-3.2688,0.0,0.0,-3.1549,-3.1356,-3.0215,-2.9496,-2.9406,-2.8842,-2.826,-2.7676,-2.793,0.0,0.0,0.0,0.0,0.0,0.0,0.0,0.0,0.0,0.0,0.0,-3.0855,-2.9834,0.0,-2.9088,-2.858,-2.8676,-2.9818,-2.959,-2.8833,-3.0269,-3.0202,-2.9608,-3.1008,-3.1578,-3.1898,-3.2949,-3.3273,-3.3332,-3.3707,-3.3807,-3.3868,-3.4123,-3.42,-3.4338,-3.4944,-3.5105,-3.5193,-3.5542,-3.5659,-3.5745,-3.5886,-3.5961,-3.5995,0.0,0.0,0.0,0.0,0.0,0.0,0.0,0.0,0.0,0.0,0.0,0.0,0.0,0.0,-3.213,-3.213,-3.2775,-3.3477,0.0,0.0,0.0,-3.6661,-3.8161,0.0,-3.945,0.0,-4.12,-4.0662,-4.0546,-4.0489,-4.0489,-4.0489,-4.0489,-4.0489,-4.0489,-4.0546,-4.0739,-4.1604,-4.2547,-4.3566,-4.5028,-4.5586,-4.5586,-4.5586,-4.5586,-4.5586,0.0,0.0,0.0,0.0,0.0,-3.4633,-3.6051,-3.6198,-3.5693,-3.4563,-3.538,0.0,-3.3623,-3.3427,-3.3187,-3.2488,-3.2305,0.0,0.0,0.0,0.0,-2.9406,-2.9278,-2.915,-2.9038,-2.9614,-3.077,0.0,0.0,0.0,0.0,0.0,0.0,0.0,0.0,0.0,-3.2822,-3.0771,0.0,-2.9382,-2.9722,-2.9686,-2.95,-3.0729,-3.0643,-2.9978,-3.0622,-3.0912,-3.1141,-3.2064,-3.283,-3.3424,-3.3625,-3.3707,-3.3707,-3.378,-3.3807,-3.3868,-3.4123,-3.42,-3.4338,-3.4944,-3.5105,-3.5193,-3.56,-3.5698,-3.5755,-3.5929,-3.5992,-3.5996,-3.5995,0.0,0.0,0.0,0.0,0.0,0.0,0.0,0.0,0.0,0.0,0.0,0.0,0.0,0.0,0.0,0.0,0.0,0.0,0.0,0.0,0.0,0.0,0.0,0.0,0.0,-4.0354,-4.1566,-4.0835,-4.0489,-4.0489,-4.0489,-4.0489,-4.0489,-4.0489,-4.0912,-4.1643,-4.2508,-4.3778,-4.5182,-4.549,-4.5586,-4.5586,-4.5586,-4.5586,-4.5586,0.0,0.0,0.0,0.0,0.0,0.0,0.0,-3.8164,0.0,-3.6065,-3.5399,-3.4841,-3.4169,-3.3762,-3.3515,-3.3501,-3.2794,-3.2059,-3.1383,-3.0998,-3.0658,-3.0351,-3.0335,0.0,-3.0335,-3.0276,-3.1308,-3.3471,0.0,0.0,0.0,0.0,0.0,0.0,0.0,-3.6131,0.0,0.0,0.0,-3.1635,-3.0874,-3.0697,-3.0892,-3.1263,-3.1156,-3.0901,-3.1553,-3.1897,-3.2082,-3.2485,-3.3128,-3.3807,-3.3807,-3.3807,-3.3807,-3.3807,-3.3807,-3.3895,-3.4353,-3.4445,-3.4614,-3.5155,-3.5304,-3.5488,-3.6219,-3.6008,-3.5889,-3.6541,-3.6309,-3.5996,-3.5996,-3.6719,0.0,0.0,0.0,0.0,0.0,0.0,0.0,0.0,0.0,0.0,0.0,0.0,0.0,0.0,0.0,0.0,0.0,0.0,0.0,0.0,0.0,0.0,0.0,0.0,0.0,-4.1123,-4.07,-4.0489,-4.0489,-4.0489,-4.0489,-4.0527,-4.0969,-4.1412,-4.1912,-4.3181,-4.4451,-4.5586,-4.5586,-4.5586,-4.5586,-4.5586,-4.5586,-4.5586,0.0,-3.4083,0.0,0.0,-3.659,0.0,0.0,-3.9188,-3.9194,-3.7303,-3.5544,-3.4518,-3.4767,-3.4286,-3.4089,-3.4462,-3.3423,-3.2611,-3.2347,-3.1749,-3.136,-3.1207,-3.119,-3.119,-3.119,-3.0632,-3.1397,0.0,0.0,0.0,0.0,0.0,0.0,0.0,0.0,0.0,0.0,0.0,-3.3283,-3.3628,-3.1934,-3.1628,-3.2117,-3.196,-3.1788,-3.1751,-3.2577,-3.2871,-3.2871,-3.2871,-3.3293,-3.3807,-3.3807,-3.3807,-3.3807,-3.3807,-3.3807,-3.3921,-3.4442,-3.4653,-3.4832,-3.5289,-3.558,-3.5968,-3.6804,-3.6579,-3.6456,-3.734,-3.6855,-3.6289,-3.6289,-3.6836,0.0,0.0,0.0,0.0,0.0,0.0,0.0,0.0,0.0,0.0,0.0,0.0,0.0,0.0,0.0,0.0,0.0,0.0,0.0,0.0,0.0,-3.9488,-4.0489,0.0,-4.1277,0.0,-4.0585,-4.0489,-4.0489,-4.0489,-4.0489,-4.0546,-4.1431,-4.2008,-4.245,-4.3951,-4.497,-4.5586,-4.5586,-4.5586,-4.5586,-4.5586,-4.5586,-4.5586,0.0,0.0,0.0,0.0,0.0,0.0,0.0,-3.912,-3.8802,-3.7894,-3.7624,-3.6983,-3.565,-3.5448,-3.5144,-3.4556,-3.437,-3.3711,-3.2415,-3.2263,-3.1884,-3.1224,-3.119,-3.119,-3.119,-3.1123,-3.163,0.0,0.0,0.0,0.0,0.0,0.0,0.0,0.0,0.0,0.0,-3.3188,-3.2852,-3.2719,-3.2525,-3.2488,-3.2617,-3.3303,-3.3128,-3.2596,-3.3403,-3.3697,-3.3697,-3.3697,-3.3733,-3.3807,-3.3807,-3.3807,-3.3807,-3.3807,-3.3807,-3.3868,-3.4171,-3.4486,-3.4754,-3.5051,-3.5875,-3.6642,-3.6858,-3.7402,-3.7957,-3.8238,-3.7695,-3.7187,-3.7187,-3.7246,-3.7559,0.0,0.0,0.0,0.0,0.0,0.0,0.0,0.0,0.0,0.0,0.0,0.0,0.0,0.0,0.0,0.0,0.0,0.0,-3.6991,0.0,-3.8892,-4.0469,-4.0566,0.0,-4.1681,-4.0873,-4.0489,-4.0489,-4.0489,-4.0489,-4.0546,-4.1431,-4.2662,-4.4143,-4.5086,-4.5528,-4.5586,-4.5586,-4.5586,-4.5586,-4.5586,-4.5586,-4.5586,0.0,0.0,0.0,0.0,0.0,0.0,0.0,-3.999,-3.9873,-3.9135,-3.7972,-3.6823,-3.574,-3.5216,-3.481,-3.4523,-3.3677,-3.2916,-3.2364,-3.1867,-3.1495,-3.1207,-3.119,-3.119,-3.119,-3.119,-3.1664,0.0,0.0,0.0,0.0,0.0,0.0,0.0,0.0,-3.4383,-3.3857,-3.3322,-3.3179,-3.333,-3.333,-3.333,-3.3366,-3.3678,-3.3605,-3.3366,-3.3678,-3.3807,-3.3807,-3.3807,-3.3807,-3.3807,-3.3807,-3.3807,-3.3807,-3.3807,-3.3807,-3.3868,-3.4123,-3.4445,-3.4754,-3.5016,-3.5917,-3.6873,-3.7531,-3.7905,-3.831,-3.9025,-3.817,-3.7305,-3.7305,-3.7305,-3.7402,0.0,0.0,0.0,0.0,0.0,0.0,0.0,0.0,0.0,0.0,0.0,0.0,0.0,0.0,0.0,0.0,0.0,0.0,-3.7599,0.0,-3.9335,-4.0489,-4.0489,-4.0662,-4.1008,-4.0662,-4.0489,-4.0508,-4.1046,-4.1835,-4.2797,-4.3143,-4.397,-4.5105,-4.5451,-4.5586,-4.5586,-4.5586,-4.5586,-4.5586,-4.5586,-4.5586,-4.5586,-3.7519,0.0,-3.804,0.0,-3.8967,-3.895,-3.9968,-4.0528,-4.0643,-3.9898,-3.8525,-3.7237,-3.6307,-3.5513,-3.4984,-3.4827,-3.366,-3.2831,-3.2628,-3.1918,-3.141,-3.1207,-3.119,0.0,-3.1372,-3.1389,-3.1781,-3.2582,-3.3809,0.0,0.0,0.0,0.0,0.0,-3.4237,-3.3924,-3.3978,-3.3448,-3.3419,-3.3807,-3.3807,-3.3807,-3.3807,-3.3807,-3.3807,-3.3807,-3.3807,-3.3807,-3.3807,-3.3807,-3.3807,-3.3807,-3.3807,-3.3807,-3.3815,-3.3902,-3.3928,-3.4042,-3.4568,-3.4762,-3.4984,-3.5661,-3.6454,-3.7334,-3.8315,-3.8681,-3.9037,-3.9849,-3.8961,-3.7949,-3.7715,-3.7461,-3.7305,-3.7305,0.0,0.0,0.0,0.0,0.0,0.0,0.0,-3.2124,-3.3119,0.0,0.0,0.0,0.0,0.0,0.0,0.0,0.0,0.0,0.0,0.0,0.0,-4.0373,-4.0489,-4.0489,-4.0489,-4.0623,-4.0912,-4.1777,-4.297,-4.4297,-4.4297,-4.4778,-4.5586,-4.5586,-4.5586,-4.5586,-4.5586,-4.5586,-4.5586,-4.5586,-4.5586,-4.5586,-3.8704,-3.8971,-3.9191,-3.9935,-4.0054,-4.0054,-4.007,-4.0528,-4.0643,-3.9898,-3.9596,-3.8971,-3.7721,-3.6849,-3.6165,-3.565,-3.4912,-3.4167,-3.344,-3.2679,-3.1952,0.0,0.0,-3.1389,-3.1789,-3.1789,-3.2039,-3.2502,0.0,0.0,-3.4028,0.0,-3.5336,-3.4798,-3.4312,-3.3985,-3.378,-3.3361,-3.3419,-3.3807,-3.3807,-3.3807,-3.3807,-3.3807,-3.3807,-3.3807,-3.3807,-3.3807,-3.3807,-3.3807,-3.3807,-3.3807,-3.3807,-3.3807,-3.3868,-3.4123,-3.4218,-3.4437,-3.5555,-3.5496,-3.5486,-3.7163,-3.7773,-3.82,-3.9084,-3.9892,-4.053,-4.0751,-4.02,-3.9453,-3.8711,-3.7871,-3.7305,-3.7305,0.0,0.0,0.0,0.0,0.0,0.0,-3.4464,-3.4121,-3.3284,0.0,0.0,0.0,0.0,0.0,0.0,0.0,0.0,-3.6916,-3.8469,0.0,-3.9296,-4.0085,-4.0489,-4.0489,-4.0489,-4.095,-4.1816,-4.2701,-4.3528,-4.4297,-4.4297,-4.4778,-4.5586,-4.5586,-4.5586,-4.5586,-4.5586,-4.5586,-4.5586,-4.5586,-4.5586,-4.5586,-3.8811,-3.9378,-3.98,-4.0037,-4.007,-4.007,-4.007,-4.0891,-4.1446,-4.12,-4.1289,-4.0908,-3.958,-3.7952,-3.6724,0.0,-3.5476,-3.4572,0.0,-3.2696,-3.2077,-3.1637,-3.1603,-3.1806,-3.2282,-3.2282,-3.235,-3.2484,0.0,0.0,0.0,-3.5393,-3.4987,-3.3719,-3.3802,-3.3669,-3.339,-3.3243,-3.3419,-3.3807,-3.3807,-3.3807,-3.3807,-3.3807,-3.3807,-3.3807,-3.3807,-3.4156,-3.4541,-3.399,-3.4174,-3.4523,-3.3972,-3.3928,-3.4074,-3.4176,-3.4753,-3.5327,-3.5126,-3.536,-3.5779,-3.6328,-3.709,-3.7936,-3.8779,-3.9835,-4.065,-4.0706,-4.014,-3.9555,-3.9335,-3.8129,-3.7168,-3.7168,-3.6484,0.0,0.0,0.0,0.0,0.0,0.0,-3.3814,0.0,-3.469,0.0,0.0,0.0,0.0,0.0,0.0,0.0,0.0,-3.9565,0.0,-4.0104,-4.0354,-4.0489,-4.0508,-4.1104,-4.2124,-4.3508,-4.3797,-4.4374,-4.5182,-4.5182,-4.5336,-4.5586,-4.5586,-4.5586,-4.5586,-4.5586,-4.5457,-4.5302,-4.5513,-4.5476,-4.5302,-3.9368,-3.9782,-4.007,-4.007,-4.007,-4.0171,-4.0368,-4.1196,-4.1895,-4.2121,-4.2232,-4.1983,-4.1141,-3.9354,0.0,-3.6781,-3.5826,-3.4962,-3.4148,-3.3226,-3.2582,-3.2256,-3.2275,-3.2406,-3.2763,0.0,0.0,-3.2996,-3.4141,-3.484,-3.5156,-3.5652,-3.5187,-3.388,-3.4091,-3.3906,-3.3437,-3.3437,-3.3578,-3.3807,-3.3807,-3.399,-3.4266,-3.4266,-3.4449,-3.4743,-3.4743,-3.5055,-3.5422,-3.4908,-3.5073,-3.5432,-3.5016,-3.4872,-3.4772,-3.4473,-3.5181,-3.6046,-3.595,-3.631,-3.6825,-3.7354,-3.7775,-3.827,-3.909,-3.9888,-4.0523,-4.0681,-4.0327,-3.9934,-3.9652,-3.8482,-3.7435,-3.7126,-3.6406,-3.5879,-3.5821,0.0,0.0,0.0,0.0,0.0,0.0,-3.5106,0.0,0.0,0.0,0.0,0.0,0.0,0.0,-3.933,-4.0138,0.0,-4.0581,-4.0581,-4.07,-4.0989,-4.2181,-4.3297,-4.4316,-4.4643,-4.5086,-4.5586,-4.5586,-4.5586,-4.5586,-4.5586,-4.5586,-4.5586,-4.5586,-4.5476,-4.5322,-4.5513,-4.5476,-4.5322,-4.007,-4.007,0.0,0.0,-4.0121,0.0,-4.081,-4.1446,-4.2062,-4.2616,-4.254,-4.2359,-4.2304,-4.0965,-3.9389,-3.7628,0.0,0.0,0.0,-3.4264,-3.3471,-3.3182,-3.3149,-3.3178,-3.3304,-3.3262,-3.3437,-3.3807,-3.4559,-3.4935,-3.5009,-3.5899,-3.5881,-3.5082,-3.5137,-3.4743,-3.3972,-3.3972,-3.3972,-3.3972,-3.3972,-3.4431,-3.5082,-3.5082,-3.5605,-3.6303,-3.6303,-3.634,-3.6358,-3.6321,-3.634,-3.6415,-3.6604,-3.6349,-3.5821,-3.5111,-3.5609,-3.6659,-3.7713,-3.8031,-3.8389,-3.968,-3.9433,-3.9071,-3.9871,-4.0081,-4.0215,-4.0575,-4.0662,-4.0469,-3.9781,-3.8911,-3.8016,-3.7214,-3.6292,-3.5702,-3.5702,0.0,0.0,0.0,0.0,0.0,0.0,-3.5883,-3.5937,0.0,0.0,0.0,0.0,0.0,-3.9437,-3.9499,-4.0284,-4.0723,-4.0723,-4.0712,-4.1085,-4.1912,-4.3528,-4.4335,-4.4412,-4.522,-4.5586,-4.5586,-4.5586,-4.5586,-4.5586,-4.5586,-4.5586,-4.5586,-4.5586,-4.5586,-4.5568,-4.5586,-4.5586,-4.5568,0.0,0.0,-4.007,-4.007,-4.0449,-4.0733,-4.0856,-4.1793,-4.2519,-4.2655,-4.3014,-4.2983,-4.2378,-4.1956,-4.1321,-4.0263,-3.84,-3.7148,-3.6832,-3.5922,-3.5241,-3.4983,-3.4393,-3.4222,-3.4585,-3.3963,-3.3707,-3.3807,-3.399,-3.4412,-3.5009,-3.5899,-3.6193,-3.6028,-3.6633,-3.645,-3.5716,-3.5716,-3.5716,-3.5716,-3.5716,-3.5826,-3.5991,-3.5991,-3.6119,-3.6303,-3.6303,-3.6688,-3.711,-3.6505,-3.6707,-3.7121,-3.6564,-3.6441,-3.6574,-3.6824,-3.725,-3.7659,-3.7935,-3.8342,-3.8742,-3.9033,-3.9275,-3.9444,-3.9675,-3.9922,-4.0139,-4.0215,-4.0394,-4.0489,-4.0315,-3.9123,-3.8075,-3.7861,-3.6639,-3.57,-3.57,-3.5546,0.0,0.0,-3.5488,-3.5489,-3.5867,-3.5801,-3.6091,0.0,0.0,0.0,0.0,-4.0053,-4.0444,-4.0481,-4.0665,-4.0772,-4.0772,-4.0725,-4.1408,-4.2797,-4.3816,-4.4643,-4.5297,-4.5509,-4.5586,-4.5586,-4.5586,-4.5586,-4.5586,-4.5586,-4.5586,-4.5586,-4.5586,-4.5438,-4.5243,-4.5513,-4.5438,-4.5243,-4.0417,-4.0449,-4.0528,-4.0814,-4.1105,-4.1402,-4.1664,-4.2302,-4.2788,-4.3014,-4.3339,-4.3314,-4.2892,-4.2525,-4.2268,-4.2194,-3.9888,-3.8365,-3.8151,-3.7146,-3.6399,-3.6125,-3.5674,-3.532,-3.5009,-3.4578,-3.4174,-3.3807,-3.4174,-3.478,-3.5624,-3.645,-3.6835,-3.6853,-3.7294,-3.7037,-3.6303,-3.6303,-3.6303,-3.6303,-3.6303,-3.6505,-3.6835,-3.6835,-3.7074,-3.7404,-3.7404,-3.7679,-3.7973,-3.7533,-3.7679,-3.7985,-3.7691,-3.7431,-3.7424,-3.8275,-3.8442,-3.8402,-3.8535,-3.91,-3.9597,-3.9433,-3.9372,-3.9438,-3.9754,-3.984,-3.9943,-4.0232,-4.0389,-4.0489,-4.0489,-3.9161,-3.8046,-3.806,-3.668,-3.5622,-3.5622,-3.593,0.0,-3.6161,-3.6122,-3.6315,-3.6848,-3.6532,-3.6709,-3.7734,0.0,0.0,-3.9766,-4.0552,-4.0946,-4.0885,-4.0894,-4.1052,-4.1388,-4.2027,-4.2777,-4.3662,-4.4489,-4.5143,-4.5586,-4.5586,-4.5586,-4.5586,-4.5586,-4.5586,-4.5586,-4.5586,-4.5586,-4.5586,-4.5586,-4.5495,-4.5342,-4.5531,-4.5495,-4.5342,-4.092,-4.1041,-4.1223,-4.1707,-4.1895,-4.2121,-4.2616,-4.2788,-4.2976,-4.3444,-4.3497,-4.3497,-4.3497,-4.2892,-4.2763,-4.3424,-4.1119,-3.9532,-3.9423,-3.8277,-3.7417,-3.7022,-3.6877,-3.6295,-3.521,-3.4935,-3.4486,-3.3807,-3.4605,-3.5459,-3.6321,-3.711,-3.7551,-3.7661,-3.7661,-3.7294,-3.6652,-3.6652,-3.6652,-3.6652,-3.6652,-3.7055,-3.7661,-3.7661,-3.8102,-3.8707,-3.8707,-3.8707,-3.8707,-3.8707,-3.8707,-3.875,-3.899,-3.8562,-3.8207,-3.9226,-3.9202,-3.8918,-3.932,-3.9954,-4.0441,-4.0158,-3.9668,-3.9389,-3.9901,-3.984,-3.9821,-4.0336,-4.0377,-4.0315,-4.0315,-3.8931,-3.7853,-3.7988,-3.6603,-3.5532,-3.5661,0.0,-3.6526,-3.6526,-3.6642,-3.7046,-3.7849,-3.7491,-3.7609,-3.8554,-3.9414,-3.9961,0.0,-4.0793,-4.1196,-4.121,-4.1104,-4.1368,-4.2092,-4.3588,-4.4316,-4.4316,-4.5182,-4.5586,-4.5586,-4.5586,-4.5586,-4.5586,-4.5586,-4.5586,-4.5586,-4.5586,-4.5586,-4.5586,-4.5586,-4.5586,-4.5586,-4.5586,-4.5586,-4.5586,-4.1534,-4.1664,-4.1664,-4.1793,-4.2203,-4.2577,-4.2711,-4.3087,-4.341,-4.3497,-4.3497,-4.3497,-4.3497,-4.3387,-4.3351,-4.3479,-4.2438,-4.1507,-4.083,-3.9959,-3.9154,-3.8431,-3.7735,-3.6978,-3.6119,-3.4706,-3.3935,-3.3807,-3.4605,-3.5459,-3.6321,-3.711,-3.7845,-3.8505,-3.8505,-3.845,-3.834,-3.834,-3.834,-3.834,-3.834,-3.8395,-3.8505,-3.8505,-3.8597,-3.8707,-3.8707,-3.8707,-3.8707,-3.8707,-3.8707,-3.8707,-3.8732,-3.8688,-3.8656,-3.9053,-3.9137,-3.9201,-3.9812,-4.0243,-4.0441,-4.0158,-4.0022,-3.9901,-3.9731,-3.9859,-4.0042,-4.0139,-3.9802,-3.9488,-3.9488,-3.8065,-3.7142,-3.7873,-3.6603,-3.5738,-3.643,0.0,-3.5699,-3.5699,-3.6386,-3.6939,-3.7151,-3.7791,-3.8597,-3.9589,-3.9805,-4.0215,-4.0957,-4.1131,-4.1497,-4.2153,-4.1517,-4.1481,-4.2085,-4.3684,-4.4414,-4.4316,-4.5182,-4.5586,-4.5586,-4.5586,-4.5586,-4.5586,-4.5586,-4.5586,-4.5586,-4.5586,-4.5586,-4.5586,-4.5586,-4.5586,-4.5586,-4.5586,-4.5586,-4.5586,-4.2162,-4.2302,-4.2382,-4.2657,-4.2958,-4.3142,-4.3142,-4.3339,-4.3497,-4.3497,-4.3497,-4.3497,-4.3497,-4.3497,-4.3497,-4.3497,-4.3149,-4.2598,-4.1809,-4.0598,-3.9717,-3.935,-3.8579,-3.7569,-3.6321,-3.5092,-3.4468,-3.4468,-3.4807,-3.5679,-3.6945,-3.7342,-3.7918,-3.8707,-3.8707,-3.8707,-3.8707,-3.8707,-3.8707,-3.8707,-3.8707,-3.8707,-3.8707,-3.8707,-3.8707,-3.8707,-3.8707,-3.8707,-3.8707,-3.8707,-3.8707,-3.8707,-3.8707,-3.8707,-3.8719,-3.8844,-3.9117,-3.9481,-3.9982,-4.0195,-4.0304,-4.0321,-4.0195,-4.0101,-4.0101,-4.0101,-4.0139,-4.0286,-4.0117,-3.995,-3.995,-3.8931,-3.8238,-3.8623,-3.7257,0.0,0.0,-3.6435,-3.643,-3.6906,-3.7368,-3.8009,-3.8963,-3.9071,-3.9482,-4.041,-4.0561,-4.0781,-4.1172,-4.1601,-4.2012,-4.2392,-4.2862,-4.3178,-4.34,-4.453,-4.5066,-4.5009,-4.5413,-4.5586,-4.5586,-4.5586,-4.5586,-4.5586,-4.5586,-4.5586,-4.5586,-4.5586,-4.5586,-4.5586,-4.5586,-4.5586,-4.5586,-4.5586,-4.5586,-4.5586,-4.277,-4.2902,-4.3014,-4.341,-4.3497,-4.3497,-4.3497,-4.3497,-4.3497,-4.3497,-4.3497,-4.3497,-4.3497,-4.3497,-4.3497,-4.3497,-4.3497,-4.3222,-4.2616,-4.1075,-4.0102,-3.99,-3.8946,-3.7753,-3.6321,-3.5642,-3.5192,-3.499,-3.5404,-3.6248,-3.7507,-3.7679,-3.8102,-3.8707,-3.8707,-3.8707,-3.8707,-3.8707,-3.8707,-3.8707,-3.8707,-3.8707,-3.8707,-3.8707,-3.8707,-3.8707,-3.8707,-3.875,-3.8803,-3.8803,-3.8844,-3.8902,-3.8902,-3.8902,-3.8902,-3.8902,-3.9242,-3.9668,-4.0002,-4.0101,-4.0158,-4.0422,-4.0375,-4.0307,-4.0495,-4.0396,-4.0326,-4.0515,-4.0412,-4.0277,-4.0258,-3.9585,-3.9104,-3.9258,0.0,0.0,0.0,-3.7257,-3.745,-3.8118,-3.844,-3.9129,-4.0432,-4.0247,-4.0331,-4.0994,-4.1139,-4.1191,-4.1191,-4.1953,-4.2568,-4.2939,-4.4086,-4.4654,-4.4511,-4.524,-4.5586,-4.5586,-4.5586,-4.5586,-4.5586,-4.5586,-4.5586,-4.5586,-4.5586,-4.5586,-4.5586,-4.5586,-4.5586,-4.5586,-4.5586,-4.5586,-4.5586,-4.5586,-4.5586,-4.5586,-4.3321,-4.3444,-4.3444,-4.3479,-4.3497,-4.3497,-4.3497,-4.3497,-4.3497,-4.3497,-4.3497,-4.3497,-4.3497,-4.3497,-4.3497,-4.3497,-4.3497,-4.3461,-4.3406,-4.1919,-4.0689,-3.9918,-3.8414,-3.7165,-3.6321,-3.6229,-3.5807,-3.499,-3.656,-3.7367,-3.7514,-3.8267,-3.8652,-3.8707,-3.8707,-3.8707,-3.8707,-3.8707,-3.8707,-3.8707,-3.8707,-3.8707,-3.8707,-3.8707,-3.8707,-3.8707,-3.8707,-3.8855,-3.9072,-3.9072,-3.9282,-3.9529,-3.9529,-3.9529,-3.9529,-3.9529,-3.9576,-3.9668,-4.0002,-4.0101,-4.0158,-4.0422,-4.0585,-4.0662,-4.0677,-4.0719,-4.0758,-4.0773,-4.02,-3.9627,-3.9496,-3.8819,-3.8507,-3.9181,0.0,0.0,-3.8988,-3.8522,-3.8118,-3.819,-3.9022,-3.9642,-3.9766,-4.0577,-4.1111,-4.1188,-4.1191,-4.1191,-4.1191,-4.1953,-4.3075,-4.4566,-4.468,-4.4641,-4.4493,-4.524,-4.5586,-4.5586,-4.5586,-4.5586,-4.5586,-4.5586,-4.5586,-4.5586,-4.5586,-4.5586,-4.5586,-4.5586,-4.5586,-4.5586,-4.5586,-4.5586,-4.5586,-4.5586,-4.5586,-4.5586,-4.3444,-4.3497,-4.3497,-4.3497,-4.3497,-4.3497,-4.3497,-4.3497,-4.3497,-4.3497,-4.3497,-4.3497,-4.3497,-4.3497,-4.3497,-4.3497,-4.3497,-4.3277,-4.2782,-4.2387,-4.1256,-3.9221,-3.856,-3.7863,-3.7055,-3.7037,-3.6872,-3.6541,-3.7184,-3.7753,-3.8248,-3.856,-3.8707,-3.8707,-3.8707,-3.8707,-3.8707,-3.8707,-3.8707,-3.8707,-3.8707,-3.8707,-3.8707,-3.8707,-3.8707,-3.8719,-3.8884,-3.9008,-3.9133,-3.9339,-3.9486,-3.9599,-3.9599,-3.9599,-3.9599,-3.9599,-3.9599,-3.9668,-4.0002,-4.0101,-4.0158,-4.0422,-4.06,-4.0696,-4.0696,-4.0752,-4.0798,-4.0798,-4.0565,-4.0322,-4.0283,-4.0011,-3.9892,-4.0177,0.0,-3.9069,-3.9319,-3.8719,-3.8466,-3.9005,-3.9441,-3.995,-4.0574,-4.0984,-4.1191,-4.1191,-4.1191,-4.1191,-4.1191,-4.1484,-4.2861,-4.5527,-4.4562,-4.4416,-4.5297,-4.549,-4.5586,-4.5586,-4.5586,-4.5586,-4.5586,-4.5586,-4.5586,-4.5586,-4.5586,-4.5586,-4.5586,-4.5586,-4.5586,-4.5586,-4.5586,-4.5586,-4.5586,-4.5586,-4.5586,-4.5586,-4.3497,-4.3497,-4.3497,-4.3497,-4.3497,-4.3497,-4.3497,-4.3497,-4.3497,-4.3497,-4.3497,-4.3497,-4.3497,-4.3497,-4.3497,-4.3497,-4.3597,-4.3314,-4.2521,-4.227,-4.1344,-3.9433,-3.9118,-3.8609,-3.7794,-3.8016,-3.8035,-3.7775,-3.7941,-3.829,-3.8815,-3.875,-3.8707,-3.8707,-3.8707,-3.8707,-3.8707,-3.8707,-3.8707,-3.8707,-3.8707,-3.8707,-3.8707,-3.8707,-3.8707,-3.875,-3.898,-3.9178,-3.9314,-3.9645,-3.98,-3.9884,-3.9884,-3.9884,-3.992,-4.0081,-4.0011,-3.9905,-4.0062,-4.0158,-4.0267,-4.0457,-4.062,-4.0727,-4.0725,-4.082,-4.092,-4.092,-4.092,-4.09,-4.0861,-4.0863,-4.0854,-4.0804,-4.0333,-3.9947,-3.9837,-3.9427,-3.9372,-3.9976,-4.0118,-4.0449,-4.1133,-4.1191,-4.1308,-4.1562,-4.1348,-4.1308,-4.1562,-4.1836,-4.3144,-4.5664,-4.46,-4.4576,-4.5815,-4.5728,-4.5624,-4.5586,-4.5586,-4.5586,-4.5586,-4.5586,-4.5586,-4.5586,-4.5586,-4.5586,-4.5586,-4.5586,-4.5586,-4.5586,-4.5586,-4.5586,-4.5586,-4.5586,-4.5586,-4.5586,-4.3497,-4.3497,-4.3497,-4.3497,-4.3497,-4.3497,-4.3497,-4.3479,-4.3479,-4.3497,-4.3479,-4.3479,-4.3479,-4.3479,-4.3532,-4.3532,-4.3804,-4.3651,-4.2839,-4.1541,-4.0796,-4.0801,-4.0033,-3.9222,-3.8433,-3.9184,-3.9203,-3.8414,-3.8871,-3.908,-3.9099,-3.8844,-3.8707,-3.8707,-3.8707,-3.8707,-3.8707,-3.8707,-3.8707,-3.8707,-3.8707,-3.8707,-3.8707,-3.8707,-3.8707,-3.875,-3.9027,-3.9314,-3.9645,-4.0002,-4.0286,-4.0489,-4.0508,-4.0508,-4.0611,-4.1151,-4.0917,-4.0441,-4.0177,-4.0304,-4.0489,-4.0489,-4.0658,-4.08,-4.0809,-4.1019,-4.1191,-4.1191,-4.1191,-4.1152,-4.1035,-4.1016,-4.0969,-4.0831,-4.0801,-4.0801,-4.0801,-4.0912,-4.1001,-4.0985,-4.1124,-4.1191,-4.1191,-4.1191,-4.1523,-4.2324,-4.166,-4.1562,-4.2383,-4.3223,-4.4101,-4.498,-4.4863,-4.5158,-4.5879,-4.5829,-4.5738,-4.5586,-4.5586,-4.5586,-4.5586,-4.5586,-4.5586,-4.5586,-4.5586,-4.5586,-4.5586,-4.5586,-4.5586,-4.5586,-4.5586,-4.5586,-4.5586,-4.5586,-4.5586,-4.5586,-4.3497,-4.3497,-4.3497,-4.3497,-4.3497,-4.3497,-4.3497,-4.3693,-4.3791,-4.3548,-4.3693,-4.3849,-4.3849,-4.3849,-4.3974,-4.427,-4.4364,-4.3905,-4.2669,-4.1171,-4.0404,-4.0576,-3.9954,-3.9486,-3.9241,-3.9467,-3.9467,-3.9241,-3.9373,-3.9438,-3.9457,-3.9377,-3.9216,-3.8971,-3.8971,-3.8884,-3.8707,-3.8707,-3.8707,-3.8707,-3.8707,-3.8707,-3.8707,-3.8707,-3.8833,-3.9027,-3.9333,-3.9668,-3.9983,-4.0285,-4.0422,-4.0604,-4.1219,-4.0989,-4.0662,-4.1407,-4.1094,-4.0489,-4.0389,-4.0441,-4.0489,-4.0489,-4.0658,-4.08,-4.0809,-4.1019,-4.1191,-4.1191,-4.1191,-4.1191,-4.1152,-4.1601,-4.1776,-4.1179,-4.1548,-4.1685,-4.1021,-4.0961,-4.0999,-4.1003,-4.1029,-4.1104,-4.119,-4.1191,-4.1308,-4.1543,-4.1855,-4.2676,-4.4141,-4.3887,-4.4375,-4.5879,-4.5273,-4.5255,-4.5879,-4.5829,-4.5738,-4.5586,-4.5586,-4.5586,-4.5586,-4.5586,-4.5586,-4.5586,-4.5586,-4.5586,-4.5586,-4.5586,-4.5586,-4.5586,-4.5586,-4.5586,-4.5586,-4.5586,-4.5586,-4.5586,-4.3497,-4.3497,-4.3497,-4.3497,-4.3497,-4.3497,-4.3497,-4.3772,-4.3924,-4.3726,-4.4016,-4.4233,-4.4233,-4.4233,-4.4337,-4.458,-4.4102,-4.3323,-4.2279,-4.0996,-4.0339,-4.0489,-4.0157,-3.9964,-3.9964,-3.9964,-3.9964,-3.9964,-3.9861,-3.9797,-3.9797,-3.9668,-3.9486,-3.9289,-3.9289,-3.9223,-3.9036,-3.8913,-3.8855,-3.8844,-3.8732,-3.8707,-3.8707,-3.8707,-3.8855,-3.9133,-3.9481,-3.9819,-4.0139,-4.0406,-4.0489,-4.07,-4.1931,-4.147,-4.0796,-4.2335,-4.195,-4.1008,-4.1008,-4.1008,-4.0931,-4.0585,-4.0639,-4.0766,-4.0762,-4.1175,-4.1563,-4.1621,-4.1914,-4.2051,-4.1738,-4.207,-4.2148,-4.1328,-4.1553,-4.1643,-4.1078,-4.0949,-4.0937,-4.0991,-4.1005,-4.1052,-4.119,-4.1191,-4.1328,-4.1641,-4.3086,-4.4101,-4.4473,-4.4648,-4.5058,-4.5762,-4.5605,-4.5646,-4.5899,-4.5868,-4.5757,-4.5586,-4.5586,-4.5586,-4.5586,-4.5586,-4.5586,-4.5586,-4.5586,-4.5586,-4.5586,-4.5586,-4.5586,-4.5586,-4.5586,-4.5586,-4.5586,-4.5586,-4.5586,-4.5586,-4.3497,-4.3497,-4.3497,-4.3497,-4.3513,-4.3548,-4.3548,-4.3849,-4.4087,-4.4076,-4.4401,-4.4631,-4.4631,-4.4631,-4.4638,-4.4588,-4.3251,-4.2259,-4.1838,-4.0969,-4.0489,-4.0489,-4.0566,-4.0623,-4.0623,-4.0527,-4.0489,-4.0489,-4.0269,-4.0139,-4.012,-3.9819,-3.9668,-3.9645,-3.9645,-3.9622,-3.9576,-3.9264,-3.9133,-3.9125,-3.8902,-3.8762,-3.8762,-3.8762,-3.8952,-3.9212,-3.9552,-3.9859,-4.0196,-4.0502,-4.0546,-4.0796,-4.2547,-4.195,-4.1085,-4.3489,-4.3104,-4.1931,-4.1931,-4.1931,-4.172,-4.0835,-4.0773,-4.0911,-4.0839,-4.15,-4.2171,-4.2385,-4.3065,-4.3398,-4.2656,-4.2519,-4.2265,-4.1538,-4.1238,-4.1116,-4.1097,-4.0928,-4.0857,-4.0967,-4.0974,-4.1033,-4.1151,-4.1172,-4.1523,-4.2324,-4.4668,-4.541,-4.3906,-4.5391,-4.5937,-4.5137,-4.5876,-4.6156,-4.5899,-4.5887,-4.5796,-4.5586,-4.5586,-4.5586,-4.5586,-4.5586,-4.5586,-4.5586,-4.5586,-4.5586,-4.5586,-4.5586,-4.5586,-4.5586,-4.5586,-4.5586,-4.5586,-4.5586,-4.5547,-4.547,-4.3497,-4.3497,-4.3497,-4.3497,-4.3726,-4.3912,-4.3912,-4.4436,-4.4781,-4.4482,-4.4781,-4.4988,-4.4988,-4.4988,-4.4829,-4.4384,-4.2905,-4.1903,-4.18,-4.0969,-4.0489,-4.0489,-4.1143,-4.1527,-4.1527,-4.0854,-4.0489,-4.0489,-4.0441,-4.0406,-4.0406,-4.0336,-4.0194,-4.0002,-4.0002,-3.9859,-3.9599,-3.951,-3.9486,-3.9505,-3.9432,-3.9383,-3.9383,-3.9383,-3.9599,-3.9901,-3.9982,-4.0157,-4.0521,-4.1261,-4.1066,-4.0796,-4.2547,-4.2374,-4.1758,-4.3008,-4.3104,-4.2816,-4.2816,-4.2816,-4.2604,-4.1739,-4.2047,-4.2444,-4.1923,-4.2044,-4.2463,-4.3239,-4.3552,-4.3633,-4.3457,-4.3418,-4.3336,-4.3117,-4.2478,-4.1979,-4.1882,-4.1249,-4.0803,-4.0842,-4.0846,-4.0838,-4.0877,-4.0982,-4.1406,-4.2266,-4.3535,-4.4394,-4.4707,-4.5723,-4.6211,-4.6016,-4.6113,-4.6072,-4.5899,-4.5849,-4.5757,-4.5586,-4.5586,-4.5586,-4.5586,-4.5586,-4.5586,-4.5586,-4.5586,-4.5586,-4.5586,-4.5586,-4.5586,-4.5586,-4.5586,-4.5586,-4.5586,-4.5586,-4.5163,-4.4586,-4.3497,-4.3612,-4.3758,-4.3758,-4.4046,-4.4308,-4.4308,-4.4757,-4.5052,-4.4872,-4.5118,-4.5342,-4.5342,-4.5342,-4.4882,-4.3818,-4.2931,-4.2066,-4.1239,-4.0739,-4.0489,-4.0489,-4.0931,-4.1181,-4.1181,-4.0719,-4.07,-4.1123,-4.1123,-4.0912,-4.0489,-4.0489,-4.0441,-4.0304,-4.0304,-4.0194,-4.0024,-3.9882,-3.984,-3.9819,-3.9668,-3.9599,-3.9599,-3.9599,-3.9797,-4.0101,-4.0101,-4.0267,-4.0566,-4.1027,-4.1143,-4.1354,-4.2681,-4.2508,-4.2143,-4.3797,-4.372,-4.3181,-4.3566,-4.372,-4.3564,-4.2643,-4.2832,-4.3038,-4.2229,-4.273,-4.3538,-4.4138,-4.4575,-4.4605,-4.3845,-4.4043,-4.4032,-4.3183,-4.255,-4.2332,-4.2675,-4.1889,-4.1447,-4.1905,-4.1931,-4.1974,-4.202,-4.2471,-4.2948,-4.3411,-4.4255,-4.4961,-4.541,-4.5859,-4.6113,-4.6113,-4.6037,-4.5951,-4.5848,-4.5835,-4.5738,-4.5586,-4.5586,-4.5586,-4.5586,-4.5586,-4.5586,-4.5586,-4.5586,-4.5586,-4.5586,-4.5586,-4.5586,-4.5586,-4.5586,-4.5586,-4.5547,-4.5124,-4.4451,-4.3835,-4.3563,-4.3804,-4.3998,-4.4087,-4.4447,-4.4701,-4.4701,-4.4966,-4.518,-4.518,-4.5419,-4.5586,-4.5586,-4.547,-4.4759,-4.3239,-4.297,-4.22,-4.0585,-4.0489,-4.0489,-4.0489,-4.0642,-4.0719,-4.0719,-4.0873,-4.1143,-4.1585,-4.1585,-4.12,-4.0489,-4.0489,-4.0489,-4.0489,-4.0489,-4.0489,-4.0489,-4.025,-4.0158,-4.0139,-3.9861,-3.9757,-3.9757,-3.9757,-3.9924,-4.0158,-4.0158,-4.0321,-4.0546,-4.0835,-4.1335,-4.195,-4.2835,-4.2701,-4.2624,-4.4586,-4.4393,-4.3662,-4.4335,-4.4622,-4.4506,-4.3566,-4.3596,-4.3589,-4.2688,-4.3558,-4.4685,-4.5053,-4.5659,-4.5728,-4.4388,-4.4609,-4.457,-4.3242,-4.2633,-4.2611,-4.3467,-4.2681,-4.2297,-4.3099,-4.3176,-4.3217,-4.3352,-4.4023,-4.4452,-4.4432,-4.523,-4.5696,-4.5696,-4.5832,-4.589,-4.589,-4.589,-4.5854,-4.5796,-4.5776,-4.5719,-4.5586,-4.5586,-4.5586,-4.5586,-4.5586,-4.5586,-4.5586,-4.5586,-4.5586,-4.5586,-4.5586,-4.5586,-4.5586,-4.5586,-4.5509,-4.5259,-4.4239,-4.3547,-4.3297,-4.3881,-4.3986,-4.4117,-4.4474,-4.4806,-4.503,-4.503,-4.5322,-4.5531,-4.5531,-4.5568,-4.5586,-4.5586,-4.4932,-4.4105,-4.3181,-4.2412,-4.1566,-4.0546,-4.0489,-4.0489,-4.0489,-4.1219,-4.1623,-4.1623,-4.2354,-4.2066,-4.0681,-4.0681,-4.0623,-4.0489,-4.0489,-4.0489,-4.0489,-4.0489,-4.0489,-4.0489,-4.0457,-4.0457,-4.0457,-4.0406,-4.0389,-4.0389,-4.0389,-4.0406,-4.0457,-4.0457,-4.0473,-4.0719,-4.2239,-4.2335,-4.195,-4.2835,-4.3508,-4.3893,-4.3547,-4.4297,-4.5278,-4.5393,-4.5526,-4.5411,-4.4526,-4.493,-4.5387,-4.4681,-4.4681,-4.5086,-4.5941,-4.62,-4.6202,-4.5996,-4.543,-4.5137,-4.5527,-4.4265,-4.3493,-4.4229,-4.3544,-4.297,-4.3104,-4.3104,-4.3124,-4.3143,-4.3297,-4.339,-4.34,-4.4322,-4.4845,-4.4845,-4.5533,-4.5899,-4.5899,-4.5841,-4.5808,-4.5796,-4.568,-4.5605,-4.5586,-4.5586,-4.5586,-4.5586,-4.5586,-4.5586,-4.5586,-4.5586,-4.5586,-4.5586,-4.5586,-4.5586,-4.5586,-4.5586,-4.5143,-4.4297,-4.272,-4.2585,-4.3107,-4.4261,-4.4482,-4.4663,-4.4849,-4.5159,-4.5381,-4.5381,-4.5513,-4.5586,-4.5586,-4.5586,-4.5586,-4.5586,-4.5259,-4.4682,-4.3835,-4.3008,-4.2354,-4.197,-4.1027,-4.0719,-4.12,-4.1123,-4.1066,-4.1066,-4.145,-4.1258,-4.0489,-4.0989,-4.0969,-4.0489,-4.0489,-4.0489,-4.0489,-4.0489,-4.0489,-4.0489,-4.0489,-4.0489,-4.0489,-4.0489,-4.0489,-4.0489,-4.0489,-4.0489,-4.0489,-4.0489,-4.1123,-4.1989,-4.2277,-4.2739,-4.3258,-4.3643,-4.4008,-4.4335,-4.4451,-4.4682,-4.4989,-4.5565,-4.5776,-4.575,-4.5376,-4.5703,-4.6025,-4.5654,-4.5616,-4.5802,-4.6219,-4.6308,-4.6152,-4.5664,-4.5664,-4.5664,-4.5508,-4.4783,-4.4506,-4.5291,-4.4526,-4.4045,-4.4451,-4.4489,-4.4489,-4.4489,-4.4528,-4.4547,-4.4547,-4.4951,-4.5201,-4.5201,-4.5528,-4.5738,-4.5738,-4.5699,-4.5699,-4.5699,-4.5624,-4.5586,-4.5586,-4.5586,-4.5586,-4.5586,-4.5586,-4.5586,-4.5586,-4.5586,-4.5586,-4.5566,-4.5163,-4.4991,-4.4934,-4.453,-4.3857,-4.303,-4.2703,-4.2277,-4.1944]}]]